[[{"header":{"parameterUnit":"m.s-1","parameterCategory":1,"la1":31.0,"la2":29.5877,"lo1":-88.7671,"lo2":-86.6584,"dy":0.0162,"dx":0.0185,"nx":115,"ny":88,"refTime":"2023-08-24T12:00:00:Z","depth":0,"parameterNumber":2,"parameterNumberName":"U-component_of_WINDS"},"data":[0.0,0.0,0.0,0.0,0.0,0.0,0.0,0.0,0.0,0.0,0.0,0.0,0.0,0.0,0.0,0.0,0.0,0.0,0.0,0.0,0.0,0.0,0.0,0.0,0.0,0.0,0.0,0.0,0.0,0.0,0.0,0.0,0.0,0.0,0.0,0.0,0.0,0.0,0.0,0.0,0.0,0.0,0.0,0.0,0.0,0.0,0.0,0.0,0.0,0.0,0.0,0.0,0.0,0.0,0.0,0.0,0.0,0.0,0.0,0.0,0.0,0.0,0.0,0.0,0.0,0.0,0.0,0.0,0.0,0.0,0.0,0.0,0.0,0.0,0.0,0.0,0.0,0.0,0.0,0.0,0.0,0.0,0.0,0.0,0.0,0.0,0.0,0.0,0.0,0.0,0.0,0.0,0.0,0.0,0.0,0.0,0.0,0.0,0.0,0.0,0.0,0.0,0.0,0.0,0.0,0.0,0.0,0.0,0.0,0.0,0.0,0.0,0.0,0.0,0.0,0.0,0.0,0.0,0.0,0.0,0.0,0.0,0.0,0.0,0.0,0.0,0.0,0.0,0.0,0.0,0.0,0.0,0.0,0.0,0.0,0.0,0.0,0.0,0.0,0.0,0.0,0.0,0.0,0.0,0.0,0.0,0.0,0.0,0.0,0.0,0.0,0.0,0.0,0.0,0.0,0.0,0.0,0.0,0.0,0.0,0.0,0.0,0.0,0.0,0.0,0.0,0.0,0.0,0.0,0.0,0.0,0.0,0.0,0.0,0.0,0.0,0.0,0.0,0.0,0.0,0.0,0.0,0.0,0.0,0.0,0.0,0.0,0.0,0.0,0.0,0.0,0.0,0.0,0.0,0.0,0.0,0.0,0.0,0.0,0.0,0.0,0.0,0.0,0.0,0.0,0.0,0.0,0.0,0.0,0.0,0.0,0.0,0.0,0.0,0.0,0.0,0.0,0.0,0.0,0.0,0.0,0.0,0.0,0.0,0.0,0.0,0.0,0.0,0.0,0.0,0.0,0.0,0.0,0.0,0.0,0.0,0.0,0.0,0.0,0.0,0.0,0.0,0.0,0.0,0.0,0.0,0.0,0.0,0.0,0.0,0.0,0.0,0.0,0.0,0.0,0.0,0.0,0.0,0.0,0.0,0.0,0.0,0.0,0.0,0.0,0.0,0.0,0.0,0.0,0.0,0.0,0.0,0.0,0.0,0.0,0.0,0.0,0.0,0.0,0.0,0.0,0.0,0.0,0.0,0.0,0.0,0.0,0.0,0.0,0.0,0.0,0.0,0.0,0.0,0.0,0.0,0.0,0.0,0.0,0.0,0.0,0.0,0.0,0.0,0.0,0.0,0.0,0.0,0.0,0.0,0.0,0.0,0.0,0.0,0.0,0.0,0.0,0.0,0.0,0.0,0.0,0.0,0.0,0.0,0.0,0.0,0.0,0.0,0.0,0.0,0.0,0.0,0.0,0.0,0.0,0.0,0.0,0.0,0.0,0.0,0.0,0.0,0.0,0.0,0.0,0.0,0.0,0.0,0.0,0.0,0.0,0.0,0.0,0.0,0.0,0.0,0.0,0.0,0.0,0.0,0.0,0.0,0.0,0.0,0.0,0.0,0.0,0.0,0.0,0.0,0.0,0.0,0.0,0.0,0.0,0.0,0.0,0.0,0.0,0.0,0.0,0.0,0.0,0.0,0.0,0.0,0.0,0.0,0.0,0.0,0.0,0.0,0.0,0.0,0.0,0.0,0.0,0.0,0.0,0.0,0.0,0.0,0.0,0.0,0.0,0.0,0.0,0.0,0.0,0.0,0.0,0.0,0.0,0.0,0.0,0.0,0.0,0.0,0.0,0.0,0.0,0.0,0.0,0.0,0.0,0.0,0.0,0.0,0.0,0.0,0.0,0.0,0.0,0.0,0.0,0.0,0.0,0.0,0.0,0.0,0.0,0.0,0.0,0.0,0.0,0.0,0.0,0.0,0.0,0.0,0.0,0.0,0.0,0.0,0.0,0.0,0.0,0.0,0.0,0.0,0.0,0.0,0.0,0.0,0.0,0.0,0.0,0.0,0.0,0.0,0.0,0.0,0.0,0.0,0.0,0.0,0.0,0.0,0.0,0.0,0.0,0.0,0.0,0.0,0.0,0.0,0.0,0.0,0.0,0.0,0.0,0.0,0.0,0.0,0.0,0.0,0.0,0.0,0.0,0.0,0.0,0.0,0.0,0.0,0.0,0.0,0.0,0.0,0.0,0.0,0.0,0.0,0.0,0.0,0.0,0.0,0.0,0.0,0.0,0.0,0.0,0.0,0.0,0.0,0.0,0.0,0.0,0.0,0.0,0.0,0.0,0.0,0.0,0.0,0.0,0.0,0.0,0.0,0.0,0.0,0.0,0.0,0.0,0.0,0.0,0.0,0.0,0.0,0.0,0.0,0.0,0.0,0.0,0.0,0.0,0.0,0.0,0.0,0.0,0.0,0.0,0.0,0.0,0.0,0.0,0.0,0.0,0.0,0.0,0.0,0.0,0.0,0.0,0.0,0.0,0.0,0.0,0.0,0.0,0.0,0.0,0.0,0.0,0.0,0.0,0.0,0.0,0.0,0.0,0.0,0.0,0.0,0.0,0.0,0.0,0.0,0.0,0.0,0.0,0.0,0.0,0.0,0.0,0.0,0.0,0.0,0.0,0.0,0.0,0.0,0.0,0.0,0.0,0.0,0.0,0.0,0.0,0.0,0.0,0.0,0.0,0.0,0.0,0.0,0.0,0.0,0.0,0.0,0.0,0.0,0.0,0.0,0.0,0.0,0.0,0.0,0.0,0.0,0.0,0.0,0.0,0.0,0.0,0.0,0.0,0.0,0.0,0.0,0.0,0.0,0.0,0.0,0.0,0.0,0.0,0.0,0.0,0.0,0.0,0.0,0.0,0.0,0.0,0.0,0.0,0.0,0.0,0.0,0.0,0.0,0.0,0.0,0.0,0.0,0.0,0.0,0.0,0.0,0.0,0.0,0.0,0.0,0.0,0.0,0.0,0.0,0.0,0.0,0.0,0.0,0.0,0.0,0.0,0.0,0.0,0.0,0.0,0.0,0.0,0.0,0.0,0.0,0.0,0.0,0.0,0.0,0.0,0.0,0.0,0.0,0.0,0.0,0.0,0.0,0.0,0.0,0.0,0.0,0.0,0.0,0.0,0.0,0.0,0.0,0.0,0.0,0.0,0.0,0.0,0.0,0.0,0.0,0.0,0.0,0.0,0.0,0.0,0.0,0.0,0.0,0.0,0.0,0.0,0.0,0.0,0.0,0.0,0.0,0.0,0.0,0.0,0.0,0.0,0.0,0.0,0.0,0.0,0.0,0.0,0.0,0.0,0.0,0.0,0.0,0.0,0.0,0.0,0.0,0.0,0.0,0.0,0.0,0.0,0.0,0.0,0.0,0.0,0.0,0.0,0.0,0.0,0.0,0.0,0.0,0.0,0.0,0.0,0.0,0.0,0.0,0.0,0.0,0.0,0.0,0.0,0.0,0.0,0.0,0.0,0.0,0.0,0.0,0.0,0.0,0.0,0.0,0.0,0.0,0.0,0.0,0.0,0.0,0.0,0.0,0.0,0.0,0.0,0.0,0.0,0.0,0.0,0.0,0.0,0.0,0.0,0.0,0.0,0.0,0.0,0.0,0.0,0.0,0.0,0.0,0.0,0.0,0.0,0.0,0.0,0.0,0.0,0.0,0.0,0.0,0.0,0.0,0.0,0.0,0.0,0.0,0.0,0.0,0.0,0.0,0.0,0.0,0.0,0.0,0.0,0.0,0.0,0.0,0.0,0.0,0.0,0.0,0.0,0.0,0.0,0.0,0.0,0.0,0.0,0.0,0.0,0.0,0.0,0.0,0.0,0.0,0.0,0.0,0.0,0.0,0.0,0.0,0.0,0.0,0.0,0.0,0.0,0.0,0.0,0.0,0.0,0.0,0.0,0.0,0.0,0.0,0.0,0.0,0.0,0.0,0.0,0.0,0.0,0.0,0.0,0.0,0.0,0.0,0.0,0.0,0.0,0.0,0.0,0.0,0.0,0.0,0.0,0.0,0.0,0.0,0.0,0.0,0.0,0.0,0.0,0.0,0.0,0.0,0.0,0.0,0.0,0.0,0.0,0.0,0.0,0.0,0.0,0.0,0.0,0.0,0.0,0.0,0.0,0.0,0.0,0.0,0.0,0.0,0.0,0.0,0.0,0.0,0.0,0.0,0.0,0.0,0.0,0.0,0.0,0.0,0.0,0.0,0.9113,0.0,0.0,0.0,0.0,0.0,0.0,0.0,0.0,0.0,0.0,0.0,0.0,0.0,0.0,0.0,0.0,0.0,0.0,0.0,0.0,0.0,0.0,0.0,0.0,0.0,0.0,0.0,0.0,0.0,0.0,0.0,0.0,0.0,0.0,0.0,0.0,0.0,0.0,0.0,0.0,0.0,0.0,0.0,0.0,0.0,0.0,0.0,0.0,0.0,0.0,0.0,0.0,0.0,0.0,0.0,0.0,0.0,0.0,0.0,0.0,0.0,0.0,0.0,0.0,0.0,0.0,0.0,0.0,0.0,0.0,0.0,0.0,0.0,0.0,0.0,0.0,0.0,0.0,0.0,0.0,0.0,0.0,0.0,0.0,0.0,0.0,0.0,0.0,0.0,0.0,0.0,0.0,0.0,0.0,0.0,0.0,0.0,0.0,0.0,0.0,0.0,0.0,0.0,0.0,0.0,0.0,0.0,0.0,0.0,0.0,1.0856,1.0592,1.0038,0.9638,0.947,0.0,0.0,0.0,0.0,0.0,0.0,0.0,0.0,0.0,0.0,0.0,0.0,0.0,0.0,0.0,0.0,0.0,0.0,0.0,0.0,0.0,0.0,0.0,0.0,0.0,0.0,0.0,0.0,0.0,0.0,0.0,0.0,0.0,0.0,0.0,0.0,0.0,0.0,0.0,0.0,0.0,0.0,0.0,0.0,0.0,0.0,0.0,0.0,0.0,0.0,0.0,0.0,0.0,0.0,0.0,0.0,0.0,0.0,0.0,0.0,0.0,0.0,0.0,0.0,0.0,0.0,0.0,0.0,0.0,0.0,0.0,0.0,0.0,0.0,0.0,0.0,0.0,0.0,0.0,0.0,0.0,0.0,0.0,0.0,0.0,0.0,0.0,0.0,0.0,0.0,0.0,0.0,0.0,0.0,0.0,0.0,0.0,0.0,0.0,0.0,0.0,0.0,0.0,0.0,0.0,0.0,0.0,0.0,0.0,0.0,0.0,0.0,1.0415,0.9966,0.9562,0.0,0.0,0.0,0.0,0.0,0.0,0.0,0.0,0.0,0.0,0.0,0.0,0.0,0.0,0.0,0.0,0.0,0.0,0.0,0.0,0.0,0.0,0.0,0.0,0.0,0.0,0.0,0.0,0.0,0.0,0.0,0.0,0.0,0.0,0.0,0.0,0.0,0.0,0.0,0.0,0.0,0.0,0.0,0.0,0.0,0.0,0.0,0.0,0.0,0.0,0.0,0.0,0.0,0.0,0.0,0.0,0.0,0.0,0.0,0.0,0.0,0.0,0.0,0.0,0.0,0.0,0.0,0.0,0.0,0.0,0.0,0.0,0.0,0.0,0.0,0.0,0.0,0.0,0.0,0.0,0.0,0.0,0.0,0.0,0.0,0.0,0.0,0.0,0.0,0.0,0.0,0.0,0.0,0.0,0.0,0.0,0.0,0.0,0.0,0.0,0.0,0.0,0.0,0.0,0.0,0.0,0.0,0.0,0.0,0.0,1.1262,1.0808,1.0358,0.0,0.9273,0.0,0.0,0.0,0.0,0.0,0.0,0.0,0.0,0.0,0.0,0.0,0.0,0.0,0.0,0.0,0.0,0.0,0.0,0.0,0.0,0.0,0.0,0.0,0.0,0.0,0.0,0.0,0.0,0.0,0.0,0.0,0.0,0.0,0.0,0.0,0.0,0.0,0.0,0.0,0.0,0.0,0.0,0.0,0.0,0.0,0.0,0.0,0.0,0.0,0.0,0.0,0.0,0.0,0.0,0.0,0.0,0.0,0.0,0.0,0.0,0.0,0.0,0.0,0.0,0.0,0.0,0.0,0.0,0.0,0.0,0.0,0.0,0.0,0.0,0.0,0.0,0.0,0.0,0.0,0.0,0.0,0.0,0.0,0.0,0.0,0.0,0.0,0.0,0.0,0.0,0.0,0.0,0.0,0.0,0.0,0.0,0.0,0.0,0.0,0.0,0.0,0.0,0.0,0.0,0.0,0.0,0.0,0.0,0.0,0.0,1.1817,1.1398,1.0559,0.9933,0.0,0.0,0.0,0.0,0.0,0.0,0.0,0.0,0.0,0.0,0.0,0.0,0.0,0.0,0.0,0.0,0.0,0.0,0.0,0.0,0.0,0.0,0.0,0.0,0.0,0.0,0.0,0.0,0.0,0.0,0.0,0.0,0.0,0.0,0.0,0.0,0.0,0.0,0.0,0.0,0.0,0.0,0.0,0.0,0.0,0.0,0.0,0.0,0.0,0.0,0.0,0.0,0.0,0.0,0.0,0.0,0.0,0.0,0.0,0.0,0.0,0.0,0.0,0.0,0.0,0.0,0.0,0.0,0.0,0.0,0.0,0.0,0.0,0.0,0.0,0.0,0.0,0.0,0.0,0.0,0.0,0.0,0.0,0.0,0.0,0.0,0.0,0.0,0.0,0.0,0.0,0.0,0.0,0.0,0.0,0.0,0.0,0.0,0.0,0.0,0.0,0.0,0.0,0.0,0.0,0.0,0.0,0.0,0.0,0.0,1.2605,1.1988,1.1483,1.0595,0.9995,0.9761,0.0,0.0,0.0,0.0,0.0,0.0,0.0,0.0,0.0,0.0,0.0,0.0,0.0,0.0,0.0,0.0,0.0,0.0,0.0,0.0,0.0,0.0,0.0,0.0,0.0,0.0,0.0,0.0,0.0,0.0,0.0,0.0,0.0,0.0,0.0,0.0,0.0,0.0,0.0,0.0,0.0,0.0,0.0,0.0,0.0,0.0,0.0,0.0,0.0,0.0,0.0,0.0,0.0,0.0,0.0,0.0,0.0,0.0,0.0,0.0,0.0,0.0,0.0,0.0,0.0,0.0,0.0,0.0,0.0,0.0,0.0,0.0,0.0,0.0,0.0,0.0,0.0,0.0,0.0,0.0,0.0,0.0,0.0,0.0,0.0,0.0,0.0,0.0,0.0,0.0,0.0,0.0,0.0,0.0,0.0,0.0,0.0,0.0,0.0,0.0,0.0,0.0,0.0,0.0,0.0,0.0,0.0,0.0,1.3042,1.2436,1.1677,1.0863,1.0288,1.0028,0.0,0.0,0.0,0.0,0.0,0.0,0.0,0.0,0.0,0.0,0.0,0.0,0.0,0.0,0.0,0.0,0.0,0.0,0.0,0.0,0.0,0.0,0.0,0.0,0.0,0.0,0.0,0.0,0.0,0.0,0.0,0.0,0.0,0.0,0.0,0.0,0.0,0.0,0.0,0.0,0.0,0.0,0.0,0.0,0.0,0.0,0.0,0.0,0.0,0.0,0.0,0.0,0.0,0.0,0.0,0.0,0.0,0.0,0.0,0.0,0.0,0.0,0.0,0.0,0.0,0.0,0.0,0.0,0.0,0.0,0.0,0.0,0.0,0.0,0.0,0.0,0.0,0.0,0.0,0.0,0.0,0.0,0.0,0.0,0.0,0.0,0.0,0.0,0.0,0.0,0.0,0.0,0.0,0.0,0.0,0.0,0.0,0.0,0.0,0.0,0.0,0.0,0.0,0.0,0.0,0.0,0.0,0.0,0.0,1.2989,1.2058,1.1303,1.08,1.0301,0.9989,0.0,0.0,0.0,0.0,0.0,0.0,0.0,0.0,0.0,0.0,0.0,0.0,0.0,0.0,0.0,0.0,0.0,0.0,0.0,0.0,0.0,0.0,0.0,0.0,0.0,0.0,0.0,0.0,0.0,0.0,0.0,0.0,0.0,0.0,0.0,0.0,0.0,0.0,0.0,0.0,0.0,0.0,0.0,0.0,0.0,0.0,0.0,0.0,0.0,0.0,0.0,0.0,0.0,0.0,0.0,0.0,0.0,0.0,0.0,0.0,0.0,0.0,0.0,0.0,0.0,0.0,0.0,0.0,0.0,0.0,0.0,0.0,0.0,0.0,0.0,0.0,0.0,0.0,0.0,0.0,0.0,0.0,0.0,0.0,0.0,0.0,0.0,0.0,0.0,0.0,0.0,0.0,0.0,0.0,0.0,0.0,0.0,0.0,0.0,0.0,0.0,0.0,0.0,0.0,0.0,0.0,0.0,0.0,0.0,1.2552,0.0,1.1052,0.0,1.0238,0.9989,0.0,0.0,0.0,0.0,0.0,0.0,0.0,0.0,0.0,0.0,0.0,0.0,0.0,0.0,0.0,0.0,0.0,0.0,0.0,0.0,0.0,0.0,0.0,0.0,0.0,0.0,0.0,0.0,0.0,0.0,0.0,0.0,0.0,0.0,0.0,0.0,0.0,0.0,0.0,0.0,0.0,0.0,0.0,0.0,0.0,0.0,0.0,0.0,0.0,0.0,0.0,0.0,0.0,0.0,0.0,0.0,0.0,0.0,0.0,0.0,0.0,0.0,0.0,0.0,0.0,0.0,0.0,0.0,0.0,0.0,0.0,0.0,0.0,0.0,0.0,0.0,0.0,0.0,0.0,0.0,0.0,0.0,0.0,0.0,0.0,0.0,0.0,0.0,0.0,0.0,0.0,0.0,0.0,0.0,0.0,0.0,0.0,0.0,0.0,0.0,0.0,0.0,0.0,0.0,0.0,0.0,0.0,0.0,1.2834,1.1677,1.1317,1.094,1.0624,1.0174,0.9989,0.0,0.0,0.0,0.0,0.0,0.0,0.0,0.0,0.0,0.0,0.0,0.0,0.0,0.0,0.0,0.0,0.0,0.0,0.0,0.0,0.0,0.0,0.0,0.0,0.0,0.0,0.0,0.0,0.0,0.0,0.0,0.0,0.0,0.0,0.0,0.0,0.0,0.0,0.0,0.0,0.0,0.0,0.0,0.0,0.0,0.0,0.0,0.0,0.0,0.0,0.0,0.0,0.0,0.0,0.0,0.0,0.0,0.0,0.0,0.0,0.0,0.0,0.0,0.0,0.0,0.0,0.0,0.0,0.0,0.0,0.0,0.0,0.0,0.0,0.0,0.0,0.0,0.0,0.0,0.0,0.0,0.0,0.0,0.0,0.0,0.0,0.0,0.0,0.0,0.0,0.0,0.0,0.0,0.0,0.0,0.0,0.0,0.0,0.0,0.0,0.0,0.0,0.0,0.0,0.0,0.0,0.0,0.0,0.0,1.1435,1.1052,1.0807,1.0624,1.0238,0.9989,0.0,0.0,0.0,0.0,0.0,0.0,0.0,0.0,0.0,0.0,0.0,0.0,0.0,0.0,0.0,0.0,0.0,0.0,0.0,0.0,0.0,0.0,0.0,0.0,0.0,0.0,0.0,0.0,0.0,0.0,0.0,0.0,0.0,0.0,0.0,0.0,0.0,0.0,0.0,0.0,0.0,0.0,0.0,0.0,0.0,0.0,0.0,0.0,0.0,0.0,0.0,0.0,0.0,0.0,0.0,0.0,0.0,0.0,0.0,0.0,0.0,0.0,0.0,0.0,0.0,0.0,0.0,0.0,0.0,0.0,0.0,0.0,0.0,0.0,0.0,0.0,0.0,0.0,0.0,0.0,0.0,0.0,0.0,0.0,0.0,0.0,0.0,0.0,0.0,0.0,0.0,0.0,0.0,0.0,0.0,0.0,0.0,0.0,0.0,0.0,0.0,0.0,0.0,0.0,0.0,0.0,0.0,0.0,0.0,1.1115,1.0933,1.0681,1.0491,1.0174,0.9983,0.9926,0.0,0.0,0.0,0.0,0.0,0.0,0.0,0.0,0.0,0.0,0.0,0.0,0.0,0.0,0.0,0.0,0.0,0.0,0.0,0.0,0.0,0.0,0.0,0.0,0.0,0.0,0.0,0.0,0.0,0.0,0.0,0.0,0.0,0.0,0.0,0.0,0.0,0.0,0.0,0.0,0.0,0.0,0.0,0.0,0.0,0.0,0.0,0.0,0.0,0.0,0.0,0.0,0.0,0.0,0.0,0.0,0.0,0.0,0.0,0.0,0.0,0.0,0.0,0.0,0.0,0.0,0.0,0.0,0.0,0.0,0.0,0.0,0.0,0.0,0.0,0.0,0.0,0.0,0.0,0.0,0.0,0.0,0.0,0.0,0.0,0.0,0.0,0.0,0.0,0.0,0.0,0.0,0.0,0.0,0.0,0.0,0.0,0.0,0.0,0.0,0.0,0.0,0.0,0.0,0.0,0.0,0.0,0.0,1.0807,1.0807,1.0618,1.0308,1.0117,0.9926,0.0,0.0,0.0,0.0,0.0,0.0,0.0,0.0,0.0,0.0,0.0,0.0,0.0,0.0,0.0,0.0,0.0,0.0,0.0,0.0,0.0,0.0,0.0,0.0,0.0,0.0,0.0,0.0,0.0,0.0,0.0,0.0,0.0,0.0,0.0,0.0,0.0,0.0,0.0,0.0,0.0,0.0,0.0,0.0,0.0,0.0,0.0,0.0,0.0,0.0,0.0,0.0,0.0,0.0,0.0,0.0,0.0,0.0,0.0,0.0,0.0,0.0,0.0,0.0,0.0,0.0,0.0,0.0,0.0,0.0,0.0,0.0,0.0,0.0,0.0,0.0,0.0,0.0,0.0,0.0,0.0,0.0,0.0,0.0,0.0,0.0,0.0,0.0,0.0,0.0,0.0,0.0,0.0,0.0,0.0,0.0,0.0,0.0,0.0,0.0,0.0,0.0,0.0,0.0,0.0,0.0,0.0,0.0,0.0,1.0681,1.0498,1.0371,1.0308,0.9989,0.9868,0.0,0.0,0.0,0.0,0.0,0.0,0.0,0.0,0.0,0.0,0.0,0.0,0.0,0.0,0.0,0.0,0.0,0.0,0.0,0.0,0.0,0.0,0.0,0.0,0.0,0.0,0.0,0.0,0.0,0.0,0.0,0.0,0.0,0.0,0.0,0.0,0.0,0.0,0.0,0.0,0.0,0.0,0.0,0.0,0.0,0.0,0.0,0.0,0.0,0.0,0.0,0.0,0.0,0.0,0.0,0.0,0.0,0.0,0.0,0.0,0.0,0.0,0.0,0.0,0.0,0.0,0.0,0.0,0.0,0.0,0.0,0.0,0.0,0.0,0.0,0.0,0.0,0.0,0.0,0.0,0.0,0.0,0.0,0.0,0.0,0.0,0.0,0.0,0.0,0.0,0.0,0.0,0.0,0.0,0.0,0.0,0.0,0.0,0.0,0.0,0.0,0.0,0.0,0.0,0.0,0.0,0.0,0.0,1.0869,1.0677,1.0419,1.0282,1.0265,0.998,0.974,0.0,0.0,0.0,0.0,0.0,0.0,0.0,0.0,0.0,0.0,0.0,0.0,0.0,0.0,0.0,0.0,0.0,0.0,0.0,0.0,0.0,0.0,0.0,0.0,0.0,0.0,0.0,0.0,0.0,0.0,0.0,0.0,0.0,0.0,0.0,0.0,0.0,0.0,0.0,0.0,0.0,0.0,0.0,0.0,0.0,0.0,0.0,0.0,0.0,0.0,0.0,0.0,0.0,0.0,0.0,0.0,0.0,0.0,0.0,0.0,0.0,0.0,0.0,0.0,0.0,0.0,0.0,0.0,0.0,0.0,0.0,0.0,0.0,0.0,0.0,0.0,0.0,0.0,0.0,0.0,0.0,0.0,0.0,0.0,0.0,0.0,0.0,0.0,0.0,0.0,0.0,0.0,0.0,0.0,0.0,0.0,0.0,0.0,0.0,0.0,0.0,0.0,0.0,0.0,0.0,0.0,0.0,0.0,1.0677,1.0698,1.0378,1.0221,1.0303,0.9982,0.9719,0.0,0.0,0.0,0.0,0.0,0.0,0.0,0.0,0.0,0.0,0.0,0.0,0.0,0.0,0.0,0.0,0.0,0.0,0.0,0.0,0.0,0.0,0.0,0.0,0.0,0.0,0.0,0.0,0.0,0.0,0.0,0.0,0.0,0.0,0.0,0.0,0.0,0.0,0.0,0.0,0.0,0.0,0.0,0.0,0.0,0.0,0.0,0.0,0.0,0.0,0.0,0.0,0.0,0.0,0.0,0.0,0.0,0.0,0.0,0.0,0.0,0.0,0.0,0.0,0.0,0.0,0.0,0.0,0.0,0.0,0.0,0.0,0.0,0.0,0.0,0.0,0.0,0.0,0.0,0.0,0.0,0.0,0.0,0.0,0.0,0.0,0.0,0.0,0.0,0.0,0.0,0.0,0.0,0.0,0.0,0.0,0.0,0.0,0.0,0.0,0.0,0.0,0.0,0.0,0.0,0.0,0.0,0.0,1.0916,1.0853,1.0454,1.0203,1.0043,0.9952,0.979,0.0,0.0,0.0,0.0,0.0,0.0,0.0,0.0,0.0,0.0,0.0,0.0,0.0,0.0,0.0,0.0,0.0,0.0,0.0,0.0,0.0,0.0,0.0,0.0,0.0,0.0,0.0,0.0,0.0,0.0,0.0,0.0,0.0,0.0,0.0,0.0,0.0,0.0,0.0,0.0,0.0,0.0,0.0,0.0,0.0,0.0,0.0,0.0,0.2221,0.0,0.0,0.0,0.0,0.0,0.0,0.0,0.0,0.0,0.0,0.0,0.0,0.0,0.0,0.0,0.0,0.0,0.0,0.0,0.0,0.0,0.0,0.0,0.0,0.0,0.0,0.0,0.0,0.0,0.0,0.0,0.0,0.0,0.0,0.0,0.0,0.0,0.0,0.0,0.0,0.0,0.0,0.0,0.0,0.0,0.0,0.0,0.0,0.0,0.0,0.0,0.0,0.0,0.0,0.0,0.0,0.0,0.0,0.0,1.1308,1.1071,1.0584,1.029,1.0252,1.009,0.9904,0.0,0.0,0.0,0.0,0.0,0.0,0.0,0.0,0.0,0.0,0.0,0.0,0.0,0.0,0.0,0.0,0.0,0.0,0.0,0.0,0.0,0.0,0.0,0.0,0.0,0.0,0.0,0.0,0.0,0.0,0.0,0.0,0.0,0.0,0.0,0.0,0.0,0.0,0.0,0.0,0.0,0.0,0.0,0.0,0.0,0.0,0.0,0.0,0.0,0.0,0.0,0.0,0.0,0.0,0.0,0.0,0.0,0.0,0.0,0.0,0.0,0.0,0.0,0.0,0.0,0.0,0.0,0.0,0.0,0.0,0.0,0.0,0.0,0.0,0.0,0.0,0.0,0.0,0.0,0.0,0.0,0.0,0.0,0.0,0.0,0.0,0.0,0.0,0.0,0.0,0.0,0.0,0.0,0.0,0.0,0.0,0.0,0.0,0.0,0.0,0.0,0.0,0.0,0.0,0.0,0.0,0.0,1.1703,1.1627,1.1344,1.0779,1.0443,1.0507,1.0313,1.0174,1.0102,0.0,0.0,0.0,0.0,0.0,0.0,0.0,0.0,0.0,0.0,0.0,0.0,0.0,0.0,0.0,0.0,0.0,0.0,0.0,0.0,0.0,0.0,0.0,0.0,0.0,0.0,0.0,0.0,0.0,0.0,0.0,0.0,0.0,0.0,0.0,0.0,0.0,0.0,0.5359,0.4764,0.0,0.0,0.0,0.0,0.0,0.0,0.0,0.0,0.121,0.0,0.0,0.0,0.0,0.0,0.0,0.0,0.0,0.0,0.0,0.0,0.0,0.0,0.0,0.0,0.0,0.0,0.0,0.0,0.0,0.0,0.0,0.0,0.0,0.0,0.0,0.0,0.0,0.0,0.0,0.0,0.0,0.0,0.0,0.0,0.0,0.0,0.0,0.0,0.0,0.0,0.0,0.0,0.0,0.0,0.0,0.0,0.0,0.0,0.0,0.0,0.0,0.0,0.0,0.0,0.0,1.227,1.1874,1.1683,1.163,1.1051,1.0697,1.0738,1.0548,1.0507,1.0672,0.0,0.0,0.0,0.0,0.0,0.0,0.0,0.0,0.0,0.0,0.0,0.0,0.0,0.0,0.0,0.0,0.0,0.0,0.0,0.0,0.0,0.0,0.0,0.0,0.0,0.0,0.0,0.0,0.0,0.0,0.0,0.0,0.0,0.0,0.0,0.0,0.0,0.0,0.0,0.4758,0.4295,0.0,0.0,0.0,0.0,0.0,0.0,0.0,0.0,0.121,0.0,0.0,0.0,0.0,0.0,0.0,0.0,0.0,0.0,0.0,0.0,0.0,0.0,0.0,0.0,0.0,0.0,0.0,0.0,0.0,0.0,0.0,0.0,0.0,0.0,0.0,0.0,0.0,0.0,0.0,0.0,0.0,0.0,0.0,0.0,0.0,0.0,0.0,0.0,0.0,0.0,0.0,0.0,0.0,0.0,0.0,0.0,0.0,0.0,0.0,0.0,0.0,0.0,0.0,0.0,1.2353,1.1959,1.1659,1.17,1.1111,1.0812,1.0812,1.0588,1.0588,0.0,0.0,0.0,0.0,0.0,0.0,0.0,0.0,0.0,0.0,0.0,0.0,0.0,0.0,0.0,0.0,0.0,0.0,0.0,0.0,0.0,0.0,0.0,0.0,0.0,0.0,0.0,0.0,0.0,0.0,0.0,0.0,0.0,0.0,0.0,0.0,0.0,0.0,0.0,0.0,0.4425,0.3959,0.3355,0.0,0.0,0.0,0.0,0.0,0.0,0.1277,0.1143,0.0,0.0,0.0,0.0,0.0,0.0,0.0,0.0,0.0,0.0,0.0,0.0,0.0,0.0,0.0,0.0,0.0,0.0,0.0,0.0,0.0,0.0,0.0,0.0,0.0,0.0,0.0,0.0,0.0,0.0,0.0,0.0,0.0,0.0,0.0,0.0,0.0,0.0,0.0,0.0,0.0,0.0,0.0,0.0,0.0,0.0,0.0,0.0,0.0,0.0,0.0,0.0,0.0,0.0,0.0,1.2458,1.2032,1.1774,1.1706,1.1186,1.0887,1.0887,1.0738,1.0738,0.0,0.0,0.0,0.0,0.0,0.0,0.0,0.0,0.0,0.0,0.0,0.0,0.0,0.0,0.0,0.0,0.0,0.0,0.0,0.0,0.0,0.0,0.0,0.0,0.0,0.0,0.0,0.0,0.0,0.0,0.0,0.0,0.0,0.0,0.0,0.0,0.0,0.0,0.0,0.0,0.0,0.3823,0.3279,0.2924,0.0,0.0,0.0,0.0,0.1277,0.121,0.0,0.0,0.0,0.0,0.0,0.0,0.0,0.0,0.0,0.0,0.0,0.0,0.0,0.0,0.0,0.0,0.0,0.0,0.0,0.0,0.0,0.0,0.0,0.0,0.0,0.0,0.0,0.0,0.0,0.0,0.0,0.0,0.0,0.0,0.0,0.0,0.0,0.0,0.0,0.0,0.0,0.0,0.0,0.0,0.0,0.0,0.0,0.0,0.0,0.0,0.0,0.0,0.0,0.0,0.0,0.0,1.283,1.2204,1.1922,1.1929,1.1558,1.1335,1.1335,1.1111,1.1117,0.0,0.0,0.0,0.0,0.0,0.0,0.0,0.0,0.0,0.0,0.0,0.0,0.0,0.0,0.0,0.0,0.0,0.0,0.0,0.0,0.0,0.0,0.0,0.0,0.0,0.0,0.0,0.0,0.0,0.0,0.0,0.0,0.0,0.0,0.0,0.0,0.0,0.0,0.0,0.0,0.0,0.447,0.4039,0.3395,0.2927,0.0,0.0,0.1748,0.1816,0.1681,0.0,0.0,0.0,0.0,0.0,0.0,0.0,0.0,0.0,0.0,0.0,0.0,0.0,0.0,0.0,0.0,0.0,0.0,0.0,0.0,0.0,0.0,0.0,0.0,0.0,0.0,0.0,0.0,0.0,0.0,0.0,0.0,0.0,0.0,0.0,0.0,0.0,0.0,0.0,0.0,0.0,0.0,0.0,0.0,0.0,0.0,0.0,0.0,0.0,0.0,0.0,0.0,0.0,0.0,0.0,1.3281,1.2893,1.2378,1.2077,1.2003,1.1706,1.1558,1.1552,1.1484,1.1484,0.0,0.0,0.0,0.0,0.0,0.0,0.0,0.0,0.0,0.0,0.0,0.0,0.0,0.0,0.0,0.0,0.0,0.0,0.0,0.0,0.0,0.0,0.0,0.0,0.0,0.0,0.0,0.0,0.0,0.0,0.0,0.0,0.0,0.0,0.0,0.0,0.0,0.0,0.0,0.0,0.0,0.0,0.3853,0.3315,0.0,0.0,0.0,0.1767,0.1684,0.0,0.0,0.0,0.0,0.0,0.0,0.0,0.0,0.0,0.0,0.0,0.0,0.0,0.0,0.0,0.0,0.0,0.0,0.0,0.0,0.0,0.0,0.0,0.0,0.0,0.0,0.0,0.0,0.0,0.0,0.0,0.0,0.0,0.0,0.0,0.0,0.0,0.0,0.0,0.0,0.0,0.0,0.0,0.0,0.0,0.0,0.0,0.0,0.0,0.0,0.0,0.0,0.0,0.0,0.0,0.0,0.0,1.2973,1.2599,1.2305,1.2157,1.1929,1.1855,1.1929,1.1855,0.0,0.0,0.0,0.0,0.0,0.0,0.0,0.0,0.0,0.0,0.0,0.0,0.0,0.0,0.0,0.0,0.0,0.0,0.0,0.0,0.0,0.0,0.0,0.0,0.0,0.0,0.0,1.0084,0.0,0.0,0.0,0.0,0.0,0.0,0.0,0.0,0.0,0.0,0.0,0.0,0.0,0.0,0.4296,0.3778,0.3395,0.3017,0.0,0.0,0.182,0.1668,0.1536,0.1392,0.0,0.0,0.0,0.0,0.0,0.0,0.0,0.0,0.0,0.0,0.0,0.0,0.0,0.0,0.0,0.0,0.0,0.0,0.0,0.0,0.0,0.0,0.0,0.0,0.0,0.0,0.0,0.0,0.0,0.0,0.0,0.0,0.0,0.0,0.0,0.0,0.0,0.0,0.0,0.0,0.0,0.0,0.0,0.0,0.0,0.0,0.0,0.0,0.0,0.0,0.0,0.0,0.0,0.0,0.0,1.32,1.2746,1.2599,1.2599,1.2378,1.2378,1.2526,1.2378,1.2372,0.0,0.0,0.0,0.0,0.0,0.0,0.0,0.0,0.0,0.0,0.0,0.0,0.0,0.0,0.0,0.0,0.0,0.0,0.0,0.0,0.0,0.0,0.0,0.0,0.0,0.0,0.0,0.0,0.0,0.0,0.0,0.0,0.0,0.0,0.0,0.0,0.0,0.0,0.0,0.0,0.0,0.4598,0.4363,0.3982,0.3551,0.0,0.0,0.2367,0.2046,0.1921,0.1856,0.1681,0.0,0.0,0.0,0.0,0.0,0.0,0.0,0.0,0.0,0.0,0.0,0.0,0.0,0.0,0.0,0.0,0.0,0.0,0.0,0.0,0.0,0.0,0.0,0.0,0.0,0.0,0.0,0.0,0.0,0.0,0.0,0.0,0.0,0.0,0.0,0.0,0.0,0.0,0.0,0.0,0.0,0.0,0.0,0.0,0.0,0.0,0.0,0.0,0.0,0.0,0.0,0.0,0.0,1.3783,1.3346,1.3127,1.29,1.282,1.2673,1.2673,1.2746,1.2753,1.2673,0.0,0.0,0.0,0.0,0.0,0.0,0.0,0.0,0.0,0.0,0.0,0.0,0.0,0.0,0.0,0.0,0.0,0.0,0.0,0.0,0.0,0.0,0.0,0.0,0.0,0.0,0.0,0.0,1.045,1.0118,0.9836,0.0,0.0,0.0,0.0,0.0,0.0,0.0,0.0,0.0,0.0,0.4932,0.4462,0.4044,0.0,0.0,0.2855,0.2459,0.2369,0.2071,0.1921,0.1836,0.1909,0.0,0.0,0.0,0.0,0.0,0.0,0.0,0.0,0.0,0.0,0.0,0.0,0.0,0.0,0.0,0.0,0.0,0.0,0.0,0.0,0.0,0.0,0.0,0.0,0.0,0.0,0.0,0.0,0.0,0.0,0.0,0.0,0.0,0.0,0.0,0.0,0.0,0.0,0.0,0.0,0.0,0.0,0.0,0.0,0.0,0.0,0.0,0.0,0.0,0.0,0.0,0.0,1.4,1.3564,1.3419,1.3266,1.3046,1.3046,1.3119,1.3258,1.3258,1.3185,0.0,0.0,0.0,0.0,0.0,0.0,0.0,0.0,0.0,0.0,0.0,0.0,0.0,0.0,0.0,0.0,0.0,0.0,0.0,0.0,0.0,0.0,0.0,0.0,0.0,0.0,0.0,0.0,1.0663,1.0143,0.9544,0.0,0.0,0.0,0.0,0.0,0.0,0.0,0.0,0.0,0.0,0.5085,0.4616,0.4151,0.3763,0.3604,0.3059,0.2588,0.251,0.2195,0.1961,0.1886,0.0,0.0,0.0,0.0,0.0,0.0,0.0,0.0,0.0,0.0,0.0,0.0,0.0,0.0,0.0,0.0,0.0,0.0,0.0,0.0,0.0,0.0,0.0,0.0,0.0,0.0,0.0,0.0,0.0,0.0,0.0,0.0,0.0,0.0,0.0,0.0,0.0,0.0,0.0,0.0,0.0,0.0,0.0,0.0,0.0,0.0,0.0,0.0,0.0,0.0,0.0,0.0,0.0,1.4217,1.379,1.3572,1.3492,1.3492,1.3492,1.3702,1.4057,1.4057,1.3992,1.3797,0.0,0.0,0.0,0.0,0.0,0.0,0.0,0.0,0.0,0.0,0.0,0.0,0.0,0.0,0.0,0.0,0.0,0.0,0.0,0.0,0.0,0.0,0.0,0.0,0.0,0.0,1.0812,1.0438,0.9997,0.0,0.0,0.0,0.0,0.0,0.0,0.0,0.0,0.0,0.0,0.555,0.5004,0.5004,0.4307,0.3841,0.3763,0.3295,0.2824,0.2588,0.2352,0.2118,0.0,0.0,0.0,0.0,0.0,0.0,0.0,0.0,0.0,0.0,0.0,0.0,0.0,0.0,0.0,0.0,0.0,0.0,0.0,0.0,0.0,0.0,0.0,0.0,0.0,0.0,0.0,1.302,1.2878,0.0,0.0,0.0,0.0,0.0,0.0,0.0,0.0,0.0,0.0,0.0,1.3622,1.3775,0.0,0.0,0.0,0.0,0.0,0.0,0.0,0.0,0.0,0.0,0.0,0.0,1.4353,1.4217,1.4,1.392,1.392,1.392,1.3985,1.4065,1.4137,1.4057,1.4,0.0,0.0,0.0,0.0,0.0,0.0,0.0,0.0,0.0,0.0,0.0,0.0,0.0,0.0,0.0,0.0,0.0,0.0,0.0,0.0,0.0,0.0,0.0,0.0,0.0,1.1186,0.0,0.0,0.0,0.0,0.0,0.0,0.0,0.0,0.0,0.0,0.0,0.6718,0.6338,0.5789,0.5323,0.5007,0.4618,0.4231,0.0,0.0,0.0,0.0,0.0,0.0,0.0,0.0,0.0,0.0,0.0,0.0,0.0,0.0,0.3446,0.3827,0.4208,0.4515,0.466,0.0,0.0,0.0,0.0,0.0,0.0,0.0,0.0,0.0,0.0,0.0,0.0,0.0,0.0,0.0,0.0,1.2973,0.0,0.0,0.0,0.0,0.0,0.0,0.0,0.0,1.32,1.3258,1.3302,1.3411,1.3775,0.0,1.4425,1.4784,0.0,0.0,0.0,0.0,0.0,0.0,0.0,0.0,1.448,1.4525,1.446,1.4514,1.4622,1.463,1.4696,1.4843,1.4696,1.463,1.4564,1.4482,1.4311,0.0,0.0,0.0,0.0,0.0,0.0,0.0,0.0,0.0,0.0,0.0,0.0,0.0,0.0,0.0,0.0,0.0,0.0,0.0,0.0,0.0,0.0,0.0,1.0887,0.0,0.0,0.0,0.0,0.0,0.0,0.0,0.0,0.0,0.7638,0.7173,0.6788,0.6567,0.5948,0.5482,0.5243,0.0,0.0,0.0,0.0,0.0,0.0,0.0,0.2746,0.251,0.251,0.251,0.251,0.2588,0.2668,0.251,0.0,0.0,0.3684,0.3999,0.4233,0.4543,0.4932,0.5323,0.5559,0.587,0.6099,0.0,0.0,0.0,0.0,0.0,0.0,0.0,0.0,1.3863,1.3572,0.0,1.2973,0.0,0.0,0.0,0.0,0.0,0.0,0.0,0.0,1.32,1.3098,1.291,1.3324,1.3484,1.3528,1.4129,1.4425,1.4641,1.4991,0.0,0.0,0.0,0.0,0.0,0.0,1.4694,1.4958,1.4965,1.5189,1.5642,1.5742,1.5896,1.6269,1.5888,1.5589,1.5381,1.5211,1.5134,1.5026,1.5281,0.0,0.0,0.0,0.0,0.0,0.0,0.0,0.0,0.0,0.0,0.0,0.0,0.0,0.0,0.0,0.0,0.0,0.0,0.0,0.0,1.0842,0.0,0.0,0.0,0.0,0.0,0.0,0.0,0.0,0.0,0.0,0.7833,0.7277,0.6953,0.6887,0.0,0.0,0.0,0.0,0.4555,0.4399,0.4084,0.3618,0.3228,0.299,0.2755,0.2596,0.0,0.0,0.2516,0.2516,0.2519,0.2516,0.2676,0.2984,0.3686,0.3841,0.4075,0.4781,0.4937,0.5096,0.5482,0.587,0.618,1.6439,0.0,0.0,0.0,0.0,1.4776,1.4569,1.4425,1.4008,1.3645,1.3419,1.3193,0.0,0.0,0.0,0.0,0.0,0.0,1.2973,1.32,1.32,1.3091,1.2903,1.3178,1.3331,1.3528,1.3985,1.4274,1.4497,1.4641,1.4919,1.5204,0.0,0.0,0.0,0.0,1.5271,1.5667,1.5691,1.5815,1.6125,1.6133,1.6209,1.6286,1.6065,1.592,1.5843,1.5613,1.5605,1.5697,1.5774,0.0,0.0,0.0,0.0,0.0,0.0,0.0,0.0,0.0,0.0,0.0,0.0,0.0,0.0,0.0,0.0,0.0,0.0,0.0,1.16,1.1061,1.0739,0.0,0.0,0.0,0.0,0.0,0.0,0.0,0.0,0.0,0.8027,0.7552,0.7289,0.0,0.0,0.584,0.5921,0.5186,0.4692,0.4611,0.0,0.0,0.0,0.3463,0.3379,0.3133,0.3133,0.3131,0.3133,0.3131,0.3131,0.2964,0.3089,0.3282,0.3783,0.3845,0.3923,0.4311,0.4623,0.4857,0.5085,0.5398,0.5631,1.7246,1.6604,1.6297,1.5995,1.5643,1.5355,1.4993,1.4569,1.4289,1.3928,1.3645,1.3419,1.32,1.2973,1.282,0.0,0.0,0.0,1.3046,1.32,1.32,1.3185,1.3171,1.3314,1.3615,1.3926,1.4326,1.4536,1.4692,1.4906,1.5193,1.5406,0.0,0.0,1.5581,1.553,1.5707,1.6191,1.6293,1.6505,1.6863,1.6949,1.6949,1.6871,1.6723,1.6653,1.6583,1.6339,1.6339,1.6521,1.6504,1.6418,0.0,0.0,0.0,0.0,0.0,0.0,0.0,0.0,0.0,0.0,0.0,1.3647,1.3414,0.0,0.0,0.0,1.2098,1.1799,1.1513,1.1117,0.0,0.0,0.0,0.0,0.0,0.0,0.0,0.9145,0.8897,0.8636,0.8134,0.7792,0.7518,0.7289,0.6533,0.6031,0.6031,0.0,0.4954,0.4868,0.462,0.4287,0.4032,0.3948,0.3781,0.3444,0.3359,0.3359,0.3359,0.3359,0.3359,0.3353,0.3321,0.3505,0.3876,0.3824,0.3842,0.4095,0.4311,0.4545,0.4854,0.5085,0.524,1.7902,1.7902,1.7517,1.6989,1.6478,1.6258,1.5625,1.4728,1.4728,1.4439,1.3938,1.3719,1.3499,1.3278,1.3043,0.0,0.0,1.3198,1.3278,1.3271,1.3278,1.3418,1.3587,1.3722,1.404,1.4554,1.4881,1.5072,1.5142,1.5443,1.569,1.5705,1.5487,1.5495,1.5782,1.596,1.6215,1.6651,1.6896,1.7213,1.7764,1.7951,1.7951,1.7691,1.77,1.761,1.7473,1.7221,1.7221,1.7383,1.7221,1.7139,1.7131,0.0,0.0,0.0,0.0,0.0,0.0,0.0,0.0,0.0,0.0,0.0,0.0,0.0,0.0,0.0,1.2024,0.0,1.1341,1.1098,0.0,0.0,0.0,1.0371,1.0284,0.9902,0.9511,0.9302,0.0,0.0,0.8247,0.0,0.7654,0.7101,0.6482,0.6065,0.6065,0.5742,0.5396,0.5155,0.5152,0.4903,0.4491,0.4322,0.4071,0.3646,0.3546,0.3555,0.3472,0.347,0.3549,0.3725,0.3628,0.3588,0.4088,0.3946,0.382,0.4088,0.4121,0.4265,0.4587,0.4899,0.5059,1.8939,1.8939,1.8713,1.7991,1.6998,1.6764,1.6413,1.5904,1.5586,1.5284,1.5003,1.4683,1.43,1.3923,1.3923,1.3923,1.3916,1.3923,1.4077,1.4154,1.4161,1.407,1.3971,1.4234,1.4447,1.4717,1.4754,1.4925,1.508,1.5389,1.5677,1.6071,1.6164,1.625,1.6323,1.6323,1.6817,1.7662,1.7662,1.7865,1.8193,1.8282,1.8193,1.7951,1.7789,1.7691,1.7619,1.7465,1.731,1.7392,1.7546,1.7465,1.731,1.731,0.0,0.0,0.0,0.0,0.0,0.0,0.0,0.0,0.0,1.3817,1.3574,0.0,1.2889,0.0,1.202,1.1643,1.1843,1.1437,0.0,0.0,1.0926,1.0756,1.066,1.0343,0.9924,0.9379,0.9205,0.8986,0.8321,0.8002,0.7738,0.74,0.695,0.6608,0.6605,0.6075,0.5638,0.5542,0.5277,0.5024,0.484,0.4849,0.4671,0.4412,0.4412,0.4326,0.4148,0.4058,0.4058,0.4142,0.4094,0.4151,0.4336,0.4193,0.4083,0.4222,0.4318,0.4378,0.4627,0.4871,0.512,1.9548,1.939,1.932,1.874,1.7932,1.7525,1.7055,1.6531,1.6141,1.5843,1.5536,1.4995,1.4684,1.445,1.4387,1.4308,1.4308,1.4308,1.4387,1.4465,1.4465,1.4543,1.4613,1.4761,1.5095,1.5464,1.5469,1.5515,1.5674,1.5992,1.6333,1.6597,1.6774,1.7006,1.7166,1.7166,1.7435,1.8031,1.8201,1.8371,1.8531,1.8523,1.8442,1.8193,1.8023,1.7942,1.7861,1.7627,1.7554,1.7635,1.77,1.7619,1.7546,1.7473,1.731,0.0,0.0,0.0,0.0,0.0,0.0,0.0,0.0,0.0,0.0,0.0,1.3022,1.2688,1.2153,1.1798,1.1946,1.1607,1.1267,1.1267,1.1003,1.0733,1.0549,1.0289,0.9951,0.9345,0.9349,0.8999,0.8288,0.8025,0.7768,0.7507,0.7146,0.6881,0.6792,0.6346,0.5985,0.5899,0.5633,0.5369,0.5191,0.5191,0.5102,0.4926,0.4837,0.4746,0.4654,0.4654,0.4565,0.4652,0.4612,0.4594,0.4734,0.4579,0.4539,0.4601,0.4658,0.4642,0.4722,0.4787,0.504,1.9794,1.9645,1.9645,1.9399,1.9054,1.8241,1.7588,1.703,1.6673,1.6211,1.5817,1.5272,1.496,1.4881,1.4661,1.4596,1.4589,1.4589,1.4589,1.4589,1.4589,1.4833,1.5255,1.5348,1.5675,1.6228,1.6366,1.6402,1.6484,1.6894,1.7057,1.7139,1.731,1.7635,1.7959,1.804,1.8112,1.8112,1.8523,1.8772,1.8772,1.87,1.8612,1.8442,1.8442,1.8282,1.8031,1.787,1.7789,1.7959,1.787,1.77,1.77,1.7546,1.731,0.0,1.6492,0.0,0.0,0.0,0.0,0.0,0.0,0.0,0.0,1.3815,1.3215,1.2705,1.2289,1.1957,1.1957,1.1613,1.1267,1.1267,1.0911,1.0636,1.0453,1.0202,0.9777,0.9345,0.9349,0.8995,0.838,0.8028,0.7856,0.768,0.7323,0.7146,0.6884,0.6612,0.6346,0.6174,0.6171,0.5905,0.5549,0.546,0.5371,0.5102,0.501,0.501,0.501,0.501,0.501,0.501,0.5006,0.501,0.502,0.5013,0.5006,0.501,0.4999,0.4941,0.4889,0.4845,0.4912,1.9863,1.9863,1.9645,1.9566,1.9478,1.9,1.8364,1.7817,1.7746,1.7257,1.654,1.6157,1.5822,1.5554,1.5323,1.5248,1.5248,1.5248,1.5248,1.5248,1.5248,1.5412,1.5561,1.5614,1.5823,1.6101,1.6139,1.6327,1.6648,1.673,1.6976,1.7318,1.7546,1.7781,1.804,0.0,0.0,0.0,1.9073,1.9082,1.8922,1.8922,1.8843,1.8612,1.8531,0.0,1.8362,1.8121,1.7959,1.8031,1.7959,0.0,0.0,0.0,0.0,0.0,0.0,0.0,0.0,0.0,0.0,0.0,1.4734,1.458,1.4166,1.3639,1.3124,1.2705,1.2289,1.1957,1.1957,1.1613,1.1267,1.1267,1.0911,1.0727,1.0641,1.0299,0.9777,0.9349,0.9349,0.9087,0.8652,0.8296,0.8113,0.8025,0.768,0.7415,0.7326,0.6969,0.6707,0.6618,0.6352,0.5994,0.5644,0.5644,0.5552,0.5371,0.5371,0.528,0.5099,0.501,0.501,0.501,0.501,0.5099,0.5285,0.5191,0.5099,0.5282,0.5191,0.5087,0.5227,0.5308,0.5308,2.0809,0.0,2.0548,2.0476,0.0,2.0079,1.9661,1.9232,1.8365,1.7554,1.6894,1.6598,1.626,1.5914,1.5665,1.5506,1.5431,1.5431,1.5431,1.5431,1.5431,1.559,1.5914,1.5914,1.6079,1.6409,1.6492,1.6738,1.6894,1.7139,1.7302,1.7546,1.7708,1.8031,1.8371,1.8754,1.9082,1.9152,1.9231,1.9231,1.9152,1.9152,1.9073,1.8851,0.0,0.0,0.0,0.0,0.0,0.0,0.0,0.0,0.0,0.0,0.0,1.7392,1.6656,1.6162,1.6087,1.568,1.5173,1.4741,1.4489,1.4243,1.3828,1.3385,1.3039,1.2705,1.2289,1.1957,1.1957,1.1607,1.1262,1.1089,1.0819,1.0641,1.0376,1.012,0.9864,0.9519,0.9345,0.9174,0.8828,0.838,0.8201,0.8201,0.794,0.768,0.7503,0.7149,0.6969,0.6792,0.6352,0.6083,0.5913,0.5735,0.5644,0.5552,0.5552,0.5463,0.5371,0.5371,0.5371,0.5371,0.5371,0.5371,0.5463,0.5463,0.5371,0.5463,0.5463,0.5371,0.5552,0.5463,0.5463,2.1783,2.1598,2.1505,2.1412,2.1265,2.1015,2.0782,2.0493,0.0,0.0,0.0,1.6836,1.6507,1.6162,1.5824,1.5575,1.5423,1.5423,1.5431,1.5431,1.5431,1.5673,1.6095,1.6095,1.6327,1.6738,1.6976,1.7131,1.7139,1.7538,1.77,1.7781,1.7951,1.829,1.87,1.9073,1.9292,1.9292,1.9292,1.9292,1.9292,1.9292,1.9222,1.9073,1.8843,1.8692,1.8523,1.8282,1.8201,1.8442,1.8201,1.8201,1.8353,1.7942,1.7619,1.7392,1.6804,1.6319,1.6095,1.568,1.5249,1.4734,1.4328,1.3919,1.3398,1.33,1.3039,1.2705,1.2289,1.2043,1.1957,1.1613,1.1262,1.1003,1.0819,1.0549,1.0193,1.0028,0.9864,0.9602,0.9437,0.9174,0.8911,0.8556,0.8292,0.8292,0.8116,0.7856,0.7503,0.7234,0.7054,0.6789,0.6526,0.6263,0.618,0.5913,0.5822,0.5822,0.5733,0.5733,0.5733,0.5733,0.5733,0.5644,0.5733,0.5644,0.5733,0.5644,0.5733,0.5733,0.5733,0.5733,0.5733,0.5555,0.5552,2.1894,2.1792,2.1598,2.1495,2.1422,2.1265,2.0941,2.0493,1.8797,1.7788,1.7318,1.6902,1.6574,1.6312,1.5899,1.565,1.5658,1.5506,1.5431,0.0,1.5431,1.568,1.6095,1.6095,1.6327,1.6738,1.6976,1.7221,1.7392,1.7627,1.7781,1.7951,1.7959,1.8201,1.8692,1.9073,1.9292,1.9292,1.9292,1.9292,1.9292,1.9292,1.9301,1.9231,1.9073,1.8922,1.8922,1.8692,1.8612,1.862,1.8612,1.8531,1.8442,1.8112,1.7797,1.7392,1.6902,1.6492,1.6079,1.5831,1.5401,1.4734,1.4328,1.3913,1.3483,1.33,1.3039,1.2705,1.2454,1.2203,1.2037,1.1785,1.1527,1.1267,1.0911,1.0641,1.0554,1.0212,0.9864,0.9602,0.9432,0.9174,0.8999,0.8652,0.8564,0.8476,0.8292,0.8028,0.7591,0.7234,0.7051,0.6871,0.6789,0.6615,0.6438,0.6171,0.6086,0.6086,0.5819,0.5733,0.5733,0.5733,0.5733,0.5733,0.5733,0.5733,0.5733,0.5733,0.5733,0.5733,0.5733,0.5733,0.5733,0.5644,0.5644,2.2918,2.2739,2.2644,2.2464,2.2368,2.2026,2.1483,2.0851,2.026,1.9364,1.833,1.7624,1.7175,1.6841,1.6507,1.6156,1.5914,1.5658,1.5665,1.5756,1.559,1.5824,1.6245,1.6237,1.6402,1.6738,1.7066,1.731,1.7392,1.7708,1.7951,1.8031,1.8282,1.8451,1.87,1.9073,1.9292,1.9292,1.9292,1.9292,1.9292,1.9292,1.9292,1.9292,1.9073,1.9002,1.9002,1.8772,1.8772,1.8851,1.8772,1.87,1.8531,1.8362,1.7959,1.7473,1.7066,1.6656,1.617,1.5492,1.5068,1.4741,1.4328,1.3913,1.3398,1.3392,1.313,1.2705,1.2534,1.2289,1.2043,1.1785,1.1532,1.1176,1.0911,1.0641,1.0467,1.0207,0.9951,0.9864,0.9602,0.9345,0.9174,0.8999,0.8915,0.874,0.8552,0.8201,0.7768,0.7499,0.7231,0.6962,0.6877,0.6792,0.6612,0.6432,0.6257,0.6257,0.6169,0.6083,0.5997,0.5908,0.5822,0.5733,0.5733,0.5733,0.5733,0.5733,0.5733,0.5733,0.5733,0.5733,0.5733,0.5733,0.5733,2.3667,2.358,2.359,2.3416,2.3135,2.2706,2.2164,2.164,2.1636,2.1007,1.9783,1.8816,1.8059,1.7552,1.7281,1.6884,1.6499,1.6126,1.6095,1.6209,1.602,1.6065,1.6394,1.6386,1.6566,1.6812,1.7229,1.7392,1.7473,1.787,1.8031,1.8121,1.8531,1.8692,1.8772,1.9152,1.9292,1.9292,1.9292,1.9292,1.9292,1.9292,1.9292,1.9292,1.9143,1.9082,1.9073,1.8931,1.8931,1.9073,1.8922,1.8772,1.8692,1.8531,1.8121,1.7473,1.7221,1.682,1.617,1.5325,1.4741,1.4734,1.4412,1.399,1.3568,1.3392,1.3215,1.2796,1.2534,1.2369,1.2037,1.1871,1.1613,1.11,1.0824,1.0646,1.0376,1.0125,1.0038,0.9951,0.9772,0.9519,0.9437,0.9349,0.9174,0.8911,0.8727,0.8464,0.794,0.768,0.7415,0.7146,0.6969,0.6881,0.6881,0.67,0.6523,0.652,0.6428,0.6343,0.6169,0.6171,0.5997,0.5822,0.5733,0.5733,0.5733,0.5733,0.5733,0.5733,0.5733,0.5733,0.5733,0.5733,0.5733,2.3754,2.3754,2.3754,2.3667,2.3416,2.2979,2.2687,2.2561,2.1952,2.1676,2.1264,2.0479,1.9445,1.844,1.7897,1.7683,1.7557,1.7147,1.6812,1.6568,1.6553,1.6461,1.6448,1.6409,1.664,1.7082,1.7343,1.7539,1.7767,1.7895,1.8121,1.8353,1.8612,1.8772,1.9002,1.9143,1.9292,1.9292,1.9292,1.9292,1.9292,1.9292,1.9292,1.9292,1.9301,1.9301,1.9222,1.9222,1.9222,1.9301,1.9222,1.9073,1.878,1.87,1.829,1.7473,1.74,1.6984,1.6177,1.5416,1.4915,1.4741,1.4482,1.4153,1.3737,1.3483,1.3222,1.279,1.2699,1.2454,1.2043,1.1957,1.178,1.1354,1.0911,1.0733,1.0641,1.0299,1.0038,1.0038,0.9777,0.9602,0.9515,0.9432,0.9262,0.9003,0.8815,0.8552,0.8028,0.7768,0.7415,0.7231,0.7054,0.7054,0.7051,0.6881,0.6789,0.6789,0.6609,0.6432,0.6343,0.6257,0.6086,0.5997,0.5822,0.5733,0.5733,0.5733,0.5733,0.5733,0.5733,0.5733,0.5733,0.5733,0.5733,2.41,2.4024,2.4024,2.3851,2.3503,2.3144,2.2882,2.2715,2.247,2.2115,2.1713,2.1271,2.0465,1.9233,1.8875,1.8592,1.8213,1.7858,1.7699,1.7658,1.7564,1.7571,1.7613,1.7596,1.7766,1.7943,1.812,1.8288,1.833,1.8485,1.862,1.8676,1.8807,1.8931,1.9002,1.9222,1.9292,1.9292,1.9292,1.9292,1.9292,1.9292,1.9292,1.9292,1.9292,1.9292,1.9292,1.9292,1.9292,1.9292,1.9292,1.9152,1.87,1.8709,1.829,1.7481,1.691,1.65,1.6087,1.5506,1.4999,1.4734,1.4482,1.423,1.373,1.3476,1.3228,1.2966,1.279,1.254,1.2289,1.2123,1.1871,1.1521,1.1176,1.0824,1.0733,1.0386,1.012,1.0038,0.9864,0.9772,0.9593,0.951,0.9432,0.9262,0.9082,0.8819,0.8388,0.7944,0.768,0.7411,0.7231,0.7139,0.7051,0.7054,0.6966,0.6966,0.6874,0.6786,0.6612,0.6432,0.6257,0.6086,0.5911,0.5735,0.5733,0.5733,0.5733,0.5733,0.5733,0.5733,0.5733,0.5733,0.5733,2.464,2.4456,2.4268,2.4024,2.3677,2.3406,2.3144,2.2969,2.2823,2.2479,2.2008,2.1919,2.1309,2.035,1.9881,1.9373,1.8962,1.8682,1.8625,1.863,1.8439,1.8477,1.849,1.8473,1.8559,1.8559,1.8732,1.8826,1.8965,1.8989,1.9042,1.9068,1.9138,1.9101,1.9091,1.9222,1.9301,1.9381,1.9478,1.9478,1.946,1.946,1.9381,1.9292,1.9292,1.9292,1.9292,1.9292,1.9292,1.9292,1.9292,1.9152,1.87,1.8709,1.829,1.7473,1.6656,1.617,1.6087,1.559,1.5166,1.4824,1.465,1.4314,1.3899,1.3561,1.3307,1.3228,1.2881,1.2619,1.2448,1.2203,1.1957,1.1699,1.1267,1.0916,1.0824,1.0467,1.0202,1.012,1.0038,0.9946,0.9763,0.968,0.9694,0.9524,0.9349,0.917,0.8648,0.8204,0.7768,0.7507,0.7234,0.7139,0.7139,0.7139,0.7139,0.7139,0.7051,0.6966,0.6792,0.6609,0.6343,0.6083,0.5911,0.5735,0.5733,0.5733,0.5644,0.5733,0.5644,0.5644,0.5555,0.5644,0.5555,2.5202,2.5052,2.4487,2.4247,2.413,2.3871,2.3677,2.3416,2.3144,2.2969,2.2715,2.2283,2.1919,2.1498,2.0683,2.0249,2.0124,1.9745,1.9389,1.9107,1.9001,1.8811,1.849,1.8473,1.8671,1.8927,1.9022,1.9161,1.9462,1.9486,1.9539,1.9533,1.9552,1.9435,1.9304,1.932,1.939,1.9557,1.9762,1.9831,1.9863,1.9863,1.9696,1.9371,1.9292,1.9292,1.9292,1.9292,1.9292,1.9292,1.9292,1.9152,1.878,1.87,1.829,1.7473,1.673,1.6319,1.6087,1.5824,1.5492,1.5082,1.4817,1.4566,1.4314,1.3815,1.3476,1.3398,1.3045,1.2705,1.2448,1.2203,1.1957,1.1699,1.1267,1.1008,1.0921,1.0467,1.0197,1.0207,1.0125,0.9946,0.9946,0.9946,0.9864,0.9607,0.9437,0.917,0.8727,0.8204,0.7856,0.7591,0.7323,0.7139,0.7139,0.7139,0.7139,0.7139,0.7054,0.7054,0.6789,0.6612,0.6346,0.6083,0.5911,0.5735,0.5733,0.5644,0.5644,0.5644,0.5555,0.5552,0.5371,0.5371,0.5371,2.6125,2.6104,2.5659,2.5244,2.48,2.4625,2.42,2.3687,2.3503,2.3232,2.2969,2.2539,2.2185,2.1919,2.1293,2.0925,2.0744,2.0473,2.0223,2.0095,1.9906,1.9838,1.9898,1.9881,1.997,2.0138,2.0227,2.0315,2.0448,2.0341,2.0327,2.0274,1.9998,1.9752,1.9677,1.9421,1.9362,1.9645,2.0115,2.0194,1.9951,1.9872,1.9863,1.9706,1.9696,1.9696,1.9696,1.9557,1.9469,1.9478,1.939,1.9152,1.8922,1.8451,1.7968,1.7473,1.6902,1.6402,1.6079,1.5824,1.5492,1.5166,1.4824,1.465,1.4398,1.3899,1.3561,1.3561,1.3307,1.3052,1.2796,1.2454,1.2203,1.1866,1.1607,1.1267,1.1003,1.0738,1.0564,1.0391,1.013,1.0038,1.0038,1.0038,0.9956,0.9878,0.9524,0.9174,0.8819,0.8296,0.7856,0.7768,0.7408,0.7139,0.7139,0.7139,0.7139,0.7139,0.7051,0.6966,0.6789,0.6523,0.6346,0.6083,0.5822,0.5644,0.5555,0.5377,0.5374,0.5282,0.5282,0.5282,0.5191,0.5191,0.5102,2.6774,2.6647,2.6547,2.6178,2.5717,2.544,2.4917,2.4247,2.4062,2.372,2.3251,2.2794,2.2441,2.2185,2.1839,2.1472,2.1186,2.0916,2.0817,2.0736,2.0645,2.0645,2.0736,2.0826,2.0817,2.0988,2.0997,2.1006,2.1159,2.1015,2.0992,2.0985,2.0438,2.0117,2.0042,1.9645,1.952,1.9891,2.0351,2.042,2.0186,2.0177,2.0098,2.0098,2.0098,2.002,1.9942,1.9784,1.9636,1.9566,1.9469,1.924,1.8922,1.8362,1.7797,1.7392,1.7057,1.6574,1.617,1.5906,1.5658,1.5257,1.4908,1.465,1.4475,1.3984,1.373,1.3652,1.3568,1.3313,1.3137,1.2796,1.246,1.2037,1.178,1.1435,1.1089,1.1003,1.0743,1.0391,1.013,1.0038,1.0038,1.0038,0.9956,0.997,0.9616,0.9262,0.8999,0.8472,0.7948,0.7856,0.7408,0.7139,0.7139,0.7139,0.7139,0.7139,0.6966,0.6877,0.67,0.652,0.6257,0.5994,0.5819,0.5552,0.5285,0.5107,0.5015,0.501,0.501,0.5099,0.501,0.4921,0.4832,2.7142,2.6843,2.6758,2.67,2.6636,2.6357,2.5905,2.5244,2.4927,2.4341,2.3612,2.3242,2.2794,2.2441,2.2097,2.1919,2.1642,2.1186,2.1006,2.0997,2.0997,2.0997,2.1006,2.0997,2.1087,2.1087,2.1087,2.1186,2.1463,2.1418,2.1502,2.1386,2.1034,2.0697,2.0595,2.001,1.9913,2.0196,2.0469,2.0547,2.0576,2.0576,2.0566,2.0566,2.0566,2.0333,1.9942,1.9942,1.9784,1.9645,1.9557,1.9329,1.878,1.8282,1.7789,1.7473,1.7221,1.673,1.617,1.6087,1.5839,1.5431,1.4992,1.4734,1.4566,1.4153,1.373,1.3737,1.3568,1.3398,1.3222,1.3058,1.2717,1.2123,1.1682,1.1424,1.1257,1.1089,1.0738,1.0386,1.0125,1.0038,1.0038,1.0038,1.0038,0.9951,0.9607,0.9262,0.9174,0.856,0.8124,0.7856,0.7496,0.7139,0.7139,0.7139,0.7139,0.7051,0.6877,0.6792,0.6523,0.6343,0.6083,0.5819,0.5549,0.5282,0.5104,0.4926,0.4835,0.4832,0.4921,0.4832,0.4743,0.4656,0.4567,2.844,2.832,2.7963,2.7667,2.7388,2.7083,2.6626,2.5926,2.5347,2.4768,2.4175,2.3447,2.2882,2.2441,2.2185,2.1919,2.1741,2.1544,2.1374,2.1284,2.1087,2.1105,2.1203,2.1293,2.1463,2.1731,2.1731,2.1909,2.2008,2.2087,2.2092,2.1964,2.1429,2.1051,2.0945,2.0381,2.0167,2.0264,2.0508,2.0586,2.0576,2.0576,2.0576,2.0576,2.0576,2.0489,2.0411,2.0255,2.0029,1.9784,1.9636,1.9329,1.878,1.8282,1.7797,1.7465,1.7221,1.682,1.6252,1.6095,1.5929,1.5431,1.5082,1.4908,1.4734,1.4398,1.4159,1.3997,1.3913,1.3737,1.3379,1.33,1.2887,1.2129,1.186,1.1602,1.1348,1.0987,1.0722,1.0554,1.0212,1.0038,1.0033,1.0033,0.9951,0.9951,0.9602,0.9257,0.917,0.856,0.8036,0.7856,0.7496,0.7139,0.7139,0.7139,0.7054,0.6966,0.6877,0.67,0.6432,0.6169,0.5908,0.5641,0.5371,0.5102,0.4835,0.4746,0.4654,0.4565,0.4565,0.4476,0.4478,0.4389,0.4389,2.922,2.9035,2.8757,2.8408,2.8137,2.7839,2.7285,2.6658,2.5915,2.519,2.4444,2.3682,2.3057,2.2618,2.2362,2.2097,2.183,2.1741,2.1651,2.1472,2.1374,2.1374,2.1482,2.166,2.1839,2.2097,2.2185,2.2274,2.2441,2.2441,2.2432,2.2387,2.1693,2.1358,2.1365,2.0777,2.0411,2.042,2.0566,2.0576,2.0576,2.0576,2.0576,2.0576,2.0576,2.0576,2.0576,2.0498,2.0255,1.9942,1.9557,1.9161,1.8692,1.8282,1.7789,1.7473,1.7147,1.6812,1.6252,1.6095,1.5922,1.5506,1.5173,1.4999,1.4741,1.4482,1.4314,1.4166,1.4088,1.3906,1.3464,1.3385,1.2966,1.2289,1.2037,1.1785,1.1348,1.0895,1.0717,1.0636,1.0294,1.0033,1.0033,0.9864,0.9864,0.9777,0.9432,0.9174,0.8999,0.8564,0.8212,0.7856,0.7408,0.7228,0.7139,0.7054,0.7054,0.6877,0.67,0.6609,0.6428,0.608,0.5822,0.5371,0.5102,0.4835,0.4567,0.4478,0.4387,0.4297,0.4297,0.43,0.4389,0.4389,0.43,2.9405,2.9128,2.9128,2.8932,2.8724,2.8538,2.8,2.7296,2.6605,2.5637,2.4624,2.3974,2.3406,2.2794,2.2441,2.2274,2.2097,2.182,2.1731,2.1651,2.1642,2.1651,2.1741,2.1919,2.2097,2.2185,2.2362,2.2441,2.252,2.252,2.253,2.2707,2.1986,2.1627,2.1627,2.1006,2.0566,2.0566,2.0566,2.0576,2.0576,2.0576,2.0576,2.0576,2.0576,2.0576,2.0566,2.0489,2.0333,1.9942,1.932,1.8922,1.8612,1.8201,1.7797,1.7392,1.7229,1.6738,1.6252,1.6095,1.5922,1.5431,1.5257,1.4999,1.4741,1.4566,1.4314,1.4166,1.4088,1.3913,1.3483,1.3398,1.3052,1.2454,1.2118,1.1785,1.1354,1.0895,1.0717,1.0641,1.0294,1.0038,0.9951,0.9781,0.9689,0.9515,0.917,0.8999,0.8823,0.8472,0.8124,0.7768,0.7408,0.7228,0.7139,0.6966,0.6969,0.6881,0.6615,0.6435,0.6254,0.5905,0.5641,0.5193,0.4835,0.4656,0.4478,0.4389,0.4297,0.4297,0.4297,0.4297,0.4297,0.4297,0.4293,2.9794,2.9691,2.9231,2.9035,2.9035,2.8757,2.8402,2.77,2.6955,2.6014,2.5027,2.4173,2.3406,2.2803,2.253,2.2264,2.2097,2.183,2.1731,2.1731,2.1731,2.183,2.2008,2.2097,2.2274,2.2539,2.2618,2.2794,2.2882,2.2872,2.2969,2.3018,2.223,2.1802,2.1748,2.1006,2.0605,2.0576,2.0576,2.0576,2.0576,2.0576,2.0576,2.0576,2.0576,2.0576,2.0566,2.0255,2.0117,2.0068,1.9268,1.8692,1.8505,1.7951,1.7554,1.7392,1.6976,1.6656,1.6252,1.6087,1.5839,1.5514,1.5347,1.5166,1.4734,1.465,1.4489,1.4166,1.4088,1.3919,1.3502,1.3404,1.2966,1.2295,1.1952,1.1699,1.1348,1.0987,1.0712,1.0636,1.0294,0.9951,0.9777,0.9602,0.9515,0.934,0.9082,0.8819,0.8556,0.8296,0.7948,0.7591,0.7323,0.7231,0.7054,0.6969,0.6884,0.6795,0.6526,0.6171,0.5994,0.5727,0.546,0.5099,0.4835,0.4569,0.4389,0.4297,0.4297,0.4297,0.4297,0.4297,0.4297,0.4297,0.4289,3.0068,2.9886,2.9405,2.922,2.9035,2.8839,2.8477,2.791,2.7062,2.6107,2.5169,2.4243,2.3493,2.2969,2.253,2.2362,2.2185,2.182,2.1731,2.1741,2.183,2.1919,2.2097,2.2185,2.2441,2.2794,2.2882,2.2969,2.3057,2.3144,2.3144,2.2988,2.2295,2.1904,2.1826,2.1035,2.0576,2.0576,2.0576,2.0576,2.0576,2.0576,2.0576,2.0576,2.0566,2.0566,2.0411,2.0108,1.996,1.9831,1.9188,1.8612,1.8425,1.7789,1.7392,1.7392,1.6894,1.6409,1.617,1.6004,1.5748,1.5506,1.534,1.509,1.4741,1.465,1.4405,1.399,1.4004,1.3841,1.3326,1.3143,1.2717,1.2123,1.1785,1.1532,1.1181,1.089,1.0631,1.0463,1.0125,0.9781,0.9607,0.9428,0.9253,0.899,0.8727,0.8464,0.8288,0.8032,0.7771,0.7503,0.7146,0.6966,0.6877,0.6792,0.6526,0.6438,0.6263,0.5997,0.5727,0.5549,0.5282,0.4924,0.4746,0.448,0.4389,0.4297,0.4297,0.4297,0.4297,0.4295,0.4293,0.4267,0.4263,3.0318,2.9886,2.9588,2.9405,2.9128,2.8943,2.8412,2.7846,2.7019,2.6145,2.5087,2.4203,2.359,2.3144,2.2618,2.2441,2.2353,2.1909,2.1731,2.1741,2.1919,2.2087,2.2176,2.2353,2.2618,2.2882,2.3057,2.3057,2.3144,2.3144,2.3144,2.2939,2.2305,2.1934,2.1719,2.1016,2.0615,2.0576,2.0576,2.0576,2.0576,2.0576,2.0576,2.0576,2.0576,2.0411,2.0264,1.9951,1.9794,1.9664,1.902,1.8603,1.8336,1.77,1.7392,1.7229,1.6812,1.6319,1.6087,1.5906,1.5658,1.5423,1.5257,1.4999,1.4734,1.4475,1.4223,1.3815,1.3932,1.3672,1.3234,1.2711,1.2289,1.1952,1.1785,1.144,1.1089,1.0809,1.0626,1.0289,0.9878,0.9616,0.9432,0.9165,0.8815,0.864,0.8376,0.8201,0.7937,0.7676,0.7503,0.7326,0.7058,0.6789,0.6612,0.6523,0.6349,0.6083,0.5908,0.5641,0.5458,0.5191,0.5015,0.4837,0.4569,0.4389,0.421,0.421,0.4208,0.4208,0.4119,0.4202,0.4279,0.4232,0.421,3.0397,3.0136,2.9669,2.9485,2.9393,2.8932,2.8239,2.7391,2.687,2.5968,2.4972,2.4159,2.3687,2.3319,2.2715,2.2441,2.2353,2.1909,2.1731,2.1741,2.2008,2.2167,2.2246,2.252,2.2794,2.2969,2.3057,2.3144,2.3144,2.3144,2.3144,2.3018,2.2353,2.1894,2.1758,2.1035,2.0576,2.0576,2.0576,2.0576,2.0576,2.0576,2.0566,2.0566,2.042,2.0264,1.9942,1.9627,1.9408,1.9268,1.8949,1.8345,1.7811,1.7521,1.7302,1.7057,1.673,1.6319,1.6087,1.5824,1.5658,1.5423,1.5173,1.5006,1.4727,1.4384,1.4048,1.373,1.3587,1.3411,1.3058,1.246,1.2123,1.1871,1.1527,1.1094,1.0824,1.0722,1.0549,1.0299,0.9873,0.9533,0.9345,0.8903,0.864,0.8376,0.8113,0.7852,0.7588,0.7323,0.7146,0.7058,0.6792,0.6523,0.6435,0.6257,0.6083,0.5905,0.5641,0.5374,0.5193,0.5013,0.4926,0.4748,0.4567,0.43,0.403,0.3941,0.3941,0.403,0.4022,0.4082,0.4138,0.4185,0.4128,3.0589,3.0125,2.9658,2.9362,2.9081,2.8499,2.778,2.6945,2.6409,2.5727,2.4917,2.4119,2.3677,2.3406,2.2891,2.2539,2.2264,2.1909,2.1731,2.182,2.2087,2.2255,2.2422,2.2696,2.2969,2.3144,2.3144,2.3144,2.3144,2.3144,2.3144,2.3066,2.2295,2.1924,2.1758,2.1016,2.0615,2.0576,2.0576,2.0576,2.0576,2.0576,2.0576,2.0489,2.0333,2.0098,1.9618,1.946,1.925,1.8958,1.862,1.8086,1.7552,1.7342,1.7221,1.6894,1.6484,1.6154,1.5914,1.5665,1.5499,1.5257,1.5082,1.4748,1.4489,1.4132,1.3795,1.3476,1.3319,1.3149,1.279,1.2375,1.1952,1.1602,1.1262,1.0911,1.0554,1.0463,1.0376,1.0033,0.9694,0.9345,0.899,0.8636,0.8288,0.794,0.7669,0.7408,0.7143,0.6966,0.6789,0.6612,0.6435,0.6257,0.6169,0.6083,0.5816,0.5638,0.5549,0.5193,0.4926,0.4835,0.4746,0.4567,0.4302,0.403,0.3851,0.376,0.3753,0.384,0.3909,0.4041,0.407,0.4091,0.4034,3.0703,3.0114,2.959,2.9149,2.8622,2.796,2.7205,2.6477,2.583,2.5378,2.4794,2.4089,2.3667,2.3493,2.2979,2.2618,2.2264,2.1909,2.1741,2.183,2.2176,2.2334,2.2511,2.2775,2.3057,2.3144,2.3144,2.3144,2.3144,2.3125,2.3076,2.292,2.2285,2.1846,2.1602,2.1035,2.0576,2.0576,2.0576,2.0576,2.0566,2.0576,2.042,2.0264,2.0098,1.9863,1.946,1.9143,1.8931,1.8647,1.8218,1.7755,1.7326,1.7261,1.7139,1.6648,1.6237,1.5906,1.5658,1.5499,1.5257,1.5082,1.4741,1.4496,1.4166,1.3815,1.3464,1.313,1.2973,1.2717,1.2277,1.2026,1.1682,1.1332,1.1084,1.0738,1.0381,1.0193,1.0028,0.9685,0.9437,0.9091,0.8732,0.8372,0.794,0.7591,0.7231,0.6962,0.6789,0.6612,0.6435,0.6346,0.6171,0.5994,0.5905,0.5813,0.5549,0.5359,0.5272,0.4989,0.4721,0.4524,0.4431,0.4295,0.4034,0.3848,0.3563,0.3457,0.3542,0.3728,0.3758,0.3761,0.3872,0.3908,0.3944,3.0612,2.9943,2.9161,2.8746,2.8331,2.7521,2.6721,2.6072,2.5651,2.5169,2.4502,2.4054,2.3754,2.358,2.3057,2.2539,2.2264,2.1919,2.182,2.2008,2.2264,2.2422,2.2492,2.2775,2.3047,2.3144,2.3047,2.3047,2.3135,2.3125,2.2978,2.2607,2.2139,2.1758,2.1338,2.084,2.0576,2.0576,2.0576,2.0576,2.0576,2.042,2.0186,1.9942,1.9696,1.946,1.9222,1.8834,1.8442,1.8129,1.787,1.7269,1.6756,1.6706,1.664,1.6402,1.5982,1.565,1.5484,1.5242,1.4992,1.4741,1.4412,1.4348,1.4193,1.3665,1.3137,1.2796,1.246,1.2209,1.2037,1.1682,1.1419,1.1154,1.0814,1.0386,1.0038,0.9864,0.9685,0.9428,0.9178,0.8836,0.8472,0.8113,0.7764,0.7415,0.7058,0.6877,0.6704,0.6438,0.6171,0.6086,0.5911,0.573,0.5549,0.546,0.5369,0.5078,0.4972,0.4754,0.448,0.4195,0.4029,0.3873,0.3728,0.3563,0.3366,0.3167,0.3203,0.3348,0.3456,0.3474,0.3704,0.3846,0.3875,3.0206,2.9455,2.8678,2.8043,2.7448,2.6691,2.6064,2.5411,2.512,2.4747,2.4333,2.4013,2.3754,2.358,2.3232,2.2794,2.2441,2.2176,2.2087,2.2185,2.2264,2.2362,2.2422,2.2706,2.2696,2.2696,2.2696,2.2872,2.3047,2.3144,2.2804,2.251,2.209,2.167,2.123,2.0801,2.0605,2.0566,2.0566,2.0566,2.042,2.0186,1.9951,1.9618,1.9381,1.9063,1.8585,1.8434,1.804,1.7725,1.7383,1.687,1.6445,1.6116,1.6064,1.5982,1.5733,1.5484,1.5235,1.4992,1.4748,1.4419,1.4173,1.401,1.3756,1.3234,1.2711,1.2375,1.2203,1.1866,1.1682,1.1419,1.1154,1.0809,1.0381,1.0033,0.9777,0.9432,0.9257,0.9165,0.8823,0.8564,0.8208,0.7852,0.7503,0.7149,0.6881,0.6615,0.6529,0.6263,0.5997,0.5819,0.573,0.5447,0.5265,0.5166,0.5049,0.4851,0.4655,0.4441,0.4224,0.3937,0.3598,0.3442,0.3303,0.3311,0.309,0.2896,0.2904,0.2985,0.3099,0.3224,0.3476,0.3702,0.3738,2.9676,2.8844,2.8172,2.7367,2.653,2.5969,2.539,2.4828,2.456,2.4303,2.411,2.3851,2.3667,2.3406,2.3144,2.2784,2.2706,2.2353,2.2176,2.2185,2.2274,2.2372,2.2381,2.2381,2.2432,2.2422,2.2432,2.2608,2.2872,2.2872,2.2669,2.2223,2.1826,2.1428,2.0934,2.0487,2.0518,2.0489,2.0411,2.0333,2.0098,1.9863,1.9627,1.9143,1.9063,1.8674,1.8201,1.7959,1.7716,1.74,1.6984,1.655,1.6116,1.5628,1.5477,1.5484,1.5318,1.5159,1.4915,1.4748,1.4412,1.3997,1.3828,1.358,1.3241,1.2808,1.2283,1.1952,1.178,1.1607,1.1338,1.1073,1.0814,1.0376,1.0033,0.9689,0.9336,0.9078,0.8819,0.8644,0.8476,0.8212,0.7856,0.7588,0.7323,0.6972,0.6615,0.6438,0.626,0.6,0.5733,0.5641,0.5455,0.5169,0.4975,0.4863,0.4724,0.4491,0.4387,0.4189,0.397,0.3673,0.3345,0.309,0.2988,0.292,0.2736,0.2683,0.2758,0.2837,0.2855,0.2994,0.318,0.3421,0.363,2.9369,2.8139,2.7581,2.7004,2.6282,2.5562,2.5019,2.455,2.4282,2.411,2.3841,2.3667,2.3503,2.3319,2.2794,2.253,2.2353,2.2087,2.2008,2.2097,2.2185,2.2176,2.2246,2.2344,2.2246,2.2236,2.2255,2.2441,2.2511,2.2501,2.2083,2.1587,2.1339,2.0895,2.0308,2.0165,2.002,2.0029,2.002,1.9775,1.9539,1.9381,1.9161,1.8763,1.8442,1.8112,1.7878,1.7554,1.7229,1.682,1.6738,1.6312,1.5636,1.547,1.5144,1.4985,1.4741,1.4664,1.4334,1.4166,1.3997,1.3483,1.3222,1.3155,1.282,1.2203,1.1677,1.178,1.144,1.1094,1.0911,1.0559,1.0212,0.9951,0.9602,0.9248,0.8899,0.8727,0.8376,0.8116,0.7944,0.7771,0.7507,0.7326,0.7058,0.6792,0.6441,0.626,0.5994,0.5819,0.5466,0.5374,0.5151,0.4951,0.4743,0.4637,0.4477,0.4149,0.4042,0.3936,0.3632,0.3421,0.3149,0.2898,0.2721,0.266,0.2651,0.2655,0.2669,0.2711,0.2755,0.2747,0.283,0.3139,0.3465,2.8665,2.7558,2.6897,2.6275,2.5658,2.503,2.4625,2.4282,2.411,2.3754,2.3396,2.3309,2.3144,2.2882,2.252,2.2441,2.2344,2.2176,2.2097,2.2097,2.2097,2.1998,2.19,2.1989,2.1989,2.198,2.1998,2.1998,2.2041,2.1973,2.175,2.1258,2.0936,2.0557,1.991,1.9872,1.9863,1.9863,1.9706,1.946,1.9301,1.9073,1.8763,1.8282,1.8112,1.7789,1.7383,1.7139,1.673,1.6237,1.6064,1.5741,1.5242,1.4908,1.4496,1.4412,1.4068,1.399,1.4082,1.3828,1.3483,1.3137,1.2796,1.2631,1.2392,1.1774,1.1246,1.1267,1.1094,1.0835,1.0482,1.0212,0.9864,0.9607,0.917,0.8903,0.8548,0.8288,0.8028,0.7764,0.7411,0.7238,0.7149,0.6969,0.6792,0.6438,0.6263,0.6083,0.5905,0.5641,0.5285,0.5015,0.4782,0.4637,0.4428,0.431,0.4219,0.3985,0.3792,0.3679,0.3378,0.3097,0.2929,0.2765,0.2609,0.2556,0.2591,0.2578,0.2546,0.2608,0.2589,0.2688,0.2789,0.2879,0.3205,2.7877,2.7077,2.6435,2.5779,2.5189,2.47,2.4368,2.4024,2.3754,2.3406,2.3154,2.2969,2.2687,2.2432,2.2344,2.2264,2.2353,2.2264,2.2176,2.2008,2.1919,2.1839,2.1642,2.1553,2.1553,2.1553,2.1544,2.1471,2.1359,2.1268,2.107,2.0996,2.0566,2.0226,1.9897,1.9706,1.9706,1.9557,1.9311,1.9073,1.8913,1.8683,1.8282,1.7959,1.7708,1.7383,1.6812,1.6484,1.6154,1.5733,1.5401,1.5159,1.4748,1.4328,1.399,1.3822,1.3483,1.3307,1.3392,1.3307,1.2966,1.2711,1.2454,1.2203,1.1607,1.1338,1.116,1.1003,1.0748,1.0477,1.0125,0.9864,0.9515,0.917,0.8732,0.8552,0.8285,0.7937,0.7584,0.7323,0.7058,0.6792,0.6704,0.6615,0.6438,0.6171,0.5997,0.5908,0.5628,0.5351,0.5082,0.4718,0.4535,0.4383,0.425,0.4036,0.3957,0.3832,0.3645,0.3454,0.3171,0.2917,0.2833,0.2669,0.2511,0.2522,0.2552,0.2533,0.252,0.2557,0.2586,0.2667,0.2759,0.285,0.2992,2.7254,2.6606,2.6302,2.5779,2.5115,2.4711,2.4272,2.3754,2.3319,2.3164,2.293,2.252,2.2325,2.2344,2.2176,2.2097,2.2097,2.183,2.1741,2.1651,2.1562,2.1472,2.1374,2.1275,2.1087,2.1078,2.1114,2.0926,2.0553,2.0282,2.034,2.0457,2.0008,1.9668,1.951,1.9301,1.9231,1.9082,1.8843,1.8523,1.8273,1.8031,1.7797,1.7392,1.7057,1.673,1.6648,1.6154,1.5658,1.5318,1.4992,1.4573,1.4243,1.3822,1.3483,1.3228,1.2966,1.2711,1.2619,1.2711,1.254,1.2209,1.1871,1.1699,1.1181,1.1003,1.0824,1.0651,1.0391,1.0043,0.9689,0.934,0.899,0.8732,0.838,0.8028,0.776,0.7496,0.7143,0.6881,0.6704,0.6526,0.6349,0.626,0.6263,0.5997,0.5811,0.5633,0.5313,0.5036,0.4775,0.448,0.4199,0.4038,0.3975,0.3844,0.3818,0.3628,0.3441,0.3257,0.2914,0.2747,0.2668,0.2595,0.2519,0.2514,0.2598,0.2545,0.2579,0.2553,0.2658,0.264,0.2714,0.2802,0.2922,2.6951,2.6373,2.5946,2.5527,2.5115,2.4358,2.3927,2.358,2.3144,2.2715,2.2479,2.2087,2.19,2.1909,2.1919,2.1741,2.1651,2.1562,2.1463,2.1275,2.1195,2.1186,2.1096,2.1096,2.0997,2.0935,2.0793,2.0713,2.0508,1.9674,1.9486,1.9466,1.9281,1.9147,1.8949,1.8913,1.8763,1.8594,1.8362,1.8121,1.787,1.7538,1.7302,1.6984,1.6574,1.6154,1.5899,1.5575,1.5082,1.4748,1.4419,1.4075,1.3652,1.3307,1.3045,1.2796,1.2454,1.2112,1.1849,1.2026,1.2032,1.1682,1.1343,1.1089,1.0824,1.0554,1.0381,1.0207,0.9951,0.9602,0.9074,0.8811,0.8552,0.8292,0.7933,0.7573,0.719,0.6906,0.6731,0.653,0.6401,0.6257,0.6083,0.5997,0.5908,0.5819,0.5633,0.5343,0.5012,0.4704,0.4439,0.4245,0.4061,0.394,0.3884,0.3751,0.3626,0.3443,0.3263,0.3104,0.2785,0.2671,0.2592,0.252,0.2459,0.247,0.2568,0.2594,0.2636,0.2608,0.2695,0.2673,0.2754,0.2749,0.2859,2.6693,2.6113,2.5611,2.5285,2.4871,2.4176,2.3667,2.3319,2.2882,2.2353,2.1919,2.1633,2.1454,2.1463,2.1463,2.1463,2.1284,2.1284,2.1186,2.1096,2.0997,2.0907,2.0907,2.0791,2.0567,2.0543,2.0333,2.0044,1.9566,1.9022,1.8688,1.849,1.8365,1.8334,1.846,1.8451,1.8362,1.8193,1.7861,1.7627,1.7383,1.7049,1.6722,1.6402,1.6072,1.5658,1.5318,1.4908,1.4496,1.4159,1.3822,1.3561,1.3137,1.2796,1.2448,1.2192,1.1935,1.1585,1.1327,1.1332,1.1424,1.116,1.0992,1.0733,1.0467,1.0202,1.0033,0.9777,0.9515,0.9074,0.854,0.8376,0.8055,0.7687,0.7396,0.7031,0.6704,0.6328,0.6257,0.6177,0.6037,0.5857,0.5796,0.5616,0.5571,0.5481,0.5292,0.507,0.473,0.444,0.4261,0.4063,0.401,0.391,0.3818,0.3718,0.362,0.3285,0.3105,0.3014,0.2757,0.2563,0.248,0.2431,0.2444,0.2439,0.2459,0.2493,0.2534,0.2749,0.2744,0.2738,0.2685,0.2758,0.2712,2.6479,2.5895,2.5369,2.4946,2.4454,2.4013,2.3493,2.3057,2.2618,2.1998,2.1463,2.115,2.106,2.1078,2.1177,2.1096,2.1006,2.1006,2.0997,2.0907,2.0736,2.0744,2.0512,2.0361,2.0009,1.9529,1.9309,1.8972,1.8254,1.8079,1.7788,1.754,1.7514,1.7635,1.7951,1.7781,1.7691,1.761,1.7294,1.7057,1.673,1.6476,1.6147,1.5824,1.5484,1.5075,1.4741,1.4328,1.3971,1.3574,1.3062,1.279,1.2499,1.2172,1.1753,1.1412,1.1343,1.1021,1.0702,1.0707,1.0687,1.0712,1.0641,1.0467,1.0125,0.9864,0.9657,0.9287,0.886,0.8599,0.8265,0.7986,0.7451,0.7052,0.685,0.657,0.6251,0.6054,0.599,0.5878,0.5628,0.5398,0.5357,0.5315,0.5292,0.5137,0.5041,0.4734,0.4415,0.4233,0.4157,0.4018,0.3904,0.3857,0.3781,0.3703,0.3528,0.3189,0.2932,0.2837,0.2662,0.2479,0.2403,0.2338,0.2257,0.2254,0.2275,0.2303,0.2406,0.2596,0.2816,0.2808,0.2744,0.2673,0.2621,2.5884,2.5211,2.4871,2.4272,2.3667,2.359,2.3319,2.2803,2.2213,2.167,2.1078,2.0738,2.0747,2.0881,2.0988,2.0907,2.0808,2.0826,2.0736,2.0529,2.0413,2.0103,1.9911,1.9694,1.9356,1.8854,1.8543,1.8283,1.7793,1.7406,1.7054,1.6746,1.6656,1.6902,1.7139,1.7139,1.6976,1.6886,1.664,1.6476,1.6072,1.5816,1.5567,1.5242,1.4824,1.4468,1.421,1.3691,1.3264,1.2893,1.2368,1.2052,1.1698,1.1261,1.0985,1.0632,1.0455,1.0035,0.9707,0.9554,0.9766,1.0076,1.0255,0.999,0.9772,0.9248,0.8931,0.8664,0.8291,0.7901,0.7547,0.7274,0.6877,0.6619,0.6434,0.6182,0.5904,0.582,0.5756,0.5675,0.5491,0.5435,0.5386,0.5188,0.5048,0.4819,0.4738,0.4526,0.4297,0.4199,0.4112,0.3944,0.391,0.3794,0.3657,0.351,0.3418,0.3063,0.2895,0.2726,0.255,0.2378,0.2199,0.2116,0.2129,0.2057,0.2132,0.2212,0.2321,0.2519,0.2708,0.2786,0.2715,0.2647,0.2594,2.5211,2.4519,2.4368,2.3754,2.296,2.3232,2.3067,2.2362,2.1768,2.1221,2.0898,2.0468,2.0486,2.0718,2.0727,2.0604,2.039,2.0373,2.003,1.9851,1.9809,1.9453,1.923,1.9067,1.8684,1.8214,1.7823,1.756,1.7048,1.6676,1.6417,1.6162,1.5914,1.5997,1.6327,1.6417,1.6417,1.6245,1.6072,1.5839,1.5492,1.5235,1.4985,1.4629,1.4162,1.3754,1.34,1.2989,1.2456,1.1987,1.1659,1.128,1.0827,1.0546,1.0298,0.9974,0.9653,0.926,0.8946,0.8786,0.909,0.9315,0.9473,0.9397,0.9141,0.867,0.8373,0.7974,0.7609,0.7293,0.6961,0.6681,0.641,0.6242,0.6046,0.58,0.5632,0.5547,0.5576,0.5504,0.5419,0.5399,0.5285,0.5022,0.4828,0.4592,0.4438,0.4208,0.407,0.4054,0.4048,0.3825,0.3707,0.3589,0.3466,0.3328,0.3138,0.3022,0.276,0.2591,0.2441,0.2267,0.2075,0.1972,0.1806,0.1803,0.1948,0.2113,0.221,0.238,0.2631,0.2613,0.2666,0.2634,0.2595,2.4573,2.381,2.3714,2.3144,2.2454,2.2562,2.2337,2.1578,2.1221,2.0836,2.0567,2.0193,2.0061,2.0172,2.0206,2.0009,1.9681,1.9638,1.938,1.902,1.9028,1.8721,1.8576,1.8432,1.7961,1.7504,1.7159,1.6758,1.6125,1.5929,1.5824,1.5567,1.5242,1.5249,1.5423,1.5695,1.5861,1.559,1.5409,1.5166,1.4908,1.4518,1.4232,1.3921,1.3457,1.3004,1.2593,1.2155,1.1612,1.1209,1.0783,1.0606,1.0267,0.9948,0.9624,0.9289,0.8864,0.8594,0.8252,0.8158,0.8175,0.8319,0.841,0.8332,0.8234,0.8113,0.784,0.7469,0.7188,0.6926,0.6647,0.6361,0.6081,0.5882,0.5675,0.5508,0.5345,0.5275,0.5303,0.5292,0.5296,0.5199,0.5001,0.4767,0.4526,0.4272,0.4009,0.3809,0.3685,0.377,0.3688,0.3633,0.3533,0.3389,0.3247,0.3068,0.2979,0.2762,0.2605,0.2353,0.2293,0.2117,0.191,0.1719,0.1557,0.155,0.1694,0.1844,0.2089,0.2254,0.2508,0.2586,0.2655,0.2657,0.2632,2.3601,2.2798,2.2269,2.1646,2.105,2.0526,2.0181,2.0199,2.0661,2.0497,1.9321,1.9104,1.9083,1.905,1.9042,1.8991,1.8933,1.8796,1.8754,1.8559,1.8435,1.8087,1.7819,1.7544,1.7083,1.6666,1.6217,1.6035,1.5604,1.5318,1.4985,1.4734,1.465,1.4489,1.4594,1.4895,1.4846,1.4713,1.4434,1.4266,1.4129,1.3771,1.3476,1.3112,1.2669,1.2146,1.1837,1.1295,1.0856,1.0559,1.0148,0.978,0.9189,0.9034,0.8801,0.8099,0.7865,0.7704,0.7399,0.7321,0.734,0.7284,0.7352,0.7656,0.7675,0.7562,0.7275,0.6979,0.6701,0.6441,0.6241,0.5882,0.5707,0.5524,0.534,0.5266,0.511,0.5217,0.525,0.5181,0.5098,0.4866,0.4664,0.4429,0.4189,0.3937,0.3677,0.3405,0.3399,0.3399,0.3408,0.3354,0.327,0.3103,0.3011,0.2835,0.2675,0.2508,0.234,0.2162,0.198,0.1803,0.1631,0.154,0.1446,0.1357,0.1351,0.1672,0.198,0.2157,0.2327,0.2488,0.2651,0.2666,0.2679,2.2488,2.1692,2.1231,2.0531,1.9716,1.8939,1.8608,1.8811,1.9777,1.9643,1.8654,1.8037,1.8029,1.8498,1.8593,1.851,1.8344,1.8327,1.8168,1.7733,1.7831,1.7307,1.7004,1.6705,1.6346,1.5869,1.5575,1.5354,1.4977,1.4559,1.423,1.4153,1.4062,1.3808,1.3795,1.4008,1.3858,1.3458,1.3169,1.3182,1.3105,1.289,1.2537,1.2276,1.1748,1.1397,1.1112,1.0529,1.0121,0.9761,0.9364,0.9082,0.8484,0.8336,0.8025,0.7427,0.7277,0.713,0.6902,0.674,0.6644,0.6556,0.6483,0.6577,0.6821,0.6791,0.6679,0.6482,0.6228,0.5965,0.5755,0.5482,0.5329,0.5174,0.511,0.5042,0.5145,0.5249,0.517,0.5022,0.4814,0.4573,0.434,0.4103,0.3785,0.3551,0.322,0.296,0.2959,0.3048,0.3134,0.3065,0.2971,0.2879,0.2702,0.2527,0.2455,0.2294,0.2042,0.1866,0.1681,0.1596,0.1518,0.1424,0.1326,0.1322,0.1319,0.1642,0.1954,0.2137,0.2335,0.2606,0.2702,0.2718,0.2728,2.131,2.0568,2.0448,1.9591,1.8479,1.7795,1.7381,1.7155,1.8304,1.869,1.8042,1.7126,1.7204,1.7859,1.7961,1.7839,1.7701,1.7627,1.7355,1.668,1.6716,1.6511,1.6171,1.5839,1.5619,1.534,1.5068,1.4748,1.4314,1.3899,1.373,1.3568,1.3307,1.3021,1.294,1.3194,1.2914,1.2188,1.177,1.156,1.2098,1.1984,1.157,1.1455,1.0954,1.0467,1.0186,0.9771,0.9236,0.8856,0.8556,0.8412,0.803,0.7714,0.7326,0.7022,0.6868,0.6637,0.6486,0.6257,0.6177,0.5944,0.5712,0.5814,0.6012,0.6267,0.6169,0.6084,0.5839,0.568,0.5488,0.5323,0.5171,0.5093,0.5023,0.504,0.5067,0.5083,0.488,0.47,0.4369,0.414,0.4005,0.3769,0.3355,0.3151,0.2907,0.2571,0.2495,0.2666,0.2679,0.2679,0.2653,0.2555,0.2393,0.2227,0.2157,0.1998,0.1832,0.1742,0.156,0.1483,0.1328,0.1312,0.1296,0.1286,0.136,0.1688,0.1951,0.2143,0.2343,0.2642,0.2752,0.2771,0.2783,2.0636,2.0026,1.9082,1.8082,1.7187,1.6932,1.666,1.6343,1.63,1.6575,1.6711,1.6414,1.6346,1.6729,1.6828,1.6742,1.6687,1.668,1.6412,1.6193,1.6072,1.5899,1.5575,1.5333,1.4992,1.4657,1.4412,1.4075,1.3646,1.3392,1.313,1.2948,1.2589,1.2348,1.1914,1.2153,1.1711,1.1033,1.0359,1.0365,1.1025,1.1056,1.074,1.0444,0.9999,0.9658,0.9387,0.9052,0.878,0.8475,0.8165,0.7868,0.7411,0.7176,0.6872,0.6567,0.6412,0.6254,0.6025,0.587,0.5792,0.5715,0.5559,0.5482,0.5562,0.5715,0.5792,0.5634,0.5556,0.5398,0.5321,0.5168,0.5093,0.5018,0.5018,0.5042,0.5067,0.4836,0.4604,0.4274,0.3946,0.3726,0.3597,0.3362,0.2954,0.2712,0.2471,0.2232,0.2163,0.2172,0.2197,0.2277,0.2327,0.2236,0.2087,0.1936,0.1866,0.1779,0.1613,0.1446,0.1443,0.1369,0.1294,0.128,0.1345,0.1343,0.1431,0.169,0.1954,0.2068,0.2375,0.2689,0.2811,0.2832,0.2843,1.9811,1.93,1.8207,1.7302,1.6738,1.6492,1.6154,1.5741,1.5394,1.5387,1.5643,1.5523,1.5606,1.5741,1.5824,1.5741,1.5748,1.5831,1.5763,1.559,1.5499,1.5325,1.5075,1.4831,1.458,1.4243,1.3646,1.3307,1.3052,1.2699,1.2437,1.2149,1.1934,1.1483,1.1013,1.0914,1.0649,1.0147,0.9272,0.9345,0.9948,0.9891,0.9879,0.9591,0.9316,0.9008,0.878,0.8475,0.8169,0.7863,0.7557,0.7176,0.6795,0.656,0.6328,0.6099,0.5948,0.587,0.5637,0.5482,0.5482,0.5404,0.5249,0.509,0.5012,0.5168,0.5243,0.5165,0.5243,0.5162,0.5168,0.5018,0.5018,0.5018,0.5018,0.4951,0.48,0.4565,0.4332,0.4016,0.3694,0.3385,0.3247,0.2929,0.2608,0.2373,0.2124,0.1886,0.1808,0.1808,0.1824,0.183,0.1972,0.1964,0.182,0.1745,0.1666,0.1498,0.1336,0.1342,0.1349,0.1343,0.1337,0.1338,0.1338,0.1338,0.1506,0.1774,0.197,0.2087,0.2493,0.2832,0.286,0.2875,0.2871,1.8931,1.8451,1.7635,1.7066,1.6582,1.6162,1.5741,1.5401,1.5075,1.4915,1.4734,1.4866,1.5039,1.5213,1.5311,1.5311,1.5228,1.5235,1.5159,1.4999,1.4922,1.4664,1.4489,1.4153,1.399,1.3568,1.3052,1.2796,1.2625,1.2134,1.1753,1.1344,1.099,1.0656,1.0181,0.9697,0.9355,0.9115,0.8672,0.8421,0.856,0.8861,0.8951,0.8865,0.8699,0.8475,0.8246,0.7944,0.7638,0.7249,0.6868,0.6563,0.6254,0.6022,0.5867,0.5715,0.5637,0.5559,0.5404,0.5249,0.5246,0.5087,0.4779,0.4623,0.4623,0.4621,0.4696,0.4696,0.4851,0.4929,0.4935,0.4937,0.4937,0.4937,0.4859,0.4859,0.4545,0.4307,0.4073,0.3763,0.3452,0.3139,0.2824,0.251,0.2276,0.2043,0.1808,0.1573,0.1415,0.1493,0.1579,0.1581,0.1653,0.1571,0.1571,0.1572,0.1493,0.1415,0.1336,0.1336,0.1336,0.1336,0.1336,0.1336,0.1336,0.1336,0.1517,0.179,0.1904,0.2101,0.2518,0.2854,0.2862,0.2875,0.2875,1.8371,1.7635,1.7066,1.6574,1.6162,1.5733,1.5409,1.5082,1.4741,1.4482,1.4482,1.4321,1.4489,1.481,1.4817,1.4734,1.4559,1.4559,1.4475,1.4307,1.4159,1.399,1.3815,1.3561,1.3307,1.2881,1.2454,1.2198,1.2031,1.1477,1.1115,1.0939,1.0249,0.9781,0.9438,0.9075,0.8852,0.8522,0.8231,0.7936,0.8093,0.8327,0.8403,0.825,0.8093,0.7863,0.7638,0.7488,0.7099,0.6714,0.6325,0.6022,0.5789,0.5634,0.5479,0.5323,0.5323,0.5246,0.509,0.4935,0.4854,0.4854,0.4545,0.4389,0.4311,0.4233,0.4311,0.4311,0.4387,0.454,0.4543,0.4543,0.4543,0.4543,0.4543,0.4467,0.4233,0.3995,0.3756,0.3448,0.3139,0.2826,0.2589,0.2276,0.2041,0.1886,0.1651,0.1415,0.1336,0.1336,0.1336,0.1415,0.1414,0.1335,0.1336,0.1415,0.1336,0.1336,0.1336,0.1336,0.1336,0.1336,0.1336,0.1336,0.1336,0.1336,0.1522,0.1794,0.1993,0.2198,0.2626,0.2867,0.2873,0.2875,0.2875]},{"header":{"parameterUnit":"m.s-1","parameterCategory":1,"la1":31.0,"la2":29.5877,"lo1":-88.7671,"lo2":-86.6584,"dy":0.0162,"dx":0.0185,"nx":115,"ny":88,"refTime":"2023-08-24T12:00:00:Z","depth":0,"parameterNumber":3,"parameterNumberName":"V-component_of_WINDS"},"data":[0.0,0.0,0.0,0.0,0.0,0.0,0.0,0.0,0.0,0.0,0.0,0.0,0.0,0.0,0.0,0.0,0.0,0.0,0.0,0.0,0.0,0.0,0.0,0.0,0.0,0.0,0.0,0.0,0.0,0.0,0.0,0.0,0.0,0.0,0.0,0.0,0.0,0.0,0.0,0.0,0.0,0.0,0.0,0.0,0.0,0.0,0.0,0.0,0.0,0.0,0.0,0.0,0.0,0.0,0.0,0.0,0.0,0.0,0.0,0.0,0.0,0.0,0.0,0.0,0.0,0.0,0.0,0.0,0.0,0.0,0.0,0.0,0.0,0.0,0.0,0.0,0.0,0.0,0.0,0.0,0.0,0.0,0.0,0.0,0.0,0.0,0.0,0.0,0.0,0.0,0.0,0.0,0.0,0.0,0.0,0.0,0.0,0.0,0.0,0.0,0.0,0.0,0.0,0.0,0.0,0.0,0.0,0.0,0.0,0.0,0.0,0.0,0.0,0.0,0.0,0.0,0.0,0.0,0.0,0.0,0.0,0.0,0.0,0.0,0.0,0.0,0.0,0.0,0.0,0.0,0.0,0.0,0.0,0.0,0.0,0.0,0.0,0.0,0.0,0.0,0.0,0.0,0.0,0.0,0.0,0.0,0.0,0.0,0.0,0.0,0.0,0.0,0.0,0.0,0.0,0.0,0.0,0.0,0.0,0.0,0.0,0.0,0.0,0.0,0.0,0.0,0.0,0.0,0.0,0.0,0.0,0.0,0.0,0.0,0.0,0.0,0.0,0.0,0.0,0.0,0.0,0.0,0.0,0.0,0.0,0.0,0.0,0.0,0.0,0.0,0.0,0.0,0.0,0.0,0.0,0.0,0.0,0.0,0.0,0.0,0.0,0.0,0.0,0.0,0.0,0.0,0.0,0.0,0.0,0.0,0.0,0.0,0.0,0.0,0.0,0.0,0.0,0.0,0.0,0.0,0.0,0.0,0.0,0.0,0.0,0.0,0.0,0.0,0.0,0.0,0.0,0.0,0.0,0.0,0.0,0.0,0.0,0.0,0.0,0.0,0.0,0.0,0.0,0.0,0.0,0.0,0.0,0.0,0.0,0.0,0.0,0.0,0.0,0.0,0.0,0.0,0.0,0.0,0.0,0.0,0.0,0.0,0.0,0.0,0.0,0.0,0.0,0.0,0.0,0.0,0.0,0.0,0.0,0.0,0.0,0.0,0.0,0.0,0.0,0.0,0.0,0.0,0.0,0.0,0.0,0.0,0.0,0.0,0.0,0.0,0.0,0.0,0.0,0.0,0.0,0.0,0.0,0.0,0.0,0.0,0.0,0.0,0.0,0.0,0.0,0.0,0.0,0.0,0.0,0.0,0.0,0.0,0.0,0.0,0.0,0.0,0.0,0.0,0.0,0.0,0.0,0.0,0.0,0.0,0.0,0.0,0.0,0.0,0.0,0.0,0.0,0.0,0.0,0.0,0.0,0.0,0.0,0.0,0.0,0.0,0.0,0.0,0.0,0.0,0.0,0.0,0.0,0.0,0.0,0.0,0.0,0.0,0.0,0.0,0.0,0.0,0.0,0.0,0.0,0.0,0.0,0.0,0.0,0.0,0.0,0.0,0.0,0.0,0.0,0.0,0.0,0.0,0.0,0.0,0.0,0.0,0.0,0.0,0.0,0.0,0.0,0.0,0.0,0.0,0.0,0.0,0.0,0.0,0.0,0.0,0.0,0.0,0.0,0.0,0.0,0.0,0.0,0.0,0.0,0.0,0.0,0.0,0.0,0.0,0.0,0.0,0.0,0.0,0.0,0.0,0.0,0.0,0.0,0.0,0.0,0.0,0.0,0.0,0.0,0.0,0.0,0.0,0.0,0.0,0.0,0.0,0.0,0.0,0.0,0.0,0.0,0.0,0.0,0.0,0.0,0.0,0.0,0.0,0.0,0.0,0.0,0.0,0.0,0.0,0.0,0.0,0.0,0.0,0.0,0.0,0.0,0.0,0.0,0.0,0.0,0.0,0.0,0.0,0.0,0.0,0.0,0.0,0.0,0.0,0.0,0.0,0.0,0.0,0.0,0.0,0.0,0.0,0.0,0.0,0.0,0.0,0.0,0.0,0.0,0.0,0.0,0.0,0.0,0.0,0.0,0.0,0.0,0.0,0.0,0.0,0.0,0.0,0.0,0.0,0.0,0.0,0.0,0.0,0.0,0.0,0.0,0.0,0.0,0.0,0.0,0.0,0.0,0.0,0.0,0.0,0.0,0.0,0.0,0.0,0.0,0.0,0.0,0.0,0.0,0.0,0.0,0.0,0.0,0.0,0.0,0.0,0.0,0.0,0.0,0.0,0.0,0.0,0.0,0.0,0.0,0.0,0.0,0.0,0.0,0.0,0.0,0.0,0.0,0.0,0.0,0.0,0.0,0.0,0.0,0.0,0.0,0.0,0.0,0.0,0.0,0.0,0.0,0.0,0.0,0.0,0.0,0.0,0.0,0.0,0.0,0.0,0.0,0.0,0.0,0.0,0.0,0.0,0.0,0.0,0.0,0.0,0.0,0.0,0.0,0.0,0.0,0.0,0.0,0.0,0.0,0.0,0.0,0.0,0.0,0.0,0.0,0.0,0.0,0.0,0.0,0.0,0.0,0.0,0.0,0.0,0.0,0.0,0.0,0.0,0.0,0.0,0.0,0.0,0.0,0.0,0.0,0.0,0.0,0.0,0.0,0.0,0.0,0.0,0.0,0.0,0.0,0.0,0.0,0.0,0.0,0.0,0.0,0.0,0.0,0.0,0.0,0.0,0.0,0.0,0.0,0.0,0.0,0.0,0.0,0.0,0.0,0.0,0.0,0.0,0.0,0.0,0.0,0.0,0.0,0.0,0.0,0.0,0.0,0.0,0.0,0.0,0.0,0.0,0.0,0.0,0.0,0.0,0.0,0.0,0.0,0.0,0.0,0.0,0.0,0.0,0.0,0.0,0.0,0.0,0.0,0.0,0.0,0.0,0.0,0.0,0.0,0.0,0.0,0.0,0.0,0.0,0.0,0.0,0.0,0.0,0.0,0.0,0.0,0.0,0.0,0.0,0.0,0.0,0.0,0.0,0.0,0.0,0.0,0.0,0.0,0.0,0.0,0.0,0.0,0.0,0.0,0.0,0.0,0.0,0.0,0.0,0.0,0.0,0.0,0.0,0.0,0.0,0.0,0.0,0.0,0.0,0.0,0.0,0.0,0.0,0.0,0.0,0.0,0.0,0.0,0.0,0.0,0.0,0.0,0.0,0.0,0.0,0.0,0.0,0.0,0.0,0.0,0.0,0.0,0.0,0.0,0.0,0.0,0.0,0.0,0.0,0.0,0.0,0.0,0.0,0.0,0.0,0.0,0.0,0.0,0.0,0.0,0.0,0.0,0.0,0.0,0.0,0.0,0.0,0.0,0.0,0.0,0.0,0.0,0.0,0.0,0.0,0.0,0.0,0.0,0.0,0.0,0.0,0.0,0.0,0.0,0.0,0.0,0.0,0.0,0.0,0.0,0.0,0.0,0.0,0.0,0.0,0.0,0.0,0.0,0.0,0.0,0.0,0.0,0.0,0.0,0.0,0.0,0.0,0.0,0.0,0.0,0.0,0.0,0.0,0.0,0.0,0.0,0.0,0.0,0.0,0.0,0.0,0.0,0.0,0.0,0.0,0.0,0.0,0.0,0.0,0.0,0.0,0.0,0.0,0.0,0.0,0.0,0.0,0.0,0.0,0.0,0.0,0.0,0.0,0.0,0.0,0.0,0.0,0.0,0.0,0.0,0.0,0.0,0.0,0.0,0.0,0.0,0.0,0.0,0.0,0.0,0.0,0.0,0.0,0.0,0.0,0.0,0.0,0.0,0.0,0.0,0.0,0.0,0.0,0.0,0.0,0.0,0.0,0.0,0.0,0.0,0.0,0.0,0.0,0.0,0.0,0.0,0.0,0.0,0.0,0.0,0.0,0.0,0.0,0.0,0.0,0.0,0.0,0.0,0.0,0.0,0.0,0.0,0.0,0.0,0.0,0.0,0.0,0.0,0.0,0.0,0.0,0.0,0.0,0.0,0.0,0.0,0.0,0.0,0.0,0.0,0.0,0.0,0.0,0.0,0.0,0.0,0.0,0.0,0.0,0.0,0.0,0.0,0.0,0.0,0.0,0.0,0.0,0.0,0.0,0.0,0.0,0.0,0.0,0.0,0.0,0.0,0.0,0.0,0.0,0.0,0.0,0.0,0.0,0.0,0.0,0.0,0.0,0.0,0.0,-2.4054,0.0,0.0,0.0,0.0,0.0,0.0,0.0,0.0,0.0,0.0,0.0,0.0,0.0,0.0,0.0,0.0,0.0,0.0,0.0,0.0,0.0,0.0,0.0,0.0,0.0,0.0,0.0,0.0,0.0,0.0,0.0,0.0,0.0,0.0,0.0,0.0,0.0,0.0,0.0,0.0,0.0,0.0,0.0,0.0,0.0,0.0,0.0,0.0,0.0,0.0,0.0,0.0,0.0,0.0,0.0,0.0,0.0,0.0,0.0,0.0,0.0,0.0,0.0,0.0,0.0,0.0,0.0,0.0,0.0,0.0,0.0,0.0,0.0,0.0,0.0,0.0,0.0,0.0,0.0,0.0,0.0,0.0,0.0,0.0,0.0,0.0,0.0,0.0,0.0,0.0,0.0,0.0,0.0,0.0,0.0,0.0,0.0,0.0,0.0,0.0,0.0,0.0,0.0,0.0,0.0,0.0,0.0,0.0,0.0,0.0,-2.4819,-2.4954,-2.5161,-2.5108,-2.4671,0.0,0.0,0.0,0.0,0.0,0.0,0.0,0.0,0.0,0.0,0.0,0.0,0.0,0.0,0.0,0.0,0.0,0.0,0.0,0.0,0.0,0.0,0.0,0.0,0.0,0.0,0.0,0.0,0.0,0.0,0.0,0.0,0.0,0.0,0.0,0.0,0.0,0.0,0.0,0.0,0.0,0.0,0.0,0.0,0.0,0.0,0.0,0.0,0.0,0.0,0.0,0.0,0.0,0.0,0.0,0.0,0.0,0.0,0.0,0.0,0.0,0.0,0.0,0.0,0.0,0.0,0.0,0.0,0.0,0.0,0.0,0.0,0.0,0.0,0.0,0.0,0.0,0.0,0.0,0.0,0.0,0.0,0.0,0.0,0.0,0.0,0.0,0.0,0.0,0.0,0.0,0.0,0.0,0.0,0.0,0.0,0.0,0.0,0.0,0.0,0.0,0.0,0.0,0.0,0.0,0.0,0.0,0.0,0.0,0.0,0.0,0.0,-2.6272,-2.6133,-2.5575,0.0,0.0,0.0,0.0,0.0,0.0,0.0,0.0,0.0,0.0,0.0,0.0,0.0,0.0,0.0,0.0,0.0,0.0,0.0,0.0,0.0,0.0,0.0,0.0,0.0,0.0,0.0,0.0,0.0,0.0,0.0,0.0,0.0,0.0,0.0,0.0,0.0,0.0,0.0,0.0,0.0,0.0,0.0,0.0,0.0,0.0,0.0,0.0,0.0,0.0,0.0,0.0,0.0,0.0,0.0,0.0,0.0,0.0,0.0,0.0,0.0,0.0,0.0,0.0,0.0,0.0,0.0,0.0,0.0,0.0,0.0,0.0,0.0,0.0,0.0,0.0,0.0,0.0,0.0,0.0,0.0,0.0,0.0,0.0,0.0,0.0,0.0,0.0,0.0,0.0,0.0,0.0,0.0,0.0,0.0,0.0,0.0,0.0,0.0,0.0,0.0,0.0,0.0,0.0,0.0,0.0,0.0,0.0,0.0,0.0,-2.59,-2.6092,-2.6295,0.0,-2.6552,0.0,0.0,0.0,0.0,0.0,0.0,0.0,0.0,0.0,0.0,0.0,0.0,0.0,0.0,0.0,0.0,0.0,0.0,0.0,0.0,0.0,0.0,0.0,0.0,0.0,0.0,0.0,0.0,0.0,0.0,0.0,0.0,0.0,0.0,0.0,0.0,0.0,0.0,0.0,0.0,0.0,0.0,0.0,0.0,0.0,0.0,0.0,0.0,0.0,0.0,0.0,0.0,0.0,0.0,0.0,0.0,0.0,0.0,0.0,0.0,0.0,0.0,0.0,0.0,0.0,0.0,0.0,0.0,0.0,0.0,0.0,0.0,0.0,0.0,0.0,0.0,0.0,0.0,0.0,0.0,0.0,0.0,0.0,0.0,0.0,0.0,0.0,0.0,0.0,0.0,0.0,0.0,0.0,0.0,0.0,0.0,0.0,0.0,0.0,0.0,0.0,0.0,0.0,0.0,0.0,0.0,0.0,0.0,0.0,0.0,-2.7341,-2.7518,-2.7328,-2.7291,0.0,0.0,0.0,0.0,0.0,0.0,0.0,0.0,0.0,0.0,0.0,0.0,0.0,0.0,0.0,0.0,0.0,0.0,0.0,0.0,0.0,0.0,0.0,0.0,0.0,0.0,0.0,0.0,0.0,0.0,0.0,0.0,0.0,0.0,0.0,0.0,0.0,0.0,0.0,0.0,0.0,0.0,0.0,0.0,0.0,0.0,0.0,0.0,0.0,0.0,0.0,0.0,0.0,0.0,0.0,0.0,0.0,0.0,0.0,0.0,0.0,0.0,0.0,0.0,0.0,0.0,0.0,0.0,0.0,0.0,0.0,0.0,0.0,0.0,0.0,0.0,0.0,0.0,0.0,0.0,0.0,0.0,0.0,0.0,0.0,0.0,0.0,0.0,0.0,0.0,0.0,0.0,0.0,0.0,0.0,0.0,0.0,0.0,0.0,0.0,0.0,0.0,0.0,0.0,0.0,0.0,0.0,0.0,0.0,0.0,-2.8146,-2.8414,-2.8601,-2.8338,-2.8224,-2.8347,0.0,0.0,0.0,0.0,0.0,0.0,0.0,0.0,0.0,0.0,0.0,0.0,0.0,0.0,0.0,0.0,0.0,0.0,0.0,0.0,0.0,0.0,0.0,0.0,0.0,0.0,0.0,0.0,0.0,0.0,0.0,0.0,0.0,0.0,0.0,0.0,0.0,0.0,0.0,0.0,0.0,0.0,0.0,0.0,0.0,0.0,0.0,0.0,0.0,0.0,0.0,0.0,0.0,0.0,0.0,0.0,0.0,0.0,0.0,0.0,0.0,0.0,0.0,0.0,0.0,0.0,0.0,0.0,0.0,0.0,0.0,0.0,0.0,0.0,0.0,0.0,0.0,0.0,0.0,0.0,0.0,0.0,0.0,0.0,0.0,0.0,0.0,0.0,0.0,0.0,0.0,0.0,0.0,0.0,0.0,0.0,0.0,0.0,0.0,0.0,0.0,0.0,0.0,0.0,0.0,0.0,0.0,0.0,-2.7968,-2.8264,-2.8543,-2.8863,-2.9052,-2.9123,0.0,0.0,0.0,0.0,0.0,0.0,0.0,0.0,0.0,0.0,0.0,0.0,0.0,0.0,0.0,0.0,0.0,0.0,0.0,0.0,0.0,0.0,0.0,0.0,0.0,0.0,0.0,0.0,0.0,0.0,0.0,0.0,0.0,0.0,0.0,0.0,0.0,0.0,0.0,0.0,0.0,0.0,0.0,0.0,0.0,0.0,0.0,0.0,0.0,0.0,0.0,0.0,0.0,0.0,0.0,0.0,0.0,0.0,0.0,0.0,0.0,0.0,0.0,0.0,0.0,0.0,0.0,0.0,0.0,0.0,0.0,0.0,0.0,0.0,0.0,0.0,0.0,0.0,0.0,0.0,0.0,0.0,0.0,0.0,0.0,0.0,0.0,0.0,0.0,0.0,0.0,0.0,0.0,0.0,0.0,0.0,0.0,0.0,0.0,0.0,0.0,0.0,0.0,0.0,0.0,0.0,0.0,0.0,0.0,-2.8014,-2.8406,-2.8694,-2.8887,-2.9089,-2.9218,0.0,0.0,0.0,0.0,0.0,0.0,0.0,0.0,0.0,0.0,0.0,0.0,0.0,0.0,0.0,0.0,0.0,0.0,0.0,0.0,0.0,0.0,0.0,0.0,0.0,0.0,0.0,0.0,0.0,0.0,0.0,0.0,0.0,0.0,0.0,0.0,0.0,0.0,0.0,0.0,0.0,0.0,0.0,0.0,0.0,0.0,0.0,0.0,0.0,0.0,0.0,0.0,0.0,0.0,0.0,0.0,0.0,0.0,0.0,0.0,0.0,0.0,0.0,0.0,0.0,0.0,0.0,0.0,0.0,0.0,0.0,0.0,0.0,0.0,0.0,0.0,0.0,0.0,0.0,0.0,0.0,0.0,0.0,0.0,0.0,0.0,0.0,0.0,0.0,0.0,0.0,0.0,0.0,0.0,0.0,0.0,0.0,0.0,0.0,0.0,0.0,0.0,0.0,0.0,0.0,0.0,0.0,0.0,0.0,-2.8191,0.0,-2.8791,0.0,-2.9112,-2.9218,0.0,0.0,0.0,0.0,0.0,0.0,0.0,0.0,0.0,0.0,0.0,0.0,0.0,0.0,0.0,0.0,0.0,0.0,0.0,0.0,0.0,0.0,0.0,0.0,0.0,0.0,0.0,0.0,0.0,0.0,0.0,0.0,0.0,0.0,0.0,0.0,0.0,0.0,0.0,0.0,0.0,0.0,0.0,0.0,0.0,0.0,0.0,0.0,0.0,0.0,0.0,0.0,0.0,0.0,0.0,0.0,0.0,0.0,0.0,0.0,0.0,0.0,0.0,0.0,0.0,0.0,0.0,0.0,0.0,0.0,0.0,0.0,0.0,0.0,0.0,0.0,0.0,0.0,0.0,0.0,0.0,0.0,0.0,0.0,0.0,0.0,0.0,0.0,0.0,0.0,0.0,0.0,0.0,0.0,0.0,0.0,0.0,0.0,0.0,0.0,0.0,0.0,0.0,0.0,0.0,0.0,0.0,0.0,-2.8,-2.8543,-2.873,-2.8876,-2.8994,-2.9134,-2.9218,0.0,0.0,0.0,0.0,0.0,0.0,0.0,0.0,0.0,0.0,0.0,0.0,0.0,0.0,0.0,0.0,0.0,0.0,0.0,0.0,0.0,0.0,0.0,0.0,0.0,0.0,0.0,0.0,0.0,0.0,0.0,0.0,0.0,0.0,0.0,0.0,0.0,0.0,0.0,0.0,0.0,0.0,0.0,0.0,0.0,0.0,0.0,0.0,0.0,0.0,0.0,0.0,0.0,0.0,0.0,0.0,0.0,0.0,0.0,0.0,0.0,0.0,0.0,0.0,0.0,0.0,0.0,0.0,0.0,0.0,0.0,0.0,0.0,0.0,0.0,0.0,0.0,0.0,0.0,0.0,0.0,0.0,0.0,0.0,0.0,0.0,0.0,0.0,0.0,0.0,0.0,0.0,0.0,0.0,0.0,0.0,0.0,0.0,0.0,0.0,0.0,0.0,0.0,0.0,0.0,0.0,0.0,0.0,0.0,-2.8662,-2.8791,-2.8905,-2.8994,-2.9112,-2.9218,0.0,0.0,0.0,0.0,0.0,0.0,0.0,0.0,0.0,0.0,0.0,0.0,0.0,0.0,0.0,0.0,0.0,0.0,0.0,0.0,0.0,0.0,0.0,0.0,0.0,0.0,0.0,0.0,0.0,0.0,0.0,0.0,0.0,0.0,0.0,0.0,0.0,0.0,0.0,0.0,0.0,0.0,0.0,0.0,0.0,0.0,0.0,0.0,0.0,0.0,0.0,0.0,0.0,0.0,0.0,0.0,0.0,0.0,0.0,0.0,0.0,0.0,0.0,0.0,0.0,0.0,0.0,0.0,0.0,0.0,0.0,0.0,0.0,0.0,0.0,0.0,0.0,0.0,0.0,0.0,0.0,0.0,0.0,0.0,0.0,0.0,0.0,0.0,0.0,0.0,0.0,0.0,0.0,0.0,0.0,0.0,0.0,0.0,0.0,0.0,0.0,0.0,0.0,0.0,0.0,0.0,0.0,0.0,0.0,-2.8767,-2.8858,-2.8952,-2.9021,-2.9134,-2.92,-2.924,0.0,0.0,0.0,0.0,0.0,0.0,0.0,0.0,0.0,0.0,0.0,0.0,0.0,0.0,0.0,0.0,0.0,0.0,0.0,0.0,0.0,0.0,0.0,0.0,0.0,0.0,0.0,0.0,0.0,0.0,0.0,0.0,0.0,0.0,0.0,0.0,0.0,0.0,0.0,0.0,0.0,0.0,0.0,0.0,0.0,0.0,0.0,0.0,0.0,0.0,0.0,0.0,0.0,0.0,0.0,0.0,0.0,0.0,0.0,0.0,0.0,0.0,0.0,0.0,0.0,0.0,0.0,0.0,0.0,0.0,0.0,0.0,0.0,0.0,0.0,0.0,0.0,0.0,0.0,0.0,0.0,0.0,0.0,0.0,0.0,0.0,0.0,0.0,0.0,0.0,0.0,0.0,0.0,0.0,0.0,0.0,0.0,0.0,0.0,0.0,0.0,0.0,0.0,0.0,0.0,0.0,0.0,0.0,-2.8905,-2.8905,-2.8975,-2.9108,-2.9175,-2.924,0.0,0.0,0.0,0.0,0.0,0.0,0.0,0.0,0.0,0.0,0.0,0.0,0.0,0.0,0.0,0.0,0.0,0.0,0.0,0.0,0.0,0.0,0.0,0.0,0.0,0.0,0.0,0.0,0.0,0.0,0.0,0.0,0.0,0.0,0.0,0.0,0.0,0.0,0.0,0.0,0.0,0.0,0.0,0.0,0.0,0.0,0.0,0.0,0.0,0.0,0.0,0.0,0.0,0.0,0.0,0.0,0.0,0.0,0.0,0.0,0.0,0.0,0.0,0.0,0.0,0.0,0.0,0.0,0.0,0.0,0.0,0.0,0.0,0.0,0.0,0.0,0.0,0.0,0.0,0.0,0.0,0.0,0.0,0.0,0.0,0.0,0.0,0.0,0.0,0.0,0.0,0.0,0.0,0.0,0.0,0.0,0.0,0.0,0.0,0.0,0.0,0.0,0.0,0.0,0.0,0.0,0.0,0.0,0.0,-2.8952,-2.904,-2.9085,-2.9108,-2.9218,-2.928,0.0,0.0,0.0,0.0,0.0,0.0,0.0,0.0,0.0,0.0,0.0,0.0,0.0,0.0,0.0,0.0,0.0,0.0,0.0,0.0,0.0,0.0,0.0,0.0,0.0,0.0,0.0,0.0,0.0,0.0,0.0,0.0,0.0,0.0,0.0,0.0,0.0,0.0,0.0,0.0,0.0,0.0,0.0,0.0,0.0,0.0,0.0,0.0,0.0,0.0,0.0,0.0,0.0,0.0,0.0,0.0,0.0,0.0,0.0,0.0,0.0,0.0,0.0,0.0,0.0,0.0,0.0,0.0,0.0,0.0,0.0,0.0,0.0,0.0,0.0,0.0,0.0,0.0,0.0,0.0,0.0,0.0,0.0,0.0,0.0,0.0,0.0,0.0,0.0,0.0,0.0,0.0,0.0,0.0,0.0,0.0,0.0,0.0,0.0,0.0,0.0,0.0,0.0,0.0,0.0,0.0,0.0,0.0,-2.907,-2.9536,-2.9628,-2.9861,-3.0239,-2.9613,-2.9323,0.0,0.0,0.0,0.0,0.0,0.0,0.0,0.0,0.0,0.0,0.0,0.0,0.0,0.0,0.0,0.0,0.0,0.0,0.0,0.0,0.0,0.0,0.0,0.0,0.0,0.0,0.0,0.0,0.0,0.0,0.0,0.0,0.0,0.0,0.0,0.0,0.0,0.0,0.0,0.0,0.0,0.0,0.0,0.0,0.0,0.0,0.0,0.0,0.0,0.0,0.0,0.0,0.0,0.0,0.0,0.0,0.0,0.0,0.0,0.0,0.0,0.0,0.0,0.0,0.0,0.0,0.0,0.0,0.0,0.0,0.0,0.0,0.0,0.0,0.0,0.0,0.0,0.0,0.0,0.0,0.0,0.0,0.0,0.0,0.0,0.0,0.0,0.0,0.0,0.0,0.0,0.0,0.0,0.0,0.0,0.0,0.0,0.0,0.0,0.0,0.0,0.0,0.0,0.0,0.0,0.0,0.0,0.0,-2.9536,-3.042,-3.0572,-3.0995,-3.1708,-3.0272,-2.9474,0.0,0.0,0.0,0.0,0.0,0.0,0.0,0.0,0.0,0.0,0.0,0.0,0.0,0.0,0.0,0.0,0.0,0.0,0.0,0.0,0.0,0.0,0.0,0.0,0.0,0.0,0.0,0.0,0.0,0.0,0.0,0.0,0.0,0.0,0.0,0.0,0.0,0.0,0.0,0.0,0.0,0.0,0.0,0.0,0.0,0.0,0.0,0.0,0.0,0.0,0.0,0.0,0.0,0.0,0.0,0.0,0.0,0.0,0.0,0.0,0.0,0.0,0.0,0.0,0.0,0.0,0.0,0.0,0.0,0.0,0.0,0.0,0.0,0.0,0.0,0.0,0.0,0.0,0.0,0.0,0.0,0.0,0.0,0.0,0.0,0.0,0.0,0.0,0.0,0.0,0.0,0.0,0.0,0.0,0.0,0.0,0.0,0.0,0.0,0.0,0.0,0.0,0.0,0.0,0.0,0.0,0.0,0.0,-3.0404,-3.1297,-3.1473,-3.1637,-3.1853,-3.0857,-3.0355,0.0,0.0,0.0,0.0,0.0,0.0,0.0,0.0,0.0,0.0,0.0,0.0,0.0,0.0,0.0,0.0,0.0,0.0,0.0,0.0,0.0,0.0,0.0,0.0,0.0,0.0,0.0,0.0,0.0,0.0,0.0,0.0,0.0,0.0,0.0,0.0,0.0,0.0,0.0,0.0,0.0,0.0,0.0,0.0,0.0,0.0,0.0,0.0,-3.0799,0.0,0.0,0.0,0.0,0.0,0.0,0.0,0.0,0.0,0.0,0.0,0.0,0.0,0.0,0.0,0.0,0.0,0.0,0.0,0.0,0.0,0.0,0.0,0.0,0.0,0.0,0.0,0.0,0.0,0.0,0.0,0.0,0.0,0.0,0.0,0.0,0.0,0.0,0.0,0.0,0.0,0.0,0.0,0.0,0.0,0.0,0.0,0.0,0.0,0.0,0.0,0.0,0.0,0.0,0.0,0.0,0.0,0.0,0.0,-3.128,-3.2151,-3.2335,-3.2635,-3.3015,-3.2247,-3.1651,0.0,0.0,0.0,0.0,0.0,0.0,0.0,0.0,0.0,0.0,0.0,0.0,0.0,0.0,0.0,0.0,0.0,0.0,0.0,0.0,0.0,0.0,0.0,0.0,0.0,0.0,0.0,0.0,0.0,0.0,0.0,0.0,0.0,0.0,0.0,0.0,0.0,0.0,0.0,0.0,0.0,0.0,0.0,0.0,0.0,0.0,0.0,0.0,0.0,0.0,0.0,0.0,0.0,0.0,0.0,0.0,0.0,0.0,0.0,0.0,0.0,0.0,0.0,0.0,0.0,0.0,0.0,0.0,0.0,0.0,0.0,0.0,0.0,0.0,0.0,0.0,0.0,0.0,0.0,0.0,0.0,0.0,0.0,0.0,0.0,0.0,0.0,0.0,0.0,0.0,0.0,0.0,0.0,0.0,0.0,0.0,0.0,0.0,0.0,0.0,0.0,0.0,0.0,0.0,0.0,0.0,0.0,-3.1302,-3.2162,-3.2945,-3.3175,-3.3631,-3.4367,-3.3732,-3.3019,-3.2284,0.0,0.0,0.0,0.0,0.0,0.0,0.0,0.0,0.0,0.0,0.0,0.0,0.0,0.0,0.0,0.0,0.0,0.0,0.0,0.0,0.0,0.0,0.0,0.0,0.0,0.0,0.0,0.0,0.0,0.0,0.0,0.0,0.0,0.0,0.0,0.0,0.0,0.0,-3.039,-3.0509,0.0,0.0,0.0,0.0,0.0,0.0,0.0,0.0,-3.0796,0.0,0.0,0.0,0.0,0.0,0.0,0.0,0.0,0.0,0.0,0.0,0.0,0.0,0.0,0.0,0.0,0.0,0.0,0.0,0.0,0.0,0.0,0.0,0.0,0.0,0.0,0.0,0.0,0.0,0.0,0.0,0.0,0.0,0.0,0.0,0.0,0.0,0.0,0.0,0.0,0.0,0.0,0.0,0.0,0.0,0.0,0.0,0.0,0.0,0.0,0.0,0.0,0.0,0.0,0.0,0.0,-3.1964,-3.2405,-3.2992,-3.3776,-3.4011,-3.4186,-3.4316,-3.4232,-3.4101,-3.3846,0.0,0.0,0.0,0.0,0.0,0.0,0.0,0.0,0.0,0.0,0.0,0.0,0.0,0.0,0.0,0.0,0.0,0.0,0.0,0.0,0.0,0.0,0.0,0.0,0.0,0.0,0.0,0.0,0.0,0.0,0.0,0.0,0.0,0.0,0.0,0.0,0.0,0.0,0.0,-3.0471,-3.0559,0.0,0.0,0.0,0.0,0.0,0.0,0.0,0.0,-3.0796,0.0,0.0,0.0,0.0,0.0,0.0,0.0,0.0,0.0,0.0,0.0,0.0,0.0,0.0,0.0,0.0,0.0,0.0,0.0,0.0,0.0,0.0,0.0,0.0,0.0,0.0,0.0,0.0,0.0,0.0,0.0,0.0,0.0,0.0,0.0,0.0,0.0,0.0,0.0,0.0,0.0,0.0,0.0,0.0,0.0,0.0,0.0,0.0,0.0,0.0,0.0,0.0,0.0,0.0,0.0,-3.2392,-3.3081,-3.3622,-3.3979,-3.4197,-3.4293,-3.4293,-3.4363,-3.4363,0.0,0.0,0.0,0.0,0.0,0.0,0.0,0.0,0.0,0.0,0.0,0.0,0.0,0.0,0.0,0.0,0.0,0.0,0.0,0.0,0.0,0.0,0.0,0.0,0.0,0.0,0.0,0.0,0.0,0.0,0.0,0.0,0.0,0.0,0.0,0.0,0.0,0.0,0.0,0.0,-3.0521,-3.0585,-3.0637,0.0,0.0,0.0,0.0,0.0,0.0,-3.0794,-3.0799,0.0,0.0,0.0,0.0,0.0,0.0,0.0,0.0,0.0,0.0,0.0,0.0,0.0,0.0,0.0,0.0,0.0,0.0,0.0,0.0,0.0,0.0,0.0,0.0,0.0,0.0,0.0,0.0,0.0,0.0,0.0,0.0,0.0,0.0,0.0,0.0,0.0,0.0,0.0,0.0,0.0,0.0,0.0,0.0,0.0,0.0,0.0,0.0,0.0,0.0,0.0,0.0,0.0,0.0,0.0,-3.2666,-3.3511,-3.3954,-3.3998,-3.4173,-3.4269,-3.4269,-3.4316,-3.4316,0.0,0.0,0.0,0.0,0.0,0.0,0.0,0.0,0.0,0.0,0.0,0.0,0.0,0.0,0.0,0.0,0.0,0.0,0.0,0.0,0.0,0.0,0.0,0.0,0.0,0.0,0.0,0.0,0.0,0.0,0.0,0.0,0.0,0.0,0.0,0.0,0.0,0.0,0.0,0.0,0.0,-3.1133,-3.1195,-3.1074,0.0,0.0,0.0,0.0,-3.0794,-3.0796,0.0,0.0,0.0,0.0,0.0,0.0,0.0,0.0,0.0,0.0,0.0,0.0,0.0,0.0,0.0,0.0,0.0,0.0,0.0,0.0,0.0,0.0,0.0,0.0,0.0,0.0,0.0,0.0,0.0,0.0,0.0,0.0,0.0,0.0,0.0,0.0,0.0,0.0,0.0,0.0,0.0,0.0,0.0,0.0,0.0,0.0,0.0,0.0,0.0,0.0,0.0,0.0,0.0,0.0,0.0,0.0,-3.3423,-3.376,-3.3902,-3.3921,-3.4049,-3.4124,-3.4124,-3.4197,-3.4216,0.0,0.0,0.0,0.0,0.0,0.0,0.0,0.0,0.0,0.0,0.0,0.0,0.0,0.0,0.0,0.0,0.0,0.0,0.0,0.0,0.0,0.0,0.0,0.0,0.0,0.0,0.0,0.0,0.0,0.0,0.0,0.0,0.0,0.0,0.0,0.0,0.0,0.0,0.0,0.0,0.0,-3.2842,-3.2897,-3.2302,-3.1858,0.0,0.0,-3.079,-3.0786,-3.0794,0.0,0.0,0.0,0.0,0.0,0.0,0.0,0.0,0.0,0.0,0.0,0.0,0.0,0.0,0.0,0.0,0.0,0.0,0.0,0.0,0.0,0.0,0.0,0.0,0.0,0.0,0.0,0.0,0.0,0.0,0.0,0.0,0.0,0.0,0.0,0.0,0.0,0.0,0.0,0.0,0.0,0.0,0.0,0.0,0.0,0.0,0.0,0.0,0.0,0.0,0.0,0.0,0.0,0.0,0.0,-3.3078,-3.3587,-3.378,-3.3868,-3.3895,-3.3998,-3.4049,-3.403,-3.4074,-3.4074,0.0,0.0,0.0,0.0,0.0,0.0,0.0,0.0,0.0,0.0,0.0,0.0,0.0,0.0,0.0,0.0,0.0,0.0,0.0,0.0,0.0,0.0,0.0,0.0,0.0,0.0,0.0,0.0,0.0,0.0,0.0,0.0,0.0,0.0,0.0,0.0,0.0,0.0,0.0,0.0,0.0,0.0,-3.3175,-3.2919,0.0,0.0,0.0,-3.1122,-3.2124,0.0,0.0,0.0,0.0,0.0,0.0,0.0,0.0,0.0,0.0,0.0,0.0,0.0,0.0,0.0,0.0,0.0,0.0,0.0,0.0,0.0,0.0,0.0,0.0,0.0,0.0,0.0,0.0,0.0,0.0,0.0,0.0,0.0,0.0,0.0,0.0,0.0,0.0,0.0,0.0,0.0,0.0,0.0,0.0,0.0,0.0,0.0,0.0,0.0,0.0,0.0,0.0,0.0,0.0,0.0,0.0,0.0,-3.3577,-3.3698,-3.3807,-3.386,-3.3921,-3.3947,-3.3921,-3.3947,0.0,0.0,0.0,0.0,0.0,0.0,0.0,0.0,0.0,0.0,0.0,0.0,0.0,0.0,0.0,0.0,0.0,0.0,0.0,0.0,0.0,0.0,0.0,0.0,0.0,0.0,0.0,-3.1983,0.0,0.0,0.0,0.0,0.0,0.0,0.0,0.0,0.0,0.0,0.0,0.0,0.0,0.0,-3.3771,-3.3813,-3.3716,-3.3634,0.0,0.0,-3.2058,-3.322,-3.35,-3.3565,0.0,0.0,0.0,0.0,0.0,0.0,0.0,0.0,0.0,0.0,0.0,0.0,0.0,0.0,0.0,0.0,0.0,0.0,0.0,0.0,0.0,0.0,0.0,0.0,0.0,0.0,0.0,0.0,0.0,0.0,0.0,0.0,0.0,0.0,0.0,0.0,0.0,0.0,0.0,0.0,0.0,0.0,0.0,0.0,0.0,0.0,0.0,0.0,0.0,0.0,0.0,0.0,0.0,0.0,0.0,-3.3509,-3.3643,-3.3698,-3.3698,-3.378,-3.378,-3.3726,-3.378,-3.3762,0.0,0.0,0.0,0.0,0.0,0.0,0.0,0.0,0.0,0.0,0.0,0.0,0.0,0.0,0.0,0.0,0.0,0.0,0.0,0.0,0.0,0.0,0.0,0.0,0.0,0.0,0.0,0.0,0.0,0.0,0.0,0.0,0.0,0.0,0.0,0.0,0.0,0.0,0.0,0.0,0.0,-3.5524,-3.5534,-3.495,-3.4505,0.0,0.0,-3.3843,-3.3453,-3.3832,-3.3992,-3.3473,0.0,0.0,0.0,0.0,0.0,0.0,0.0,0.0,0.0,0.0,0.0,0.0,0.0,0.0,0.0,0.0,0.0,0.0,0.0,0.0,0.0,0.0,0.0,0.0,0.0,0.0,0.0,0.0,0.0,0.0,0.0,0.0,0.0,0.0,0.0,0.0,0.0,0.0,0.0,0.0,0.0,0.0,0.0,0.0,0.0,0.0,0.0,0.0,0.0,0.0,0.0,0.0,0.0,-3.3274,-3.3452,-3.3538,-3.3605,-3.3615,-3.3671,-3.3671,-3.3643,-3.3661,-3.3671,0.0,0.0,0.0,0.0,0.0,0.0,0.0,0.0,0.0,0.0,0.0,0.0,0.0,0.0,0.0,0.0,0.0,0.0,0.0,0.0,0.0,0.0,0.0,0.0,0.0,0.0,0.0,0.0,-3.3915,-3.4158,-3.4586,0.0,0.0,0.0,0.0,0.0,0.0,0.0,0.0,0.0,0.0,-3.5657,-3.5699,-3.5493,0.0,0.0,-3.5295,-3.5168,-3.4978,-3.5115,-3.5182,-3.503,-3.4967,0.0,0.0,0.0,0.0,0.0,0.0,0.0,0.0,0.0,0.0,0.0,0.0,0.0,0.0,0.0,0.0,0.0,0.0,0.0,0.0,0.0,0.0,0.0,0.0,0.0,0.0,0.0,0.0,0.0,0.0,0.0,0.0,0.0,0.0,0.0,0.0,0.0,0.0,0.0,0.0,0.0,0.0,0.0,0.0,0.0,0.0,0.0,0.0,0.0,0.0,0.0,0.0,-3.3183,-3.3364,-3.3422,-3.3462,-3.3549,-3.3549,-3.352,-3.3444,-3.3444,-3.3473,0.0,0.0,0.0,0.0,0.0,0.0,0.0,0.0,0.0,0.0,0.0,0.0,0.0,0.0,0.0,0.0,0.0,0.0,0.0,0.0,0.0,0.0,0.0,0.0,0.0,0.0,0.0,0.0,-3.434,-3.4517,-3.4708,0.0,0.0,0.0,0.0,0.0,0.0,0.0,0.0,0.0,0.0,-3.5615,-3.5659,-3.5736,-3.5799,-3.5795,-3.5866,-3.5883,-3.5889,-3.589,-3.5923,-3.5986,0.0,0.0,0.0,0.0,0.0,0.0,0.0,0.0,0.0,0.0,0.0,0.0,0.0,0.0,0.0,0.0,0.0,0.0,0.0,0.0,0.0,0.0,0.0,0.0,0.0,0.0,0.0,0.0,0.0,0.0,0.0,0.0,0.0,0.0,0.0,0.0,0.0,0.0,0.0,0.0,0.0,0.0,0.0,0.0,0.0,0.0,0.0,0.0,0.0,0.0,0.0,0.0,0.0,-3.3091,-3.3292,-3.3382,-3.3393,-3.3393,-3.3393,-3.3286,-3.3117,-3.3117,-3.3165,-3.331,0.0,0.0,0.0,0.0,0.0,0.0,0.0,0.0,0.0,0.0,0.0,0.0,0.0,0.0,0.0,0.0,0.0,0.0,0.0,0.0,0.0,0.0,0.0,0.0,0.0,0.0,-3.4293,-3.4409,-3.458,0.0,0.0,0.0,0.0,0.0,0.0,0.0,0.0,0.0,0.0,-3.5546,-3.5607,-3.5607,-3.5718,-3.5791,-3.5799,-3.5864,-3.5885,-3.5883,-3.588,-3.5914,0.0,0.0,0.0,0.0,0.0,0.0,0.0,0.0,0.0,0.0,0.0,0.0,0.0,0.0,0.0,0.0,0.0,0.0,0.0,0.0,0.0,0.0,0.0,0.0,0.0,0.0,0.0,-3.2635,-3.2692,0.0,0.0,0.0,0.0,0.0,0.0,0.0,0.0,0.0,0.0,0.0,-3.3298,-3.3256,0.0,0.0,0.0,0.0,0.0,0.0,0.0,0.0,0.0,0.0,0.0,0.0,-3.3011,-3.3091,-3.3183,-3.3196,-3.3196,-3.3196,-3.3147,-3.3135,-3.3104,-3.3117,-3.3183,0.0,0.0,0.0,0.0,0.0,0.0,0.0,0.0,0.0,0.0,0.0,0.0,0.0,0.0,0.0,0.0,0.0,0.0,0.0,0.0,0.0,0.0,0.0,0.0,0.0,-3.4173,0.0,0.0,0.0,0.0,0.0,0.0,0.0,0.0,0.0,0.0,0.0,-3.5383,-3.5493,-3.5547,-3.562,-3.5626,-3.5679,-3.5747,0.0,0.0,0.0,0.0,0.0,0.0,0.0,0.0,0.0,0.0,0.0,0.0,0.0,0.0,-3.4987,-3.4947,-3.4903,-3.4885,-3.4807,0.0,0.0,0.0,0.0,0.0,0.0,0.0,0.0,0.0,0.0,0.0,0.0,0.0,0.0,0.0,0.0,-3.3577,0.0,0.0,0.0,0.0,0.0,0.0,0.0,0.0,-3.3509,-3.3444,-3.3343,-3.3404,-3.3256,0.0,-3.2979,-3.282,0.0,0.0,0.0,0.0,0.0,0.0,0.0,0.0,-3.3104,-3.3405,-3.3454,-3.358,-3.3831,-3.3849,-3.3799,-3.3734,-3.3799,-3.3849,-3.3898,-3.3912,-3.3921,0.0,0.0,0.0,0.0,0.0,0.0,0.0,0.0,0.0,0.0,0.0,0.0,0.0,0.0,0.0,0.0,0.0,0.0,0.0,0.0,0.0,0.0,0.0,-3.4269,0.0,0.0,0.0,0.0,0.0,0.0,0.0,0.0,0.0,-3.5176,-3.5254,-3.533,-3.5432,-3.5541,-3.5616,-3.5612,0.0,0.0,0.0,0.0,0.0,0.0,0.0,-3.5891,-3.5889,-3.5889,-3.5889,-3.5889,-3.5883,-3.5897,-3.5889,0.0,0.0,-3.5807,-3.5793,-3.5766,-3.5708,-3.5657,-3.562,-3.5604,-3.5554,-3.5495,0.0,0.0,0.0,0.0,0.0,0.0,0.0,0.0,-3.3262,-3.3382,0.0,-3.3577,0.0,0.0,0.0,0.0,0.0,0.0,0.0,0.0,-3.3509,-3.3465,-3.3413,-3.3397,-3.3375,-3.3273,-3.3086,-3.2979,-3.2884,-3.2705,0.0,0.0,0.0,0.0,0.0,0.0,-3.3394,-3.4196,-3.4214,-3.4521,-3.5132,-3.5151,-3.5082,-3.4889,-3.5065,-3.522,-3.5375,-3.5406,-3.5439,-3.54,-3.5354,0.0,0.0,0.0,0.0,0.0,0.0,0.0,0.0,0.0,0.0,0.0,0.0,0.0,0.0,0.0,0.0,0.0,0.0,0.0,0.0,-3.4386,0.0,0.0,0.0,0.0,0.0,0.0,0.0,0.0,0.0,0.0,-3.5333,-3.5372,-3.5358,-3.5431,0.0,0.0,0.0,0.0,-3.5805,-3.5825,-3.5842,-3.5931,-3.5988,-3.5989,-3.6008,-3.6,0.0,0.0,-3.5986,-3.5986,-3.6025,-3.5986,-3.6014,-3.5911,-3.5826,-3.5791,-3.5765,-3.5716,-3.5695,-3.5693,-3.5616,-3.5554,-3.5501,-3.3335,0.0,0.0,0.0,0.0,-3.2802,-3.2916,-3.2979,-3.3201,-3.3352,-3.3422,-3.3491,0.0,0.0,0.0,0.0,0.0,0.0,-3.3577,-3.3509,-3.3509,-3.3447,-3.3395,-3.3455,-3.3415,-3.3273,-3.3147,-3.3024,-3.2948,-3.2884,-3.2737,-3.2606,0.0,0.0,0.0,0.0,-3.41,-3.4779,-3.4832,-3.4905,-3.4978,-3.4995,-3.496,-3.4925,-3.5048,-3.5136,-3.517,-3.5273,-3.5256,-3.5257,-3.5223,0.0,0.0,0.0,0.0,0.0,0.0,0.0,0.0,0.0,0.0,0.0,0.0,0.0,0.0,0.0,0.0,0.0,0.0,0.0,-3.5969,-3.6179,-3.6255,0.0,0.0,0.0,0.0,0.0,0.0,0.0,0.0,0.0,-3.6971,-3.6712,-3.6645,0.0,0.0,-3.7398,-3.7385,-3.7495,-3.754,-3.755,0.0,0.0,0.0,-3.7693,-3.7681,-3.7702,-3.7702,-3.7683,-3.7702,-3.7683,-3.7683,-3.7657,-3.7176,-3.6591,-3.5993,-3.5829,-3.5821,-3.5757,-3.5718,-3.5687,-3.5615,-3.5589,-3.5553,-3.3848,-3.3122,-3.323,-3.316,-3.2982,-3.3117,-3.309,-3.2916,-3.306,-3.3214,-3.3352,-3.3422,-3.3509,-3.3577,-3.3615,0.0,0.0,0.0,-3.3549,-3.3509,-3.3509,-3.3473,-3.3437,-3.38,-3.3912,-3.3828,-3.3957,-3.4038,-3.3992,-3.3877,-3.3728,-3.361,0.0,0.0,-3.4389,-3.4476,-3.4868,-3.5528,-3.5545,-3.5598,-3.5754,-3.5735,-3.5735,-3.5772,-3.5863,-3.5917,-3.5971,-3.6061,-3.6061,-3.6043,-3.6007,-3.6025,0.0,0.0,0.0,0.0,0.0,0.0,0.0,0.0,0.0,0.0,0.0,-3.4425,-3.4495,0.0,0.0,0.0,-3.5639,-3.6315,-3.6795,-3.6937,0.0,0.0,0.0,0.0,0.0,0.0,0.0,-3.7374,-3.8156,-3.8556,-3.8266,-3.8297,-3.8233,-3.7939,-3.8017,-3.808,-3.808,0.0,-3.8274,-3.8266,-3.8316,-3.8374,-3.8363,-3.8372,-3.8388,-3.84,-3.8388,-3.8388,-3.8388,-3.8388,-3.8388,-3.833,-3.796,-3.7257,-3.6121,-3.6382,-3.6556,-3.5939,-3.5757,-3.5728,-3.5667,-3.5615,-3.5593,-3.4389,-3.4389,-3.4565,-3.4261,-3.3599,-3.3706,-3.3509,-3.308,-3.308,-3.3208,-3.3442,-3.3533,-3.3622,-3.3709,-3.3759,0.0,0.0,-3.372,-3.3709,-3.3691,-3.3709,-3.3633,-3.3628,-3.4395,-3.4751,-3.4709,-3.5271,-3.5508,-3.5457,-3.5305,-3.5239,-3.5275,-3.4581,-3.4599,-3.5241,-3.5225,-3.5581,-3.6327,-3.6235,-3.6496,-3.7034,-3.7009,-3.7009,-3.7091,-3.7108,-3.7129,-3.7259,-3.7354,-3.7354,-3.7279,-3.7354,-3.7392,-3.7374,0.0,0.0,0.0,0.0,0.0,0.0,0.0,0.0,0.0,0.0,0.0,0.0,0.0,0.0,0.0,-3.6734,0.0,-3.7094,-3.7168,0.0,0.0,0.0,-3.7397,-3.7401,-3.7948,-3.8148,-3.7657,0.0,0.0,-3.922,0.0,-3.9838,-3.8312,-3.8224,-3.8292,-3.8292,-3.8421,-3.8392,-3.8504,-3.8485,-3.8537,-3.8666,-3.8685,-3.8732,-3.8755,-3.8587,-3.8685,-3.8712,-3.8692,-3.8626,-3.8688,-3.856,-3.8132,-3.6589,-3.7547,-3.7933,-3.6589,-3.6172,-3.6037,-3.6057,-3.5996,-3.5994,-3.5808,-3.5808,-3.5948,-3.531,-3.4279,-3.4372,-3.4411,-3.4499,-3.4601,-3.4735,-3.4921,-3.5015,-3.5173,-3.5345,-3.5345,-3.5345,-3.5327,-3.5345,-3.5284,-3.5253,-3.5271,-3.5266,-3.5242,-3.5452,-3.5535,-3.553,-3.562,-3.5591,-3.5526,-3.5393,-3.5629,-3.6096,-3.5883,-3.5865,-3.6025,-3.6025,-3.6271,-3.6823,-3.6823,-3.6833,-3.6891,-3.6869,-3.6891,-3.7009,-3.7087,-3.7091,-3.7147,-3.7241,-3.7334,-3.7297,-3.7203,-3.7241,-3.7334,-3.7334,0.0,0.0,0.0,0.0,0.0,0.0,0.0,0.0,0.0,-3.5994,-3.6065,0.0,-3.6398,0.0,-3.727,-3.8084,-3.8738,-3.8921,0.0,0.0,-3.9067,-3.9114,-3.91,-3.9286,-3.9435,-3.9447,-3.9869,-4.0119,-4.0003,-4.0227,-4.0279,-3.9925,-3.9927,-4.0024,-4.0005,-4.005,-4.0113,-4.0068,-4.0084,-4.0195,-4.0139,-4.0216,-4.0218,-4.0286,-4.0286,-4.0315,-4.0314,-4.0304,-4.0304,-4.0256,-3.979,-3.9489,-3.9587,-3.9072,-3.8848,-3.9344,-3.8646,-3.7696,-3.7686,-3.7635,-3.7622,-3.6191,-3.6276,-3.6335,-3.6,-3.5384,-3.5151,-3.4969,-3.4853,-3.5013,-3.517,-3.5307,-3.554,-3.567,-3.5765,-3.5833,-3.5864,-3.5864,-3.5864,-3.5833,-3.5802,-3.5802,-3.577,-3.572,-3.6082,-3.6219,-3.6211,-3.6443,-3.655,-3.6482,-3.6344,-3.6471,-3.6844,-3.6807,-3.6679,-3.6604,-3.6604,-3.6758,-3.697,-3.6908,-3.6846,-3.6766,-3.6748,-3.6788,-3.6891,-3.6952,-3.6992,-3.7031,-3.7164,-3.722,-3.7182,-3.7108,-3.7147,-3.7203,-3.7259,-3.7334,0.0,0.0,0.0,0.0,0.0,0.0,0.0,0.0,0.0,0.0,0.0,-3.7552,-3.7646,-3.8253,-3.8894,-3.938,-3.9502,-3.962,-3.962,-3.9674,-3.9708,-3.9717,-3.9785,-3.9911,-4.0077,-4.0096,-4.0176,-4.0289,-4.0342,-4.0432,-4.0502,-4.0527,-4.0573,-4.0588,-4.064,-4.0655,-4.0688,-4.0725,-4.0781,-4.0804,-4.0804,-4.0815,-4.0856,-4.0867,-4.0858,-4.0849,-4.0849,-4.0859,-4.0829,-4.048,-4.0325,-4.0761,-4.0189,-3.984,-4.0383,-4.0101,-3.9218,-3.8461,-3.8296,-3.8283,-3.6079,-3.6182,-3.6182,-3.6293,-3.6409,-3.5993,-3.5469,-3.4916,-3.5153,-3.5368,-3.5525,-3.5762,-3.5894,-3.5927,-3.6059,-3.6127,-3.6109,-3.6109,-3.6109,-3.6109,-3.6109,-3.6031,-3.5939,-3.66,-3.6928,-3.6881,-3.7417,-3.7721,-3.7685,-3.7503,-3.7429,-3.7392,-3.7334,-3.7182,-3.7027,-3.6987,-3.693,-3.693,-3.6748,-3.6643,-3.6643,-3.6702,-3.6725,-3.6788,-3.6788,-3.6869,-3.697,-3.7048,-3.7087,-3.7027,-3.7048,-3.7108,-3.7108,-3.7203,-3.7334,0.0,-3.7703,0.0,0.0,0.0,0.0,0.0,0.0,0.0,0.0,-3.8743,-3.8931,-3.9101,-3.9275,-3.9418,-3.9418,-3.952,-3.962,-3.962,-3.9679,-3.9693,-3.9702,-3.9807,-3.9954,-4.0077,-4.0096,-4.0157,-4.029,-4.0362,-4.0415,-4.0449,-4.0495,-4.0527,-4.0592,-4.0598,-4.064,-4.0706,-4.0687,-4.0726,-4.0776,-4.0788,-4.08,-4.0815,-4.0807,-4.0807,-4.0807,-4.0807,-4.0807,-4.0807,-4.0768,-4.0807,-4.0884,-4.0826,-4.0768,-4.0807,-4.071,-4.0245,-3.911,-3.8761,-3.8614,-3.6019,-3.6019,-3.6182,-3.6225,-3.6251,-3.6305,-3.6434,-3.6531,-3.6587,-3.6799,-3.7148,-3.738,-3.7502,-3.7551,-3.7688,-3.7739,-3.7739,-3.7739,-3.7739,-3.7739,-3.7739,-3.7672,-3.7569,-3.7695,-3.7735,-3.7702,-3.7792,-3.7775,-3.7613,-3.7577,-3.7466,-3.7352,-3.7203,-3.7069,-3.6987,0.0,0.0,0.0,-3.6444,-3.6461,-3.6544,-3.6544,-3.6585,-3.6725,-3.6766,0.0,-3.6829,-3.6948,-3.7027,-3.697,-3.7027,0.0,0.0,0.0,0.0,0.0,0.0,0.0,0.0,0.0,0.0,0.0,-3.8382,-3.8483,-3.8658,-3.8785,-3.8942,-3.9101,-3.9275,-3.9418,-3.9418,-3.952,-3.962,-3.962,-3.9679,-3.9689,-3.9712,-3.9823,-3.9954,-4.0096,-4.0096,-4.0157,-4.0272,-4.0327,-4.0325,-4.0342,-4.0449,-4.0499,-4.0515,-4.0558,-4.0622,-4.0636,-4.0679,-4.0713,-4.0803,-4.0803,-4.0796,-4.08,-4.08,-4.0792,-4.0796,-4.0807,-4.0807,-4.0807,-4.0807,-4.0796,-4.0831,-4.0804,-4.0796,-4.0812,-4.0804,-4.0699,-4.0386,-4.0316,-4.0316,-3.6968,0.0,-3.7069,-3.7131,0.0,-3.7369,-3.7568,-3.7746,-3.7241,-3.722,-3.7503,-3.7721,-3.7846,-3.7951,-3.8054,-3.814,-3.8192,-3.8192,-3.8192,-3.8192,-3.8192,-3.8106,-3.7951,-3.7951,-3.7881,-3.7739,-3.7703,-3.7594,-3.7503,-3.7392,-3.7317,-3.7203,-3.7126,-3.697,-3.6846,-3.6609,-3.6461,-3.6402,-3.636,-3.636,-3.6402,-3.6402,-3.6444,-3.6602,0.0,0.0,0.0,0.0,0.0,0.0,0.0,0.0,0.0,0.0,0.0,-3.7297,-3.7631,-3.7846,-3.7899,-3.809,-3.8274,-3.8401,-3.8496,-3.8609,-3.878,-3.8873,-3.897,-3.9101,-3.9275,-3.9418,-3.9418,-3.9502,-3.9602,-3.965,-3.9684,-3.9712,-3.9762,-3.9848,-3.9933,-4.0036,-4.0077,-4.0137,-4.0234,-4.029,-4.0307,-4.0307,-4.0379,-4.0449,-4.0482,-4.0546,-4.0558,-4.0588,-4.0679,-4.07,-4.0784,-4.081,-4.0803,-4.0796,-4.0796,-4.0808,-4.08,-4.08,-4.08,-4.08,-4.08,-4.08,-4.0808,-4.0808,-4.08,-4.0808,-4.0808,-4.08,-4.0796,-4.0808,-4.0808,-3.7919,-3.798,-3.801,-3.804,-3.8167,-3.8305,-3.8476,-3.8543,0.0,0.0,0.0,-3.7593,-3.7739,-3.7846,-3.7967,-3.807,-3.8174,-3.8174,-3.8192,-3.8192,-3.8192,-3.8072,-3.7917,-3.7917,-3.7775,-3.7594,-3.7466,-3.7374,-3.7392,-3.7185,-3.7108,-3.7069,-3.7009,-3.6886,-3.6702,-3.6444,-3.6284,-3.6284,-3.6284,-3.6284,-3.6284,-3.6284,-3.6343,-3.6444,-3.6585,-3.6684,-3.6748,-3.6869,-3.6908,-3.6788,-3.6908,-3.6908,-3.6811,-3.6992,-3.7147,-3.7297,-3.7522,-3.7757,-3.7917,-3.809,-3.8223,-3.8382,-3.8578,-3.8768,-3.891,-3.8902,-3.897,-3.9101,-3.9275,-3.9391,-3.9418,-3.952,-3.9602,-3.9674,-3.9684,-3.9717,-3.9769,-3.9851,-3.9933,-3.9996,-4.0076,-4.0137,-4.0196,-4.0253,-4.0308,-4.0308,-4.0344,-4.0415,-4.0482,-4.0511,-4.0523,-4.0569,-4.0631,-4.0693,-4.0745,-4.0784,-4.0778,-4.0778,-4.079,-4.079,-4.079,-4.079,-4.079,-4.0803,-4.079,-4.0803,-4.079,-4.0803,-4.079,-4.079,-4.079,-4.079,-4.079,-4.0815,-4.0796,-3.7922,-3.7936,-3.798,-3.7993,-3.8057,-3.8167,-3.8368,-3.8543,-3.8117,-3.7715,-3.7352,-3.7521,-3.7667,-3.7739,-3.7915,-3.8018,-3.8036,-3.814,-3.8192,0.0,-3.8192,-3.809,-3.7917,-3.7917,-3.7775,-3.7594,-3.7466,-3.7354,-3.7297,-3.7164,-3.7069,-3.7009,-3.7027,-3.6908,-3.6684,-3.6444,-3.6284,-3.6284,-3.6284,-3.6284,-3.6284,-3.6284,-3.6301,-3.636,-3.6444,-3.6544,-3.6544,-3.6684,-3.6725,-3.6742,-3.6725,-3.6766,-3.6788,-3.693,-3.7105,-3.7297,-3.7521,-3.7703,-3.7881,-3.7985,-3.8119,-3.8382,-3.8578,-3.875,-3.8881,-3.8902,-3.897,-3.9101,-3.9202,-3.9301,-3.9373,-3.9469,-3.9546,-3.962,-3.9679,-3.9712,-3.9735,-3.9845,-3.9933,-3.9996,-4.0057,-4.0137,-4.0176,-4.0272,-4.0291,-4.031,-4.0308,-4.0362,-4.0466,-4.0511,-4.0504,-4.0515,-4.0569,-4.0617,-4.0646,-4.0687,-4.072,-4.072,-4.0759,-4.079,-4.079,-4.079,-4.079,-4.079,-4.079,-4.079,-4.079,-4.079,-4.079,-4.079,-4.079,-4.079,-4.079,-4.0803,-4.0803,-3.8908,-3.8991,-3.9023,-3.9105,-3.9137,-3.933,-3.9363,-3.9215,-3.9128,-3.8839,-3.843,-3.8673,-3.8576,-3.8275,-3.842,-3.8294,-3.7951,-3.8036,-3.8054,-3.8038,-3.8106,-3.7967,-3.781,-3.7792,-3.7721,-3.7594,-3.7447,-3.7334,-3.7297,-3.7126,-3.7009,-3.697,-3.6869,-3.6806,-3.6702,-3.6444,-3.6284,-3.6284,-3.6284,-3.6284,-3.6284,-3.6284,-3.6284,-3.6284,-3.6444,-3.6502,-3.6502,-3.6643,-3.6643,-3.6602,-3.6643,-3.6702,-3.6766,-3.6829,-3.7027,-3.7259,-3.7447,-3.7631,-3.7864,-3.8104,-3.8252,-3.8401,-3.8578,-3.875,-3.891,-3.8892,-3.896,-3.9101,-3.9156,-3.9275,-3.9391,-3.9469,-3.9564,-3.9626,-3.9679,-3.9712,-3.9758,-3.9826,-3.9911,-3.9933,-3.9996,-4.0077,-4.0137,-4.0176,-4.0215,-4.0253,-4.0234,-4.0307,-4.0432,-4.0463,-4.0492,-4.0519,-4.0554,-4.0588,-4.0598,-4.0607,-4.0654,-4.0654,-4.0668,-4.07,-4.0733,-4.0746,-4.0778,-4.079,-4.079,-4.079,-4.079,-4.079,-4.079,-4.079,-4.079,-4.079,-4.079,-4.079,-4.079,-3.9781,-3.9833,-3.9849,-3.9952,-4.007,-4.0337,-4.0192,-3.9856,-4.0057,-3.9928,-3.9678,-3.967,-3.9398,-3.8963,-3.9042,-3.8832,-3.8403,-3.8455,-3.8383,-3.8186,-3.8203,-3.8078,-3.7703,-3.7685,-3.7649,-3.754,-3.7372,-3.7297,-3.7259,-3.7048,-3.697,-3.6948,-3.6766,-3.6684,-3.6643,-3.6402,-3.6284,-3.6284,-3.6284,-3.6284,-3.6284,-3.6284,-3.6284,-3.6284,-3.6385,-3.6461,-3.6444,-3.6561,-3.6561,-3.6444,-3.6544,-3.6643,-3.6684,-3.6766,-3.6948,-3.7259,-3.7354,-3.7558,-3.7864,-3.8171,-3.8401,-3.8382,-3.8546,-3.8701,-3.8851,-3.8892,-3.8931,-3.9092,-3.9156,-3.9229,-3.9373,-3.9444,-3.952,-3.9688,-3.9703,-3.9731,-3.9762,-3.9867,-3.9889,-3.9911,-3.9935,-4.0036,-4.0076,-4.0096,-4.0137,-4.0196,-4.0196,-4.0252,-4.0379,-4.0449,-4.0499,-4.0527,-4.0558,-4.0573,-4.0573,-4.0583,-4.0612,-4.0593,-4.0588,-4.0621,-4.0668,-4.0687,-4.0733,-4.0778,-4.079,-4.079,-4.079,-4.079,-4.079,-4.079,-4.079,-4.079,-4.079,-4.079,-4.079,-3.9729,-3.9729,-3.9729,-3.9781,-3.9952,-4.0205,-4.0303,-4.0285,-4.0642,-4.0767,-4.0631,-3.9763,-3.9431,-3.9545,-3.9729,-3.9718,-3.9667,-3.991,-3.9607,-3.9031,-3.8996,-3.8546,-3.7829,-3.7739,-3.7595,-3.7482,-3.7405,-3.74,-3.7249,-3.7101,-3.6948,-3.6811,-3.6725,-3.6643,-3.6502,-3.6385,-3.6284,-3.6284,-3.6284,-3.6284,-3.6284,-3.6284,-3.6284,-3.6284,-3.6301,-3.6301,-3.6343,-3.6343,-3.6343,-3.6301,-3.6343,-3.6444,-3.6661,-3.6702,-3.6886,-3.7259,-3.7314,-3.7484,-3.7882,-3.8156,-3.8354,-3.8401,-3.8478,-3.8621,-3.8792,-3.8881,-3.895,-3.9073,-3.9082,-3.9202,-3.9391,-3.9418,-3.9451,-3.9596,-3.9679,-3.9708,-3.9712,-3.9823,-3.9889,-3.9889,-3.9954,-3.9996,-4.0017,-4.0057,-4.0117,-4.0195,-4.0177,-4.0234,-4.0362,-4.0432,-4.0499,-4.0492,-4.0523,-4.0523,-4.0504,-4.0573,-4.0569,-4.0569,-4.0579,-4.0607,-4.0621,-4.0654,-4.072,-4.0733,-4.0778,-4.079,-4.079,-4.079,-4.079,-4.079,-4.079,-4.079,-4.079,-4.079,-4.079,-3.952,-3.959,-3.959,-3.9694,-3.9901,-4.0087,-4.0238,-4.0355,-4.0536,-4.0731,-4.0836,-4.0429,-4.0165,-4.0098,-4.0247,-4.0099,-3.9736,-3.9875,-3.9753,-3.9429,-3.945,-3.9233,-3.8872,-3.8836,-3.8759,-3.8699,-3.8638,-3.8558,-3.843,-3.79,-3.7551,-3.7458,-3.6911,-3.6561,-3.6502,-3.6343,-3.6284,-3.6284,-3.6284,-3.6284,-3.6284,-3.6284,-3.6284,-3.6284,-3.6284,-3.6284,-3.6284,-3.6284,-3.6284,-3.6284,-3.6284,-3.6402,-3.6702,-3.6719,-3.6886,-3.7276,-3.7539,-3.7721,-3.7899,-3.814,-3.8322,-3.8382,-3.8478,-3.8572,-3.8773,-3.8862,-3.8968,-3.9036,-3.9073,-3.9175,-3.9275,-3.9346,-3.9444,-3.9527,-3.9626,-3.9703,-3.9708,-3.98,-3.9848,-3.9889,-3.9933,-3.9935,-3.9958,-3.9998,-4.0057,-4.0117,-4.0138,-4.0196,-4.0328,-4.0398,-4.0449,-4.0479,-4.0492,-4.0489,-4.0504,-4.0523,-4.0539,-4.0539,-4.0534,-4.0549,-4.0598,-4.0607,-4.0654,-4.072,-4.0765,-4.081,-4.079,-4.079,-4.079,-4.079,-4.079,-4.079,-4.079,-4.079,-4.079,-3.9624,-3.9714,-3.9601,-3.959,-3.9798,-3.9935,-4.0087,-4.0188,-4.0339,-4.0554,-4.0745,-4.0793,-4.0718,-4.0595,-4.0762,-4.0616,-4.0206,-4.0294,-4.017,-3.9952,-3.9997,-3.9851,-3.9651,-3.9615,-3.9575,-3.9575,-3.9494,-3.947,-3.9317,-3.8719,-3.8192,-3.7829,-3.7158,-3.6693,-3.6478,-3.6343,-3.6301,-3.6259,-3.6251,-3.6251,-3.6216,-3.6216,-3.6259,-3.6284,-3.6284,-3.6284,-3.6284,-3.6284,-3.6284,-3.6284,-3.6284,-3.6402,-3.6702,-3.6719,-3.6886,-3.7259,-3.7631,-3.7864,-3.7899,-3.8106,-3.8256,-3.8368,-3.8415,-3.8541,-3.8713,-3.8833,-3.8921,-3.8968,-3.9064,-3.9129,-3.9183,-3.9301,-3.9418,-3.9495,-3.962,-3.9698,-3.9703,-3.9758,-3.9807,-3.9848,-3.9889,-3.9892,-3.9897,-3.9937,-3.9994,-4.0055,-4.0096,-4.0118,-4.0253,-4.0326,-4.0432,-4.0502,-4.0511,-4.0489,-4.0489,-4.0489,-4.0489,-4.0489,-4.0504,-4.0539,-4.0588,-4.0579,-4.0621,-4.07,-4.0765,-4.081,-4.079,-4.079,-4.0803,-4.079,-4.0803,-4.0803,-4.0815,-4.0803,-4.0815,-4.0332,-4.0287,-3.9764,-3.9568,-3.9571,-3.9728,-3.9798,-3.9952,-4.0087,-4.0188,-4.0355,-4.0617,-4.0793,-4.0861,-4.1258,-4.1516,-4.149,-4.1629,-4.1343,-4.0742,-4.0748,-4.0341,-3.9651,-3.9615,-3.9587,-3.9682,-3.9658,-3.9504,-3.9248,-3.9083,-3.8554,-3.7723,-3.7559,-3.7136,-3.6498,-3.6335,-3.6276,-3.6208,-3.6208,-3.6148,-3.6019,-3.6019,-3.6088,-3.6241,-3.6284,-3.6284,-3.6284,-3.6284,-3.6284,-3.6284,-3.6284,-3.6402,-3.6661,-3.6702,-3.6886,-3.7259,-3.7577,-3.7757,-3.7899,-3.7967,-3.8104,-3.8289,-3.835,-3.8446,-3.8541,-3.8743,-3.8862,-3.891,-3.8989,-3.9101,-3.9183,-3.9301,-3.9418,-3.9495,-3.962,-3.9693,-3.9717,-3.9758,-3.9788,-3.9826,-3.9867,-3.9892,-3.9892,-3.9892,-3.9933,-4.0015,-4.0076,-4.0118,-4.0196,-4.0326,-4.0415,-4.0466,-4.0495,-4.0489,-4.0489,-4.0489,-4.0489,-4.0489,-4.0523,-4.0523,-4.0569,-4.0598,-4.064,-4.07,-4.0765,-4.081,-4.079,-4.0803,-4.0803,-4.0803,-4.0815,-4.0796,-4.08,-4.08,-4.08,-4.0811,-4.0778,-4.0668,-4.0398,-4.0076,-4.0184,-4.0077,-3.9815,-3.9901,-4.0037,-4.0188,-4.0453,-4.0648,-4.0793,-4.1123,-4.129,-4.138,-4.1515,-4.1464,-4.12,-4.127,-4.1129,-4.0797,-4.0762,-4.0718,-4.0613,-4.0569,-4.0525,-4.0349,-3.9921,-3.9467,-3.8945,-3.8009,-3.7344,-3.7008,-3.6525,-3.6224,-3.6182,-3.6103,-3.6059,-3.5993,-3.6036,-3.6019,-3.6105,-3.6088,-3.6088,-3.6088,-3.6208,-3.6233,-3.6251,-3.6276,-3.6402,-3.6544,-3.6806,-3.7044,-3.7259,-3.7521,-3.7721,-3.7881,-3.7967,-3.8104,-3.8256,-3.8368,-3.8415,-3.851,-3.8713,-3.8833,-3.8833,-3.8921,-3.9007,-3.9092,-3.9202,-3.9301,-3.9425,-3.9502,-3.962,-3.9674,-3.9727,-3.9773,-3.9819,-3.9886,-3.9889,-3.9889,-3.9889,-3.993,-3.9989,-4.0055,-4.0137,-4.0196,-4.0327,-4.0415,-4.0432,-4.046,-4.0489,-4.0489,-4.0489,-4.0489,-4.0489,-4.0504,-4.0539,-4.0569,-4.0612,-4.064,-4.07,-4.0778,-4.0803,-4.0815,-4.0839,-4.082,-4.0812,-4.0812,-4.0812,-4.0804,-4.0804,-4.0815,-4.1229,-4.1033,-4.1074,-4.0893,-4.0562,-4.0713,-4.0463,-3.9957,-4.0046,-4.0068,-4.0071,-4.0288,-4.0485,-4.0648,-4.0858,-4.1029,-4.1134,-4.1272,-4.13,-4.1363,-4.1408,-4.1408,-4.1363,-4.1318,-4.13,-4.1192,-4.1209,-4.1226,-4.1082,-4.0585,-4.0112,-3.9675,-3.8439,-3.7637,-3.73,-3.656,-3.6139,-3.607,-3.597,-3.5909,-3.5861,-3.5844,-3.5888,-3.5888,-3.5888,-3.5932,-3.5975,-3.6062,-3.6165,-3.6225,-3.6233,-3.6377,-3.6544,-3.6829,-3.7105,-3.7297,-3.7429,-3.7667,-3.7864,-3.7933,-3.8036,-3.8241,-3.8336,-3.8415,-3.846,-3.8683,-3.8773,-3.8822,-3.8851,-3.8939,-3.8979,-3.9092,-3.9221,-3.9373,-3.9451,-3.9552,-3.965,-3.9674,-3.9746,-3.9819,-3.9886,-3.9889,-3.9889,-3.9889,-3.993,-3.9987,-4.0053,-4.0117,-4.0176,-4.0291,-4.0417,-4.0415,-4.046,-4.0489,-4.0489,-4.0489,-4.0489,-4.0489,-4.0539,-4.0554,-4.0583,-4.0593,-4.0654,-4.0713,-4.0759,-4.0796,-4.0831,-4.0854,-4.0846,-4.0807,-4.0807,-4.0796,-4.0807,-4.0818,-4.0828,-4.1596,-4.1138,-4.1007,-4.1114,-4.1016,-4.1173,-4.0859,-4.0398,-4.0479,-4.0311,-4.0086,-4.0054,-4.0288,-4.0485,-4.0697,-4.0793,-4.0918,-4.1134,-4.1226,-4.1209,-4.1209,-4.1209,-4.1226,-4.1209,-4.1163,-4.1163,-4.1163,-4.1134,-4.1012,-4.0926,-4.044,-3.9593,-3.874,-3.7922,-3.7154,-3.6473,-3.5924,-3.5878,-3.5813,-3.5768,-3.5639,-3.5639,-3.5622,-3.5622,-3.5622,-3.5756,-3.5975,-3.5975,-3.6062,-3.6182,-3.6208,-3.6353,-3.6661,-3.6869,-3.7087,-3.7259,-3.7354,-3.7577,-3.7864,-3.7899,-3.8003,-3.8192,-3.8303,-3.8382,-3.8446,-3.8621,-3.8773,-3.8792,-3.8851,-3.891,-3.895,-3.9026,-3.9138,-3.9346,-3.9439,-3.9514,-3.9583,-3.965,-3.9727,-3.98,-3.9867,-3.9889,-3.9889,-3.9889,-3.9889,-3.9911,-4.0015,-4.0117,-4.0137,-4.0272,-4.0382,-4.0415,-4.0444,-4.0489,-4.0489,-4.0489,-4.0489,-4.0504,-4.0554,-4.0588,-4.0612,-4.0621,-4.07,-4.0759,-4.0776,-4.0812,-4.0834,-4.0856,-4.0848,-4.0828,-4.0818,-4.0828,-4.0839,-4.0868,-4.0878,-4.2164,-4.1986,-4.2248,-4.1999,-4.1575,-4.1704,-4.1395,-4.0892,-4.0564,-4.0417,-4.0433,-4.0205,-4.0238,-4.0485,-4.0648,-4.0793,-4.0888,-4.0948,-4.1059,-4.1105,-4.1163,-4.1198,-4.1169,-4.1123,-4.1012,-4.0871,-4.0871,-4.0776,-4.0745,-4.068,-4.0477,-4.0035,-3.8858,-3.8174,-3.7786,-3.658,-3.5827,-3.5817,-3.5701,-3.5656,-3.5639,-3.5639,-3.5639,-3.5639,-3.5639,-3.5667,-3.5711,-3.58,-3.5949,-3.6062,-3.6165,-3.6353,-3.6661,-3.6869,-3.7105,-3.7241,-3.7354,-3.7558,-3.7828,-3.7917,-3.7987,-3.8192,-3.8289,-3.8336,-3.8382,-3.851,-3.864,-3.8719,-3.875,-3.8792,-3.8855,-3.8902,-3.9082,-3.9365,-3.9406,-3.9483,-3.9577,-3.9618,-3.967,-3.9735,-3.9845,-3.9889,-3.987,-3.987,-3.9911,-3.9911,-3.9996,-4.0098,-4.0118,-4.0272,-4.04,-4.0415,-4.0444,-4.0489,-4.0489,-4.0489,-4.0523,-4.0539,-4.0554,-4.0583,-4.0607,-4.0668,-4.0746,-4.0784,-4.08,-4.0815,-4.0848,-4.0858,-4.0849,-4.0859,-4.0859,-4.0869,-4.0888,-4.0898,-4.0898,-4.2318,-4.2445,-4.2634,-4.2515,-4.2109,-4.226,-4.2015,-4.1444,-4.0875,-4.0707,-4.0682,-4.0204,-4.0138,-4.0387,-4.0551,-4.0697,-4.084,-4.0888,-4.0935,-4.1029,-4.1059,-4.1059,-4.1047,-4.0953,-4.0858,-4.0697,-4.0648,-4.06,-4.0485,-4.0485,-4.0468,-4.018,-3.8935,-3.8138,-3.7955,-3.6537,-3.5711,-3.5728,-3.5622,-3.5639,-3.5639,-3.5639,-3.5639,-3.5639,-3.5639,-3.5639,-3.5639,-3.5684,-3.58,-3.5975,-3.6208,-3.6419,-3.6684,-3.6869,-3.7087,-3.7259,-3.741,-3.754,-3.7828,-3.7917,-3.7969,-3.814,-3.8274,-3.8322,-3.8401,-3.8478,-3.8541,-3.8658,-3.8707,-3.8732,-3.8826,-3.8873,-3.9036,-3.9275,-3.9373,-3.9469,-3.9577,-3.9623,-3.9651,-3.9693,-3.9804,-3.987,-3.987,-3.9933,-3.9933,-3.9954,-4.0057,-4.0137,-4.0176,-4.0291,-4.0364,-4.0415,-4.046,-4.0473,-4.0489,-4.0523,-4.0523,-4.0554,-4.0583,-4.0579,-4.0588,-4.0681,-4.0778,-4.08,-4.0815,-4.0848,-4.0878,-4.0888,-4.0878,-4.0888,-4.0888,-4.0907,-4.0898,-4.0898,-4.0907,-4.219,-4.2381,-4.2381,-4.2492,-4.2585,-4.271,-4.2505,-4.2032,-4.1362,-4.1028,-4.0779,-4.0098,-3.9935,-4.0288,-4.0485,-4.06,-4.0697,-4.0823,-4.0871,-4.0935,-4.0918,-4.0935,-4.0888,-4.0793,-4.0697,-4.0648,-4.0551,-4.0485,-4.0419,-4.0419,-4.0436,-4.0135,-3.886,-3.8031,-3.7648,-3.6383,-3.5622,-3.5622,-3.5622,-3.5639,-3.5639,-3.5639,-3.5639,-3.5639,-3.5639,-3.5639,-3.5622,-3.5667,-3.5756,-3.5975,-3.6335,-3.6544,-3.6725,-3.6908,-3.7105,-3.7297,-3.7372,-3.7594,-3.7828,-3.7917,-3.7969,-3.8192,-3.8241,-3.8322,-3.8401,-3.8446,-3.8541,-3.8658,-3.8707,-3.875,-3.8881,-3.891,-3.9007,-3.9202,-3.9328,-3.9469,-3.9596,-3.9623,-3.9651,-3.9712,-3.9804,-3.9889,-3.9911,-3.9973,-3.9975,-4.0017,-4.0118,-4.0176,-4.0215,-4.0291,-4.0382,-4.0432,-4.046,-4.0473,-4.0489,-4.0539,-4.0558,-4.0573,-4.0617,-4.0626,-4.0635,-4.0726,-4.0784,-4.0823,-4.0848,-4.0868,-4.0888,-4.0898,-4.0888,-4.0888,-4.0888,-4.0888,-4.0888,-4.0888,-4.0849,-4.1963,-4.2012,-4.2334,-4.2445,-4.2445,-4.2634,-4.2707,-4.2654,-4.1508,-4.1229,-4.1243,-4.023,-3.9935,-4.0305,-4.0436,-4.0583,-4.0697,-4.084,-4.0871,-4.0871,-4.0871,-4.084,-4.0745,-4.0697,-4.06,-4.0453,-4.0387,-4.0288,-4.0238,-4.0221,-4.0188,-4.007,-3.8698,-3.7953,-3.7669,-3.6383,-3.569,-3.5639,-3.5639,-3.5639,-3.5639,-3.5639,-3.5639,-3.5639,-3.5639,-3.5639,-3.5622,-3.58,-3.5922,-3.6017,-3.6429,-3.6684,-3.6713,-3.7009,-3.722,-3.7297,-3.7466,-3.7631,-3.7828,-3.7899,-3.8003,-3.8158,-3.8225,-3.8256,-3.8382,-3.8415,-3.8496,-3.8658,-3.8707,-3.8768,-3.8936,-3.8929,-3.9036,-3.9293,-3.9399,-3.9495,-3.9577,-3.9618,-3.9632,-3.9693,-3.9804,-3.9911,-3.9954,-3.9996,-4.0017,-4.0058,-4.0138,-4.0196,-4.0253,-4.0327,-4.0417,-4.0466,-4.0495,-4.0492,-4.0523,-4.0558,-4.0592,-4.0607,-4.0631,-4.0687,-4.0713,-4.0752,-4.0788,-4.0796,-4.0848,-4.0898,-4.0898,-4.0888,-4.0888,-4.0888,-4.0888,-4.0888,-4.0888,-4.0888,-4.081,-4.1767,-4.1898,-4.219,-4.2318,-4.2445,-4.2555,-4.2821,-4.2774,-4.1671,-4.1378,-4.1476,-4.0347,-3.9884,-4.0188,-4.0436,-4.0551,-4.0648,-4.0823,-4.0871,-4.0888,-4.084,-4.0793,-4.0697,-4.0648,-4.0485,-4.0288,-4.0238,-4.0188,-4.0138,-4.0087,-4.0087,-3.9817,-3.8616,-3.7939,-3.7804,-3.6434,-3.5639,-3.5639,-3.5639,-3.5639,-3.5639,-3.5639,-3.5639,-3.5639,-3.5622,-3.5622,-3.5711,-3.5905,-3.601,-3.6148,-3.6471,-3.6725,-3.6753,-3.7087,-3.7297,-3.7297,-3.7503,-3.7739,-3.7864,-3.7934,-3.802,-3.814,-3.8207,-3.8307,-3.8401,-3.8415,-3.8528,-3.8701,-3.8738,-3.8817,-3.8976,-3.8997,-3.9138,-3.9346,-3.9469,-3.9564,-3.9645,-3.9604,-3.9675,-3.9739,-3.9867,-3.9973,-4.0015,-4.0038,-4.0078,-4.0138,-4.0196,-4.0252,-4.0289,-4.0381,-4.0452,-4.0482,-4.0527,-4.0539,-4.0554,-4.0588,-4.0631,-4.0646,-4.0693,-4.0733,-4.0752,-4.0776,-4.0812,-4.0837,-4.0858,-4.0908,-4.0898,-4.0888,-4.0888,-4.0888,-4.0888,-4.0869,-4.0849,-4.0597,-4.0558,-4.1538,-4.1898,-4.2061,-4.219,-4.2381,-4.2508,-4.2724,-4.2675,-4.1606,-4.1238,-4.1343,-4.028,-3.9849,-4.0087,-4.0387,-4.0485,-4.0534,-4.0776,-4.0871,-4.0888,-4.0793,-4.068,-4.0631,-4.0534,-4.0387,-4.0238,-4.0138,-4.0138,-4.0087,-4.0087,-4.0087,-3.9732,-3.8633,-3.799,-3.7618,-3.64,-3.5707,-3.5639,-3.5639,-3.5639,-3.5639,-3.5639,-3.5639,-3.5639,-3.5639,-3.5711,-3.5817,-3.5993,-3.6079,-3.6217,-3.6537,-3.6708,-3.6776,-3.7108,-3.7297,-3.7372,-3.754,-3.7757,-3.7899,-3.7933,-3.8036,-3.8174,-3.8241,-3.8322,-3.8382,-3.846,-3.8554,-3.8743,-3.8805,-3.8877,-3.8987,-3.912,-3.9275,-3.9399,-3.9469,-3.9571,-3.965,-3.9647,-3.9656,-3.9785,-3.9989,-4.0053,-4.0057,-4.0099,-4.0177,-4.0215,-4.0271,-4.0307,-4.036,-4.043,-4.0482,-4.0515,-4.0543,-4.0569,-4.0598,-4.0612,-4.066,-4.07,-4.0746,-4.0784,-4.0769,-4.0804,-4.0846,-4.0867,-4.0898,-4.0898,-4.0917,-4.0917,-4.0897,-4.0897,-4.0906,-4.0839,-4.0713,-4.0266,-4.0053,-4.1456,-4.167,-4.198,-4.2109,-4.2174,-4.2492,-4.2463,-4.2179,-4.1377,-4.0958,-4.075,-4.001,-3.9815,-3.9986,-4.0355,-4.0485,-4.0534,-4.0776,-4.0871,-4.0888,-4.0745,-4.0614,-4.0549,-4.0419,-4.0288,-4.0188,-4.0138,-4.0087,-4.0087,-4.0087,-4.0087,-3.9868,-3.8717,-3.7922,-3.7686,-3.6434,-3.5639,-3.5639,-3.5639,-3.5639,-3.5639,-3.5639,-3.5622,-3.5622,-3.5728,-3.5817,-3.5975,-3.6148,-3.631,-3.6429,-3.6596,-3.6794,-3.6925,-3.715,-3.7317,-3.7429,-3.7577,-3.7757,-3.7899,-3.7967,-3.8036,-3.8174,-3.8274,-3.834,-3.8364,-3.8473,-3.8597,-3.8773,-3.8907,-3.8947,-3.9026,-3.9221,-3.9346,-3.9444,-3.9546,-3.9669,-3.9703,-3.967,-3.9717,-3.9823,-3.997,-4.0093,-4.0077,-4.0158,-4.0215,-4.0271,-4.0325,-4.0396,-4.0447,-4.0495,-4.0527,-4.0543,-4.0588,-4.0612,-4.0626,-4.0654,-4.07,-4.0726,-4.0784,-4.082,-4.0823,-4.0826,-4.0856,-4.0877,-4.0878,-4.0907,-4.0915,-4.0924,-4.0924,-4.0915,-4.0837,-4.0537,-4.0217,-3.982,-3.9276,-4.1339,-4.1654,-4.1964,-4.1933,-4.1725,-4.2054,-4.1971,-4.1491,-4.0861,-4.0578,-4.0463,-3.9943,-3.9798,-3.9935,-4.0255,-4.0453,-4.0583,-4.0776,-4.0871,-4.0823,-4.068,-4.0566,-4.0451,-4.032,-4.0188,-4.0087,-4.0087,-4.0087,-4.0087,-4.0087,-4.0087,-3.9952,-3.8616,-3.7973,-3.7686,-3.64,-3.5707,-3.5639,-3.5639,-3.5639,-3.5639,-3.5639,-3.5639,-3.5667,-3.5756,-3.5888,-3.6131,-3.6216,-3.6395,-3.6613,-3.6742,-3.6878,-3.7006,-3.719,-3.7354,-3.7503,-3.7685,-3.7828,-3.7951,-3.8054,-3.8122,-3.8241,-3.8289,-3.8419,-3.8496,-3.8566,-3.8688,-3.8862,-3.8958,-3.9016,-3.9073,-3.9248,-3.9399,-3.9483,-3.9602,-3.9679,-3.9735,-3.9739,-3.9762,-3.987,-3.9994,-4.0077,-4.0138,-4.0196,-4.0289,-4.0379,-4.0392,-4.046,-4.0508,-4.0539,-4.0569,-4.0598,-4.0626,-4.0654,-4.0668,-4.07,-4.0739,-4.0764,-4.0776,-4.0823,-4.0856,-4.0848,-4.0858,-4.0878,-4.0927,-4.0915,-4.0932,-4.0921,-4.0843,-4.0816,-4.0593,-4.0129,-3.9557,-3.8926,-3.8382,-4.1303,-4.1638,-4.1869,-4.1629,-4.1259,-4.1452,-4.1298,-4.077,-4.0351,-4.0222,-4.0263,-3.9893,-3.9781,-3.9884,-4.0205,-4.0387,-4.0583,-4.0776,-4.0888,-4.084,-4.0631,-4.05,-4.0402,-4.0254,-4.0138,-4.0087,-4.0087,-4.0087,-4.0087,-4.0054,-3.9969,-3.9698,-3.8599,-3.7838,-3.7415,-3.6434,-3.5639,-3.5639,-3.5639,-3.5639,-3.5622,-3.5639,-3.5728,-3.5817,-3.5888,-3.6019,-3.6216,-3.6385,-3.6561,-3.6795,-3.6943,-3.7017,-3.7155,-3.7228,-3.7392,-3.7613,-3.7792,-3.7933,-3.8036,-3.8122,-3.8241,-3.8289,-3.8401,-3.8515,-3.8658,-3.8743,-3.8826,-3.896,-3.9054,-3.9138,-3.9237,-3.9335,-3.9439,-3.9521,-3.9631,-3.9727,-3.9781,-3.9769,-3.9851,-3.9956,-4.0076,-4.0176,-4.0215,-4.0252,-4.0379,-4.0466,-4.0492,-4.0519,-4.0569,-4.0598,-4.0626,-4.064,-4.0687,-4.0713,-4.0726,-4.072,-4.0776,-4.0703,-4.0734,-4.0632,-4.0645,-4.049,-4.0461,-4.0869,-4.0954,-4.0894,-4.0723,-4.0536,-4.049,-4.0571,-3.9941,-3.9058,-3.8458,-3.7983,-3.7528,-4.137,-4.1785,-4.1454,-4.1244,-4.1222,-4.0994,-4.0564,-4.0148,-4.0071,-3.9891,-3.9594,-3.964,-3.9729,-3.9833,-4.0138,-4.0453,-4.0583,-4.0793,-4.0823,-4.0745,-4.0583,-4.0451,-4.0368,-4.0254,-4.0121,-4.0087,-4.0121,-4.0121,-4.007,-4.0054,-3.98,-3.9157,-3.8345,-3.7686,-3.6958,-3.6096,-3.5639,-3.5639,-3.5639,-3.5639,-3.5639,-3.5728,-3.5861,-3.5975,-3.6088,-3.6216,-3.6343,-3.6568,-3.6788,-3.6965,-3.7048,-3.7246,-3.7415,-3.7523,-3.7595,-3.7721,-3.788,-3.8018,-3.8086,-3.8204,-3.8303,-3.8401,-3.8546,-3.8632,-3.8731,-3.8859,-3.8979,-3.9092,-3.9221,-3.932,-3.9373,-3.9439,-3.9496,-3.9551,-3.9665,-3.98,-3.9889,-3.9933,-3.9956,-4.0038,-4.0156,-4.0272,-4.0291,-4.0325,-4.0413,-4.0499,-4.0543,-4.0554,-4.0603,-4.0646,-4.0687,-4.072,-4.0765,-4.0771,-4.0776,-4.0788,-4.0781,-4.0621,-4.0497,-4.0169,-4.0102,-3.9917,-4.0012,-4.0224,-4.0571,-4.0723,-4.0505,-4.0247,-3.9597,-3.9252,-3.8537,-3.7809,-3.7611,-3.7381,-3.6867,-4.0821,-4.1294,-4.0767,-4.0424,-4.0312,-4.0326,-3.9944,-3.9506,-3.9622,-3.9603,-3.9515,-3.9573,-3.9729,-3.9833,-4.0037,-4.0288,-4.0485,-4.0631,-4.068,-4.0648,-4.0583,-4.0551,-4.0451,-4.0337,-4.032,-4.032,-4.032,-4.0221,-4.0121,-4.0087,-3.9697,-3.8988,-3.8261,-3.7533,-3.6772,-3.6028,-3.569,-3.5622,-3.5622,-3.5622,-3.5728,-3.5861,-3.5993,-3.6131,-3.6259,-3.6426,-3.6673,-3.6771,-3.6987,-3.7161,-3.7279,-3.745,-3.7596,-3.7738,-3.7845,-3.788,-3.7984,-3.8086,-3.8186,-3.8303,-3.8419,-3.8564,-3.8676,-3.8756,-3.8847,-3.8987,-3.912,-3.9248,-3.9301,-3.9425,-3.9439,-3.9496,-3.9551,-3.9647,-3.9781,-3.987,-3.9954,-4.0057,-4.0098,-4.0099,-4.0215,-4.0291,-4.0345,-4.0396,-4.0482,-4.0546,-4.0573,-4.0617,-4.0651,-4.0693,-4.0733,-4.0759,-4.0771,-4.0692,-4.0676,-4.061,-4.0389,-4.0236,-4.0082,-3.9753,-3.9364,-3.9099,-3.9151,-3.9342,-3.9746,-3.9843,-4.039,-4.015,-3.9072,-3.793,-3.7293,-3.6851,-3.6946,-3.6767,-3.6332,-4.0289,-4.0626,-4.0048,-3.9634,-3.9518,-3.9609,-3.9473,-3.916,-3.9305,-3.9465,-3.9537,-3.9694,-3.9781,-3.9935,-4.0087,-4.0271,-4.0337,-4.0534,-4.0631,-4.0648,-4.06,-4.0568,-4.0585,-4.0585,-4.0468,-4.0451,-4.0468,-4.037,-4.0221,-4.0221,-3.9662,-3.8882,-3.8187,-3.7492,-3.6627,-3.6027,-3.5718,-3.5667,-3.5711,-3.5756,-3.5888,-3.6019,-3.6148,-3.6385,-3.6426,-3.665,-3.6908,-3.7027,-3.7143,-3.7314,-3.7484,-3.7613,-3.7738,-3.7964,-3.8068,-3.8086,-3.8153,-3.8238,-3.8354,-3.8419,-3.8546,-3.8719,-3.878,-3.8888,-3.9005,-3.9129,-3.9256,-3.9399,-3.9451,-3.9502,-3.9539,-3.9594,-3.9665,-3.9762,-3.987,-3.9975,-4.0039,-4.0118,-4.0196,-4.0234,-4.031,-4.0364,-4.0415,-4.0447,-4.0495,-4.0577,-4.0617,-4.0646,-4.0673,-4.0752,-4.079,-4.0784,-4.075,-4.0629,-4.0516,-4.0333,-3.9917,-3.9413,-3.9267,-3.9034,-3.8585,-3.8144,-3.8233,-3.8195,-3.7968,-3.817,-3.9123,-3.9616,-3.824,-3.7079,-3.6274,-3.6028,-3.6345,-3.6363,-3.6048,-4.0054,-4.0,-3.939,-3.9291,-3.952,-3.9175,-3.9084,-3.9288,-3.9432,-3.9537,-3.9677,-3.9781,-3.9901,-3.9986,-4.0288,-4.0436,-4.0534,-4.068,-4.0745,-4.0697,-4.0648,-4.0631,-4.0549,-4.0517,-4.0549,-4.0531,-4.0566,-4.0485,-4.0402,-4.0385,-3.9634,-3.8547,-3.8103,-3.7502,-3.6263,-3.6007,-3.5932,-3.5949,-3.5932,-3.6045,-3.6174,-3.6259,-3.6419,-3.6626,-3.6788,-3.693,-3.7066,-3.722,-3.7372,-3.7558,-3.7594,-3.7739,-3.7982,-3.805,-3.8201,-3.8285,-3.8401,-3.8451,-3.8596,-3.8658,-3.8719,-3.8881,-3.895,-3.9034,-3.9166,-3.9301,-3.942,-3.9451,-3.9571,-3.9669,-3.9679,-3.9754,-3.9845,-3.9911,-3.9996,-4.0059,-4.0139,-4.0196,-4.0271,-4.0344,-4.0398,-4.0452,-4.0502,-4.0515,-4.0543,-4.0588,-4.0665,-4.0673,-4.0713,-4.0759,-4.0827,-4.082,-4.0494,-4.0322,-4.0072,-3.9927,-3.9296,-3.8665,-3.846,-3.8255,-3.7716,-3.7226,-3.6917,-3.682,-3.6618,-3.6877,-3.7915,-3.7974,-3.7013,-3.6481,-3.6008,-3.5911,-3.5963,-3.5878,-3.5986,-3.9094,-3.9358,-3.8771,-3.8771,-3.9135,-3.9101,-3.9218,-3.9432,-3.9537,-3.9729,-3.9918,-3.9969,-4.0087,-4.0238,-4.0419,-4.0485,-4.0517,-4.0631,-4.0697,-4.0697,-4.0697,-4.0728,-4.0758,-4.071,-4.071,-4.0693,-4.0728,-4.0728,-4.0594,-4.0052,-3.9238,-3.835,-3.7769,-3.7086,-3.6104,-3.6036,-3.6019,-3.6019,-3.6105,-3.6216,-3.6301,-3.6444,-3.6626,-3.6869,-3.693,-3.7087,-3.7279,-3.7392,-3.7577,-3.7792,-3.7845,-3.8002,-3.8204,-3.8336,-3.8515,-3.8546,-3.8652,-3.8701,-3.8689,-3.878,-3.8881,-3.8979,-3.9092,-3.9166,-3.9303,-3.9432,-3.9545,-3.962,-3.9669,-3.9741,-3.9815,-3.9845,-3.9933,-4.0015,-4.0118,-4.0158,-4.0215,-4.0289,-4.0362,-4.0413,-4.0479,-4.0531,-4.0546,-4.0558,-4.0588,-4.0646,-4.0693,-4.07,-4.0726,-4.0784,-4.0831,-4.0846,-4.0402,-3.9927,-3.9636,-3.9354,-3.852,-3.7916,-3.7661,-3.7358,-3.6759,-3.6313,-3.621,-3.6144,-3.6175,-3.6551,-3.7058,-3.6863,-3.6415,-3.6156,-3.5903,-3.617,-3.6456,-3.6586,-3.6637,-3.8194,-3.867,-3.8284,-3.8399,-3.8788,-3.9148,-3.9379,-3.959,-3.9729,-3.9935,-4.0104,-4.0188,-4.0303,-4.0468,-4.0517,-4.0583,-4.0534,-4.0583,-4.0631,-4.0745,-4.0793,-4.0858,-4.0918,-4.0965,-4.0965,-4.0965,-4.0948,-4.081,-4.0383,-3.979,-3.9009,-3.8271,-3.7682,-3.6867,-3.6268,-3.6105,-3.6105,-3.6208,-3.6318,-3.6444,-3.6527,-3.6667,-3.6869,-3.7027,-3.7126,-3.7279,-3.754,-3.7685,-3.7828,-3.7984,-3.8119,-3.8238,-3.8419,-3.8578,-3.8701,-3.8762,-3.8881,-3.8921,-3.8892,-3.8921,-3.9036,-3.912,-3.9202,-3.9301,-3.9502,-3.9539,-3.957,-3.9674,-3.9764,-3.9796,-3.9867,-3.9933,-4.0017,-4.0118,-4.0215,-4.0234,-4.027,-4.036,-4.0427,-4.0495,-4.0543,-4.0588,-4.0603,-4.0617,-4.0646,-4.0687,-4.0733,-4.0746,-4.0687,-4.0645,-4.066,-4.0625,-3.9801,-3.9228,-3.8811,-3.8402,-3.7644,-3.7245,-3.7008,-3.6713,-3.6248,-3.6054,-3.6002,-3.5917,-3.5908,-3.6064,-3.6493,-3.622,-3.6045,-3.6571,-3.698,-3.6974,-3.7124,-3.7254,-3.6988,-3.7512,-3.7998,-3.8091,-3.8399,-3.886,-3.9164,-3.9415,-3.9729,-3.9986,-4.0121,-4.0323,-4.0419,-4.0483,-4.0517,-4.0631,-4.0697,-4.0697,-4.084,-4.0888,-4.0935,-4.0982,-4.1029,-4.1059,-4.1088,-4.1163,-4.1146,-4.0995,-4.0631,-4.012,-3.9381,-3.8866,-3.8474,-3.7629,-3.6991,-3.65,-3.6301,-3.636,-3.6461,-3.6585,-3.6748,-3.6851,-3.697,-3.7105,-3.7297,-3.7429,-3.7577,-3.7613,-3.7828,-3.8036,-3.8153,-3.8303,-3.8465,-3.8609,-3.8762,-3.8881,-3.8968,-3.9036,-3.912,-3.9129,-3.912,-3.9175,-3.932,-3.9444,-3.9495,-3.9645,-3.9674,-3.9703,-3.975,-3.9819,-3.9908,-3.9975,-4.0058,-4.0138,-4.0215,-4.029,-4.0362,-4.0394,-4.0444,-4.0508,-4.0573,-4.0603,-4.0631,-4.066,-4.0673,-4.0693,-4.0733,-4.07,-4.0725,-4.0355,-4.0292,-4.0343,-4.0102,-3.9131,-3.8421,-3.7819,-3.7361,-3.7109,-3.6833,-3.6577,-3.6319,-3.6015,-3.5911,-3.5897,-3.5981,-3.6025,-3.5947,-3.602,-3.6395,-3.6883,-3.7687,-3.8013,-3.7759,-3.7637,-3.7708,-3.7131,-3.761,-3.8017,-3.8286,-3.8567,-3.886,-3.9362,-3.9625,-3.9833,-4.0087,-4.0355,-4.0554,-4.068,-4.0758,-4.0776,-4.0793,-4.0888,-4.0935,-4.0982,-4.1012,-4.1088,-4.1152,-4.1134,-4.118,-4.118,-4.1209,-4.1087,-4.0809,-4.0433,-4.0033,-3.9033,-3.845,-3.7999,-3.7436,-3.6977,-3.6596,-3.6527,-3.6626,-3.669,-3.6829,-3.6948,-3.7048,-3.7185,-3.7317,-3.7484,-3.7667,-3.7828,-3.7915,-3.807,-3.8289,-3.8419,-3.8564,-3.867,-3.8822,-3.8921,-3.8989,-3.9092,-3.9202,-3.9309,-3.9369,-3.9335,-3.9354,-3.9439,-3.9558,-3.965,-3.9703,-3.9735,-3.9781,-3.9826,-3.9911,-3.9996,-4.0099,-4.0158,-4.0234,-4.0308,-4.0341,-4.037,-4.0261,-4.0192,-4.0222,-4.0097,-4.0414,-4.0654,-4.07,-4.0733,-4.0746,-4.0759,-4.0725,-4.0587,-4.0098,-3.9742,-3.9733,-3.9558,-3.8635,-3.8294,-3.775,-3.7253,-3.6814,-3.6596,-3.6377,-3.6391,-3.6397,-3.5936,-3.5942,-3.6045,-3.6303,-3.6459,-3.6727,-3.7097,-3.7701,-3.8505,-3.8539,-3.8227,-3.8182,-3.8124,-3.7371,-3.777,-3.8173,-3.8511,-3.875,-3.904,-3.9451,-3.9781,-3.9986,-4.0238,-4.0534,-4.0793,-4.0901,-4.0995,-4.1012,-4.1012,-4.1012,-4.1105,-4.1105,-4.1134,-4.118,-4.1209,-4.1255,-4.1255,-4.1248,-4.1251,-4.0979,-4.056,-4.0202,-3.9458,-3.8572,-3.8105,-3.7702,-3.7241,-3.6974,-3.6823,-3.6806,-3.6829,-3.6891,-3.7031,-3.7164,-3.7279,-3.7411,-3.7559,-3.7721,-3.7863,-3.8036,-3.8153,-3.8336,-3.8515,-3.864,-3.8762,-3.8833,-3.8979,-3.9092,-3.9183,-3.9264,-3.9343,-3.9427,-3.9502,-3.9521,-3.9514,-3.957,-3.9637,-3.9708,-3.9758,-3.9807,-3.987,-3.9954,-4.0017,-4.0099,-4.0177,-4.0271,-4.0038,-4.001,-3.9906,-3.9873,-3.9533,-3.9397,-3.9507,-3.956,-3.9799,-3.9786,-3.9973,-3.9959,-4.028,-4.0273,-4.02,-3.9854,-3.9228,-3.8967,-3.8908,-3.8654,-3.8149,-3.8002,-3.7914,-3.7747,-3.7599,-3.7552,-3.7371,-3.7261,-3.7105,-3.6649,-3.6615,-3.7088,-3.7283,-3.7205,-3.7517,-3.8043,-3.8667,-3.9318,-3.924,-3.9162,-3.8402,-3.824,-3.7598,-3.7992,-3.8391,-3.8694,-3.8969,-3.9325,-3.9573,-3.9884,-4.0138,-4.0387,-4.0728,-4.1012,-4.1065,-4.1111,-4.1146,-4.1117,-4.118,-4.1226,-4.1226,-4.1209,-4.1255,-4.1363,-4.138,-4.1366,-4.1288,-4.1025,-4.0715,-4.0257,-3.9552,-3.8704,-3.8333,-3.7931,-3.7615,-3.7347,-3.7182,-3.7009,-3.7069,-3.7091,-3.7129,-3.7299,-3.7429,-3.7577,-3.7667,-3.781,-3.7967,-3.8086,-3.8271,-3.8401,-3.8578,-3.8646,-3.8601,-3.8756,-3.8785,-3.8757,-3.8902,-3.9051,-3.9152,-3.9233,-3.9406,-3.9595,-3.9614,-3.9538,-3.9632,-3.9712,-3.9758,-3.9867,-3.9933,-3.9842,-3.983,-3.9967,-4.0024,-4.0174,-4.0151,-3.9717,-3.9492,-3.935,-3.9259,-3.8915,-3.8768,-3.8917,-3.9329,-3.8813,-3.8411,-3.8733,-3.9054,-3.953,-3.9688,-3.9622,-3.9266,-3.8753,-3.8656,-3.8742,-3.8227,-3.7944,-3.8302,-3.8388,-3.8455,-3.8393,-3.8383,-3.8325,-3.8176,-3.8071,-3.7829,-3.7932,-3.8229,-3.8273,-3.8215,-3.8585,-3.9053,-3.934,-3.9602,-4.0273,-4.0156,-3.924,-3.8227,-3.7487,-3.8375,-3.8821,-3.904,-3.9415,-3.9781,-3.9849,-3.9986,-4.0305,-4.07,-4.097,-4.1146,-4.1143,-4.1161,-4.1202,-4.1192,-4.1255,-4.1283,-4.1318,-4.1363,-4.1401,-4.1393,-4.1218,-4.1051,-4.083,-4.0581,-3.9976,-3.954,-3.9208,-3.8596,-3.8193,-3.7859,-3.7612,-3.7631,-3.7521,-3.7392,-3.7392,-3.7466,-3.7485,-3.7595,-3.7667,-3.7863,-3.7949,-3.8052,-3.8204,-3.8368,-3.8442,-3.8517,-3.8663,-3.8522,-3.8257,-3.8348,-3.8223,-3.7965,-3.8016,-3.7995,-3.8014,-3.8022,-3.8115,-3.822,-3.8319,-3.8809,-3.9315,-3.9652,-3.97,-3.9935,-4.0059,-3.9871,-3.949,-3.9431,-3.9272,-3.8824,-3.8777,-3.8512,-3.8517,-3.845,-3.8491,-3.8357,-3.837,-3.8517,-3.9141,-3.9069,-3.9294,-3.9576,-3.9406,-3.968,-3.9964,-4.0033,-3.9723,-3.9238,-3.9131,-3.912,-3.8333,-3.8002,-3.8524,-3.8871,-3.914,-3.9069,-3.8923,-3.8955,-3.8987,-3.8901,-3.8873,-3.8727,-3.8751,-3.9004,-3.9243,-3.9043,-3.8961,-3.9365,-3.9764,-3.9986,-3.9844,-3.8831,-3.7857,-3.7097,-3.8821,-3.9239,-3.9379,-3.9729,-4.0171,-4.0037,-4.0155,-4.0551,-4.094,-4.1204,-4.1237,-4.1278,-4.1313,-4.1328,-4.1346,-4.1101,-4.1121,-4.1086,-4.0841,-4.0928,-4.084,-4.0556,-4.0317,-4.02,-3.984,-3.9284,-3.8883,-3.8531,-3.829,-3.79,-3.7757,-3.7846,-3.7951,-3.7916,-3.7775,-3.7757,-3.7757,-3.781,-3.7863,-3.8003,-3.8104,-3.8186,-3.8285,-3.836,-3.8389,-3.8309,-3.8372,-3.8266,-3.8052,-3.7731,-3.7548,-3.748,-3.7146,-3.7084,-3.7134,-3.7222,-3.7327,-3.7487,-3.7623,-3.7681,-3.8231,-3.88,-3.9083,-3.9142,-3.9202,-3.9109,-3.8974,-3.8759,-3.8692,-3.8415,-3.802,-3.7892,-3.78,-3.7808,-3.7642,-3.7681,-3.7687,-3.768,-3.7873,-3.8554,-3.9178,-3.9673,-4.0142,-4.0176,-4.0042,-4.0306,-4.0519,-4.0033,-3.9557,-3.9401,-3.9343,-3.8835,-3.8494,-3.9054,-3.9614,-4.0057,-3.9877,-3.9494,-3.9474,-3.9524,-3.9906,-3.9916,-3.9594,-3.9267,-3.9392,-3.9334,-3.8779,-3.8712,-3.8922,-3.8912,-3.8837,-3.8583,-3.8129,-3.7662,-3.7116,-3.9135,-3.9627,-3.9662,-3.9885,-4.03,-4.0082,-4.0297,-4.0797,-4.0984,-4.1115,-4.1251,-4.1174,-4.113,-4.1358,-4.1429,-4.1025,-4.0576,-4.0489,-4.0179,-3.9876,-3.9893,-3.9693,-3.961,-3.9527,-3.9185,-3.8857,-3.854,-3.8312,-3.7989,-3.7987,-3.7967,-3.8052,-3.8204,-3.8223,-3.8174,-3.8126,-3.8057,-3.8106,-3.8138,-3.8256,-3.8336,-3.8319,-3.8321,-3.8248,-3.8,-3.7765,-3.7637,-3.7411,-3.7112,-3.6951,-3.6996,-3.6986,-3.7021,-3.7128,-3.7213,-3.7258,-3.7281,-3.7224,-3.7221,-3.7182,-3.7258,-3.7526,-3.7546,-3.7583,-3.7925,-3.8171,-3.8108,-3.7983,-3.7859,-3.7828,-3.77,-3.7511,-3.734,-3.7135,-3.687,-3.6856,-3.6861,-3.6949,-3.7143,-3.7657,-3.8288,-3.8833,-3.9312,-3.9538,-3.9723,-3.981,-3.9818,-3.9563,-3.9163,-3.9155,-3.9202,-3.954,-3.9393,-3.9738,-4.0142,-4.0098,-4.0085,-3.9493,-3.9739,-3.9892,-4.0384,-4.0394,-3.9759,-3.9376,-3.9637,-3.9442,-3.8791,-3.8393,-3.8263,-3.8215,-3.8258,-3.8174,-3.7974,-3.7993,-3.7642,-3.8703,-3.9092,-3.8766,-3.8849,-3.9175,-3.943,-3.9608,-3.9643,-3.969,-3.9797,-4.0056,-4.0052,-4.0235,-4.0164,-4.0147,-4.0041,-3.9917,-3.9852,-3.9764,-3.9575,-3.931,-3.9235,-3.91,-3.8946,-3.8595,-3.833,-3.8204,-3.8239,-3.8142,-3.8153,-3.8285,-3.8382,-3.8415,-3.8496,-3.8519,-3.8551,-3.8423,-3.8328,-3.835,-3.8413,-3.8297,-3.8095,-3.8055,-3.7811,-3.7322,-3.7106,-3.698,-3.6945,-3.6649,-3.6227,-3.6283,-3.6182,-3.553,-3.557,-3.5628,-3.5794,-3.5846,-3.5861,-3.5965,-3.5982,-3.6077,-3.6208,-3.6135,-3.681,-3.7305,-3.7587,-3.7424,-3.7203,-3.7055,-3.7002,-3.6799,-3.662,-3.6549,-3.6419,-3.6269,-3.6319,-3.6361,-3.6543,-3.6775,-3.7456,-3.8078,-3.8246,-3.8685,-3.887,-3.9034,-3.9099,-3.9085,-3.8914,-3.8855,-3.8855,-3.8953,-3.933,-3.9356,-3.9429,-3.9358,-3.9312,-3.9499,-3.9589,-3.9677,-3.9609,-3.9423,-3.9334,-3.9322,-3.9188,-3.8977,-3.8863,-3.8687,-3.8284,-3.778,-3.7986,-3.8054,-3.7965,-3.7915,-3.8129,-3.8305,-3.8368,-3.8734,-3.8499,-3.8412,-3.8486,-3.8831,-3.8795,-3.8567,-3.9025,-3.9398,-3.9552,-3.958,-3.9562,-3.9669,-3.9646,-3.9469,-3.9115,-3.908,-3.8961,-3.8688,-3.8901,-3.8645,-3.8417,-3.842,-3.8277,-3.8075,-3.807,-3.8244,-3.8267,-3.8428,-3.8572,-3.8621,-3.8634,-3.8725,-3.8688,-3.8487,-3.8334,-3.8269,-3.8245,-3.8282,-3.8061,-3.7701,-3.747,-3.7227,-3.6701,-3.6423,-3.6347,-3.6419,-3.5885,-3.5499,-3.5565,-3.5437,-3.5002,-3.5058,-3.511,-3.5321,-3.5372,-3.5442,-3.5507,-3.5499,-3.5417,-3.5374,-3.5407,-3.5926,-3.6358,-3.6642,-3.6483,-3.6301,-3.6246,-3.6132,-3.583,-3.5616,-3.5659,-3.5681,-3.5789,-3.5878,-3.6041,-3.6203,-3.6787,-3.7517,-3.7839,-3.7928,-3.8093,-3.8237,-3.8427,-3.8646,-3.8753,-3.8695,-3.8676,-3.8728,-3.8741,-3.8942,-3.8832,-3.8741,-3.8636,-3.855,-3.875,-3.8897,-3.897,-3.8842,-3.8498,-3.8482,-3.8642,-3.8372,-3.7985,-3.7867,-3.777,-3.7601,-3.7292,-3.7635,-3.8171,-3.8466,-3.8636,-3.887,-3.9006,-3.8052,-3.8481,-3.8456,-3.8243,-3.8099,-3.838,-3.814,-3.7642,-3.881,-3.9405,-3.9363,-3.9387,-3.9332,-3.9189,-3.9185,-3.8919,-3.8617,-3.8457,-3.8302,-3.7684,-3.7989,-3.7972,-3.8097,-3.8003,-3.8178,-3.8207,-3.8252,-3.8419,-3.8541,-3.8713,-3.8773,-3.8851,-3.8921,-3.8915,-3.8674,-3.8319,-3.8044,-3.779,-3.7616,-3.7517,-3.7511,-3.7158,-3.6696,-3.6609,-3.6109,-3.5623,-3.5522,-3.5233,-3.4771,-3.487,-3.4964,-3.5039,-3.5129,-3.516,-3.5223,-3.5304,-3.5335,-3.5379,-3.5427,-3.5488,-3.5482,-3.5522,-3.556,-3.5701,-3.5926,-3.6001,-3.59,-3.5874,-3.5856,-3.5861,-3.5654,-3.562,-3.5662,-3.5673,-3.5742,-3.5858,-3.6052,-3.6168,-3.6452,-3.6948,-3.691,-3.7055,-3.7325,-3.7428,-3.7408,-3.7916,-3.7994,-3.796,-3.8063,-3.8129,-3.8305,-3.8305,-3.7935,-3.7726,-3.7776,-3.7766,-3.7986,-3.8131,-3.814,-3.7987,-3.7604,-3.7744,-3.8024,-3.7575,-3.7106,-3.6833,-3.6654,-3.6817,-3.7234,-3.7732,-3.8307,-3.9012,-3.9357,-3.963,-3.9805,-3.7421,-3.7663,-3.745,-3.7488,-3.7714,-3.7807,-3.7864,-3.7811,-3.8169,-3.8348,-3.8204,-3.8205,-3.8277,-3.8473,-3.8473,-3.8276,-3.8151,-3.8133,-3.7972,-3.7918,-3.7863,-3.7915,-3.807,-3.8189,-3.8303,-3.8433,-3.8546,-3.867,-3.8803,-3.8892,-3.896,-3.898,-3.9036,-3.8867,-3.8369,-3.7966,-3.7716,-3.7248,-3.6731,-3.675,-3.6924,-3.6446,-3.597,-3.5833,-3.5453,-3.5122,-3.5034,-3.5001,-3.4889,-3.4964,-3.5018,-3.5126,-3.5245,-3.5273,-3.5354,-3.5432,-3.546,-3.5468,-3.5528,-3.5554,-3.5566,-3.5579,-3.5604,-3.5616,-3.5623,-3.5579,-3.5566,-3.5572,-3.5584,-3.5589,-3.5601,-3.5643,-3.5673,-3.5704,-3.5704,-3.5878,-3.6052,-3.6123,-3.6193,-3.6115,-3.6034,-3.6215,-3.6522,-3.6584,-3.6521,-3.6501,-3.6479,-3.6494,-3.6674,-3.683,-3.7259,-3.7235,-3.6723,-3.6553,-3.6757,-3.6941,-3.716,-3.7028,-3.6937,-3.6807,-3.6729,-3.6889,-3.7067,-3.6657,-3.6245,-3.6205,-3.6417,-3.6856,-3.7292,-3.7873,-3.8834,-3.9694,-4.0195,-4.0506,-4.0662,-3.687,-3.7074,-3.7123,-3.7317,-3.7594,-3.7703,-3.7828,-3.8002,-3.8101,-3.8083,-3.8,-3.7943,-3.791,-3.8002,-3.7967,-3.8002,-3.802,-3.7985,-3.8056,-3.8106,-3.8122,-3.8171,-3.8271,-3.8387,-3.8483,-3.8609,-3.8803,-3.8921,-3.9007,-3.9082,-3.9146,-3.8827,-3.873,-3.8459,-3.7783,-3.7446,-3.7136,-3.6588,-3.5852,-3.5812,-3.6177,-3.5666,-3.5324,-3.5181,-3.5073,-3.4831,-3.4889,-3.4964,-3.5037,-3.5107,-3.5174,-3.5273,-3.5369,-3.5393,-3.5435,-3.5495,-3.5541,-3.5554,-3.5591,-3.5616,-3.5616,-3.5628,-3.5651,-3.5654,-3.5665,-3.5643,-3.5612,-3.5623,-3.5612,-3.5604,-3.5643,-3.5704,-3.5704,-3.5704,-3.5704,-3.5792,-3.5852,-3.5883,-3.5931,-3.5948,-3.5904,-3.5974,-3.6202,-3.621,-3.6156,-3.6211,-3.6012,-3.5986,-3.6009,-3.6009,-3.6321,-3.6438,-3.6118,-3.5981,-3.6243,-3.6325,-3.6329,-3.6121,-3.601,-3.6166,-3.6362,-3.6186,-3.603,-3.6049,-3.6069,-3.6049,-3.6316,-3.693,-3.7585,-3.8224,-3.9355,-4.0506,-4.0896,-4.111,-4.1052,-3.6561,-3.6806,-3.7182,-3.7447,-3.7685,-3.7846,-3.8002,-3.8119,-3.8271,-3.8354,-3.8382,-3.8227,-3.818,-3.8132,-3.8135,-3.8135,-3.8168,-3.8186,-3.8238,-3.8322,-3.8372,-3.8451,-3.8496,-3.8621,-3.8701,-3.8851,-3.9007,-3.9092,-3.9147,-3.9077,-3.8745,-3.8297,-3.8013,-3.7784,-3.7024,-3.6507,-3.6173,-3.5892,-3.5439,-3.5077,-3.4983,-3.4888,-3.4926,-3.4907,-3.4889,-3.4964,-3.5019,-3.5108,-3.5176,-3.5239,-3.5335,-3.5412,-3.5468,-3.5509,-3.5534,-3.5579,-3.5591,-3.5604,-3.5628,-3.5651,-3.5631,-3.5635,-3.5697,-3.5718,-3.5718,-3.5698,-3.5669,-3.5669,-3.5648,-3.5637,-3.5676,-3.5695,-3.5695,-3.5695,-3.5706,-3.5706,-3.5728,-3.5718,-3.5745,-3.5799,-3.585,-3.5878,-3.5885,-3.5889,-3.5924,-3.5977,-3.6009,-3.602,-3.6007,-3.6004,-3.6157,-3.6215,-3.6056,-3.5981,-3.5981,-3.6001,-3.6004,-3.6007,-3.601,-3.601,-3.601,-3.601,-3.601,-3.601,-3.601,-3.601,-3.657,-3.7262,-3.7921,-3.8478,-3.9744,-4.0818,-4.0935,-4.111,-4.111,-3.6846,-3.7182,-3.7447,-3.7667,-3.7846,-3.7984,-3.8138,-3.8289,-3.8401,-3.8478,-3.8478,-3.8559,-3.8496,-3.8332,-3.835,-3.8382,-3.8428,-3.8428,-3.846,-3.8523,-3.864,-3.8701,-3.8743,-3.8833,-3.8921,-3.9064,-3.9202,-3.9283,-3.9048,-3.8746,-3.8445,-3.815,-3.7593,-3.7152,-3.6495,-3.6063,-3.5837,-3.5495,-3.5303,-3.507,-3.5054,-3.502,-3.5001,-3.5038,-3.5054,-3.5107,-3.5176,-3.5229,-3.5289,-3.5364,-3.5416,-3.5509,-3.5547,-3.5572,-3.5596,-3.562,-3.562,-3.5631,-3.5654,-3.5676,-3.5667,-3.5667,-3.5728,-3.5747,-3.5757,-3.5766,-3.5757,-3.5757,-3.5728,-3.5689,-3.5708,-3.5708,-3.5708,-3.5708,-3.5708,-3.5737,-3.5766,-3.5754,-3.5741,-3.5811,-3.5878,-3.5905,-3.5903,-3.5924,-3.5938,-3.5986,-3.6017,-3.6007,-3.601,-3.601,-3.601,-3.6007,-3.5988,-3.5991,-3.601,-3.6007,-3.601,-3.601,-3.601,-3.601,-3.601,-3.601,-3.601,-3.601,-3.601,-3.601,-3.6687,-3.7359,-3.8034,-3.8707,-4.007,-4.0994,-4.1091,-4.111,-4.111]}]]